GFSSGP_con_mlcape_000.txt.gz
CAPE
0 0 0 0 0 0 0 0 2 0 1 49 50 52 54 61 84 123 326 329 511 556 575 578 650 720 739 755 718 699 700 699 687 679 609 565 502 327 137 117 150 173 205 241 204 190 125 188 281
0 0 0 0 0 0 0 2 0 1 0 8 28 47 41 211 429 494 385 434 545 617 607 597 703 751 839 914 920 884 901 895 839 799 750 660 400 168 78 22 7 9 32 77 71 88 20 4 0
0 0 0 0 0 0 1 0 0 0 0 4 30 13 31 308 431 479 420 518 643 660 705 773 828 843 865 868 887 912 901 915 938 803 616 447 200 91 17 0 0 0 1 3 1 0 0 0 0
0 0 0 0 0 0 0 0 19 0 0 2 0 9 75 217 474 689 873 769 678 848 867 960 1046 986 919 843 798 827 909 942 748 443 450 241 113 26 0 0 0 0 0 0 0 0 0 0 0
0 0 0 0 0 1 6 11 13 0 32 5 0 10 55 414 820 1023 1020 706 741 990 1109 1294 1239 1174 1065 1052 1000 857 804 669 410 363 275 131 24 0 0 0 0 0 0 0 0 0 0 0 0
0 0 0 0 0 0 0 0 0 42 13 0 3 88 91 369 872 984 949 823 1047 1115 1376 1489 1459 1376 1294 1155 865 565 341 203 178 206 142 19 0 0 0 0 0 0 0 0 0 0 0 0 0
0 0 0 0 0 0 0 0 0 17 72 53 33 52 3 293 689 443 533 723 940 1236 1225 1128 994 904 730 530 291 185 144 48 44 32 3 4 0 0 0 0 0 0 0 0 0 0 0 0 0
0 0 0 0 0 0 0 0 0 11 46 47 118 37 12 7 163 240 432 368 397 371 409 385 331 203 148 147 98 56 1 0 5 2 31 35 1 0 0 0 0 0 0 0 0 0 0 0 0
0 0 0 0 0 0 0 0 0 0 48 33 18 74 6 0 14 88 125 109 67 107 34 119 45 0 0 5 0 0 0 0 20 56 178 174 96 5 2 18 0 1 0 0 0 0 0 0 0
0 0 0 0 0 0 0 0 0 0 0 61 134 56 0 0 0 0 48 154 213 280 187 189 89 0 0 0 0 0 20 103 162 229 266 277 243 224 80 101 100 57 26 12 15 7 6 0 0
0 0 0 0 0 0 0 0 0 0 0 49 125 40 0 0 0 0 3 100 239 340 361 326 250 24 0 17 0 34 156 233 300 415 355 348 393 187 275 102 23 8 3 14 34 32 12 0 0
0 0 0 0 0 0 0 0 0 0 0 53 140 83 0 0 0 0 0 0 94 373 273 211 237 165 53 57 49 84 260 408 494 465 263 121 105 2 0 0 0 0 0 0 7 11 0 0 0
0 0 0 0 0 0 0 0 0 0 0 139 171 157 98 5 0 0 0 0 11 286 205 105 33 77 35 5 100 159 246 453 567 481 298 27 30 0 0 0 0 0 0 0 0 2 0 0 0
0 0 0 0 0 0 0 0 0 0 0 105 179 217 209 118 15 0 0 0 1 315 298 282 21 142 94 91 42 55 52 52 301 234 51 6 0 21 21 8 1 0 1 0 0 0 0 0 0
0 0 0 0 0 0 0 0 0 0 0 30 99 170 221 175 110 34 0 0 0 324 464 413 583 470 118 217 224 60 0 1 33 10 0 0 2 21 1 0 0 0 0 0 0 0 0 0 0
0 0 0 0 0 0 0 0 0 0 0 0 0 82 156 181 178 106 50 0 0 389 605 592 30 184 156 148 131 50 0 0 0 0 0 0 0 0 0 0 0 0 0 0 0 0 0 0 0
0 0 0 0 0 0 0 0 0 0 0 0 0 0 0 6 11 1 0 0 82 437 680 454 37 395 99 88 5 0 0 0 0 0 0 0 0 0 0 0 0 0 0 0 0 0 0 0 0
0 0 0 0 0 0 0 0 0 0 0 0 0 0 0 0 0 0 0 0 79 442 279 273 65 84 4 0 0 0 0 0 0 0 0 0 0 0 0 0 0 0 0 0 0 0 0 0 0
0 0 0 0 0 0 0 0 0 0 0 0 0 0 0 0 0 0 0 0 4 19 14 1 47 13 0 0 0 0 0 0 0 0 0 0 0 0 0 0 0 0 0 0 0 0 0 0 0
0 0 0 0 0 0 0 0 0 0 0 0 0 0 0 0 0 0 0 0 0 0 0 0 0 0 0 0 0 0 0 0 0 0 0 0 0 0 0 0 0 0 0 0 0 0 0 0 0
0 0 0 0 0 0 0 0 0 0 0 0 0 0 0 0 0 0 0 0 0 0 0 0 0 0 0 0 0 0 0 0 0 0 0 0 0 0 0 0 0 0 0 0 0 0 0 0 0
0 0 0 0 0 0 0 0 0 0 0 0 0 0 0 0 0 0 0 0 0 0 0 0 0 0 0 0 0 0 0 0 0 0 0 0 0 0 0 0 0 0 0 0 0 0 0 0 0
0 0 0 0 0 0 0 0 0 0 0 0 0 0 0 0 0 0 0 0 0 0 0 0 0 0 0 0 0 0 0 0 0 0 0 0 0 0 0 0 0 0 0 0 0 0 0 0 0
0 0 0 0 0 0 0 0 0 0 0 0 0 0 0 0 0 0 0 0 0 0 0 0 0 0 0 0 0 0 0 0 0 0 0 0 0 0 0 0 0 0 0 0 0 0 0 0 0
0 0 3 11 2 8 0 0 0 0 0 0 0 0 0 0 0 0 0 0 0 0 0 0 0 0 0 0 0 0 0 0 0 0 0 0 0 0 0 0 0 0 0 0 0 0 0 0 0
0 0 0 0 0 0 0 0 0 0 0 0 0 0 0 0 0 0 0 0 0 0 0 0 0 0 0 0 0 0 0 0 0 0 0 0 0 0 0 0 0 0 0 0 0 0 0 0 0
0 0 0 0 0 0 0 0 0 0 0 0 0 0 0 0 0 0 0 0 0 0 0 0 0 0 0 0 0 0 0 0 0 0 0 0 0 0 0 0 0 0 0 0 0 0 0 0 0
0 0 0 0 0 0 0 0 0 0 0 0 0 0 0 0 0 0 0 0 0 0 0 0 0 0 0 0 0 0 0 0 0 0 0 0 0 0 0 0 0 0 0 0 0 0 0 0 0
0 0 0 0 0 0 0 0 0 0 0 0 0 0 0 0 0 0 0 0 0 0 0 0 0 0 0 0 0 0 0 0 0 0 0 0 0 0 0 0 0 0 0 0 0 0 0 0 0
0 0 0 0 0 0 0 0 0 0 0 0 0 0 0 0 0 0 0 0 0 0 0 0 0 0 0 0 0 0 0 0 0 0 0 0 0 0 0 0 0 0 0 0 0 0 0 0 0

GFSSGP_con_mlcape_003.txt.gz
CAPE
0 0 0 0 0 0 0 0 1 1 1 3 4 56 115 131 88 81 265 307 517 529 657 732 765 670 630 624 574 561 597 621 584 552 527 500 335 155 110 24 0 0 35 23 18 14 19 0 0
0 0 0 0 0 0 0 0 50 40 21 2 4 77 160 186 446 429 350 576 558 606 672 783 821 803 737 668 702 745 769 758 670 638 629 397 167 57 9 0 0 0 0 0 0 0 0 0 0
0 0 0 0 0 0 0 25 45 35 9 5 5 0 124 239 531 445 439 663 668 587 701 867 827 866 873 862 884 879 846 798 781 769 532 238 103 32 0 0 0 0 0 0 0 0 0 0 0
0 0 0 0 0 0 0 3 31 21 32 36 0 24 130 365 497 488 620 745 659 685 807 839 862 977 983 931 850 778 783 803 553 415 238 155 72 2 0 0 0 0 0 0 0 0 0 0 0
0 0 0 0 0 0 0 0 13 57 58 38 4 65 217 656 558 633 862 811 805 811 959 943 916 871 824 746 751 839 820 540 262 140 72 33 11 0 0 0 0 0 0 0 0 0 0 0 0
0 0 0 0 0 0 0 1 65 75 54 55 123 214 259 840 711 939 891 797 877 983 1244 1153 1018 857 808 888 796 707 560 331 150 45 26 2 0 0 0 0 0 0 0 0 0 0 0 0 0
0 0 0 0 0 0 0 37 101 59 84 128 151 141 360 679 763 1022 797 907 966 1087 1137 1222 1235 1150 1034 808 567 400 185 41 23 17 11 7 0 0 0 0 0 0 0 0 0 0 0 0 0
0 0 0 0 0 0 0 0 48 128 160 59 76 79 439 639 848 948 876 973 1082 1102 1063 1032 960 897 709 507 252 85 6 4 24 16 11 5 0 0 0 0 0 0 0 0 0 0 0 0 0
0 0 0 0 0 0 0 0 0 26 107 47 0 49 452 609 522 434 365 426 525 538 406 377 343 292 212 145 44 15 0 0 0 42 67 81 31 8 24 42 20 16 1 0 0 0 0 0 0
0 0 0 0 0 0 0 0 28 125 116 74 0 25 371 121 168 101 18 0 47 48 136 36 9 2 12 7 0 0 0 0 34 116 154 160 160 152 153 94 123 153 93 50 40 38 27 30 1
0 0 0 0 0 0 0 0 0 17 21 50 23 22 135 158 183 24 0 0 8 35 104 45 7 0 0 0 0 0 4 67 109 259 251 251 276 223 156 130 34 34 70 38 40 42 46 25 13
0 0 0 0 0 0 0 0 0 0 6 81 64 16 40 88 37 4 3 33 135 140 184 143 16 0 0 0 0 3 58 181 221 297 324 202 144 46 0 0 0 0 0 0 0 0 12 27 1
0 0 0 0 0 0 0 0 0 0 12 150 54 0 3 0 0 0 11 64 198 303 280 270 197 0 0 2 0 42 158 334 425 362 233 93 34 0 0 0 0 0 0 0 0 0 0 0 0
0 0 0 0 0 0 0 0 0 0 143 113 53 3 0 0 0 0 0 41 209 344 322 238 271 95 37 7 43 91 189 355 498 426 209 74 1 0 0 0 0 0 0 0 0 0 0 0 0
0 0 0 0 0 0 0 0 0 0 158 98 83 51 18 0 0 0 0 0 129 257 337 253 151 94 31 4 7 34 159 90 259 207 23 0 0 0 0 0 0 0 0 0 0 0 0 0 0
0 0 0 0 0 0 0 0 0 0 86 74 146 147 80 26 3 0 0 0 0 155 321 373 403 110 24 17 10 0 0 0 1 0 0 0 0 0 0 0 0 0 0 0 0 0 0 0 0
0 0 0 0 0 0 0 0 0 0 6 18 80 67 42 29 0 0 0 0 0 39 418 525 410 58 0 0 0 0 0 0 0 0 0 0 0 0 0 0 0 0 0 0 0 0 0 0 0
0 0 0 0 0 0 0 0 0 0 0 0 0 0 0 0 0 0 0 0 0 30 129 115 126 36 0 0 0 0 0 0 0 0 0 0 0 0 0 0 0 0 0 0 0 0 0 0 0
0 0 0 0 0 0 0 0 0 0 0 0 0 0 0 0 0 0 0 0 9 0 71 16 0 0 0 0 0 0 0 0 0 0 0 0 0 0 0 0 0 0 0 0 0 0 0 0 0
0 0 0 0 0 0 0 0 0 0 0 0 0 0 0 0 0 0 0 0 0 0 0 0 0 0 0 0 0 0 0 0 0 0 0 0 0 0 0 0 0 0 0 0 0 0 0 0 0
0 0 0 0 0 0 0 0 0 0 0 0 0 0 0 0 0 0 0 0 0 0 0 0 0 0 0 0 0 0 0 0 0 0 0 0 0 0 0 0 0 0 0 0 0 0 0 0 0
0 0 0 0 0 0 0 0 0 0 0 0 0 0 0 0 0 0 0 0 0 0 0 0 0 0 0 0 0 0 0 0 0 0 0 0 0 0 0 0 0 0 0 0 0 0 0 0 0
0 0 0 0 0 0 0 0 0 0 0 0 0 0 0 0 0 0 0 0 0 0 0 0 0 0 0 0 0 0 0 0 0 0 0 0 0 0 0 0 0 0 0 0 0 0 0 0 0
0 0 0 0 0 0 0 0 0 0 0 0 0 0 0 0 0 0 0 0 0 0 0 0 0 0 0 0 0 0 0 0 0 0 0 0 0 0 0 0 0 0 0 0 0 0 0 0 0
0 0 3 3 2 0 0 0 0 0 0 0 0 0 0 0 0 0 0 0 0 0 0 0 0 0 0 0 0 0 0 0 0 0 0 0 0 0 0 0 0 0 0 0 0 0 0 0 0
0 0 0 0 0 0 0 0 0 0 0 0 0 0 0 0 0 0 0 0 0 0 0 0 0 0 0 0 0 0 0 0 0 0 0 0 0 0 0 0 0 0 0 0 0 0 0 0 0
0 0 0 0 0 0 0 0 0 0 0 0 0 0 0 0 0 0 0 0 0 0 0 0 0 0 0 0 0 0 0 0 0 0 0 0 0 0 0 0 0 0 0 0 0 0 0 0 0
0 0 0 0 0 0 0 0 0 0 0 0 0 0 0 0 0 0 0 0 0 0 0 0 0 0 0 0 0 0 0 0 0 0 0 0 0 0 0 0 0 0 0 0 0 0 0 0 0
0 0 0 0 0 0 0 0 0 0 0 0 0 0 0 0 0 0 0 0 0 0 0 0 0 0 0 0 0 0 0 0 0 0 0 0 0 0 0 0 0 0 0 0 0 0 0 0 0
0 0 0 0 0 0 0 0 0 0 0 0 0 0 0 0 0 0 0 0 0 0 0 0 0 0 0 0 0 0 0 0 0 0 0 0 0 0 0 0 0 0 0 0 0 0 0 0 0

GFSSGP_con_mlcape_006.txt.gz
CAPE
0 0 0 0 0 0 0 0 0 3 36 65 95 101 107 120 89 48 301 421 478 608 741 589 524 514 500 457 382 490 547 560 506 520 501 305 124 45 10 0 0 16 11 0 0 5 8 0 2
0 0 0 0 0 0 0 0 69 74 62 27 23 31 84 37 341 290 404 620 578 749 798 641 562 598 593 524 548 640 688 585 557 563 369 128 35 0 0 0 0 0 0 0 0 0 0 0 0
0 0 0 0 0 0 0 3 44 71 22 6 0 0 0 73 501 372 561 632 645 748 777 775 685 650 622 616 676 728 710 639 615 484 242 93 8 0 0 0 0 0 0 0 0 0 0 0 0
0 0 0 0 0 0 0 54 0 5 0 1 3 0 50 155 434 460 723 727 646 740 712 732 772 709 760 759 796 777 682 634 572 337 146 76 2 0 0 0 0 0 0 0 0 0 0 0 0
0 0 0 0 0 0 0 30 18 27 32 0 0 7 36 659 593 742 768 718 673 674 726 803 863 855 835 829 778 673 686 464 247 126 83 14 0 0 0 0 0 0 0 0 0 0 0 0 0
0 0 0 0 0 0 0 33 98 99 56 20 52 101 178 801 689 864 838 768 750 821 900 907 888 836 772 684 682 737 602 250 155 93 19 0 0 0 0 0 0 0 0 0 0 0 0 0 0
0 0 0 0 0 0 31 100 140 83 21 116 144 132 487 574 787 989 942 768 833 948 984 868 820 729 692 728 743 635 468 207 88 28 4 0 0 0 0 0 0 0 0 0 0 0 0 0 0
0 0 0 0 0 0 0 64 48 30 94 71 88 153 363 698 978 963 759 661 704 844 899 916 903 880 865 749 574 385 212 80 76 28 43 0 0 0 0 0 0 0 0 0 0 0 0 0 0
0 0 0 2 1 0 0 48 25 43 92 54 18 245 442 808 933 704 683 686 747 850 884 903 929 904 741 499 321 204 106 45 9 25 84 71 0 0 0 26 30 5 10 2 0 4 1 0 0
0 0 0 0 0 2 0 2 152 150 92 50 36 401 783 946 866 620 480 333 477 426 664 721 670 595 422 265 98 22 3 0 17 123 136 103 60 66 94 59 57 55 49 83 79 64 60 45 0
0 0 0 0 0 0 0 17 49 136 91 46 97 478 863 901 556 119 45 0 0 7 310 276 201 147 47 12 0 0 1 15 71 150 161 158 193 152 82 24 5 0 2 0 0 0 0 0 0
0 0 0 0 0 0 4 0 77 36 32 77 160 558 693 305 131 1 0 0 0 12 129 99 11 0 0 0 0 0 12 28 112 271 271 201 160 66 0 0 0 0 0 0 0 0 0 0 0
0 0 0 0 0 0 0 0 0 0 47 46 220 467 295 155 76 17 0 0 0 50 137 85 4 0 0 0 0 0 44 158 250 330 321 143 63 2 0 0 0 0 0 0 0 0 0 0 0
0 0 0 0 0 0 0 0 0 0 75 46 138 201 128 156 100 12 0 0 17 157 137 165 59 0 0 0 0 0 20 172 400 373 232 108 4 5 0 0 0 0 0 0 0 0 0 0 0
0 0 0 0 0 0 0 0 0 0 120 46 48 77 10 4 0 3 0 0 43 203 256 217 104 22 0 0 0 0 17 50 87 93 13 0 0 0 0 0 0 0 0 0 0 0 0 0 0
0 0 0 0 0 0 0 0 0 28 104 91 68 4 1 0 0 0 0 0 0 26 185 204 124 72 11 48 27 28 0 0 0 0 0 0 0 0 0 0 0 0 0 0 0 0 0 0 0
0 0 0 0 0 0 0 0 0 0 191 88 38 1 2 0 0 0 0 0 0 1 229 285 164 61 0 0 0 0 0 0 0 0 0 0 0 0 0 0 0 0 0 0 0 0 0 0 0
0 0 0 0 0 0 0 0 0 0 54 13 2 0 0 0 0 0 0 0 0 9 184 91 0 0 0 0 0 0 0 0 0 0 0 0 0 0 0 0 0 0 0 0 0 0 0 0 0
0 0 0 0 0 0 0 0 0 0 0 0 0 0 0 0 0 0 0 0 0 0 1 0 0 0 0 0 0 0 0 0 0 0 0 0 0 0 0 0 0 0 0 0 0 0 0 0 0
0 0 0 0 0 0 0 0 0 0 0 0 0 0 0 0 0 0 0 0 0 0 0 0 0 0 0 0 0 0 0 0 0 0 0 0 0 0 0 0 0 0 0 0 0 0 0 0 0
0 0 0 0 0 0 0 0 0 0 0 0 0 0 0 0 0 0 0 0 0 0 0 0 0 0 0 0 0 0 0 0 0 0 0 0 0 0 0 0 0 0 0 0 0 0 0 0 0
0 0 0 0 0 0 0 0 0 0 0 0 0 0 0 0 0 0 0 0 0 0 0 0 0 0 0 0 0 0 0 0 0 0 0 0 0 0 0 0 0 0 0 0 0 0 0 0 0
0 0 0 0 0 0 0 0 0 0 0 0 0 0 0 0 0 0 0 0 0 0 0 0 0 0 0 0 0 0 0 0 0 0 0 0 0 0 0 0 0 0 0 0 0 0 0 0 0
0 0 0 0 0 0 0 0 0 0 0 0 0 0 0 0 0 0 0 0 0 0 0 0 0 0 0 0 0 0 0 0 0 0 0 0 0 0 0 0 0 0 0 0 0 0 0 0 0
0 0 0 0 0 0 0 0 0 0 0 0 0 0 0 0 0 0 0 0 0 0 0 0 0 0 0 0 0 0 0 0 0 0 0 0 0 0 0 0 0 0 0 0 0 0 0 0 0
0 0 0 0 0 0 0 0 0 0 0 0 0 0 0 0 0 0 0 0 0 0 0 0 0 0 0 0 0 0 0 0 0 0 0 0 0 0 0 0 0 0 0 0 0 0 0 0 0
0 0 0 0 0 0 0 0 0 0 0 0 0 0 0 0 0 0 0 0 0 0 0 0 0 0 0 0 0 0 0 0 0 0 0 0 0 0 0 0 0 0 0 0 0 0 0 0 0
0 0 0 0 0 0 0 0 0 0 0 0 0 0 0 0 0 0 0 0 0 0 0 0 0 0 0 0 0 0 0 0 0 0 0 0 0 0 0 0 0 0 0 0 0 0 0 0 0
0 0 0 0 0 0 0 0 0 0 0 0 0 0 0 0 0 0 0 0 0 0 0 0 0 0 0 0 0 0 0 0 0 0 0 0 0 0 0 0 0 0 0 0 0 0 0 0 0
0 0 0 0 0 0 0 0 0 0 0 0 0 0 0 0 0 0 0 0 0 0 0 0 0 0 0 0 0 0 0 0 0 0 0 0 0 0 0 0 0 0 0 0 0 0 0 0 0

GFSSGP_con_mlcape_009.txt.gz
CAPE
0 0 0 0 0 0 0 0 0 51 44 54 91 128 119 141 84 71 292 385 531 804 855 571 365 359 326 296 312 397 417 381 370 368 256 81 11 0 0 0 17 5 0 0 0 0 0 0 0
0 0 0 0 0 0 0 0 44 73 46 2 3 21 60 22 48 325 433 628 762 892 902 620 422 468 427 410 496 527 526 485 486 406 164 39 0 0 0 0 0 0 0 0 0 0 0 0 0
0 0 0 0 0 0 0 40 61 44 10 0 0 0 10 10 38 369 624 809 991 960 897 657 516 534 526 540 623 681 609 553 535 261 101 48 0 0 0 0 0 0 0 0 0 0 0 0 0
0 0 0 0 0 0 0 91 116 37 1 0 0 18 2 3 162 325 970 950 950 821 728 626 576 622 612 652 793 702 596 592 414 206 132 40 0 0 0 0 0 0 0 0 0 0 0 0 0
0 0 0 0 0 0 0 131 126 51 0 1 0 2 87 615 741 964 980 958 876 731 840 748 653 606 716 861 863 695 613 564 328 160 152 14 0 0 0 0 0 0 0 0 0 0 0 0 0
0 0 0 0 0 0 0 92 77 51 43 16 11 50 320 872 1035 974 986 982 871 878 956 1011 726 739 876 913 823 680 570 306 106 144 51 0 0 0 0 0 0 0 0 0 0 0 0 0 0
0 0 0 0 0 3 60 99 60 24 79 45 117 157 760 906 971 1035 939 998 1007 1059 1080 1124 1166 1013 900 776 700 693 455 205 103 59 10 0 0 0 0 0 0 0 0 0 0 0 0 0 0
0 0 0 0 19 7 7 59 5 46 97 128 282 194 557 742 1139 1088 1061 1051 1036 1098 1155 1187 1178 1069 902 840 829 671 386 169 94 14 1 0 0 0 0 0 0 0 0 0 0 0 0 0 0
0 0 0 0 24 5 5 31 24 93 155 57 36 497 754 1111 1202 1059 778 778 853 887 900 871 847 812 868 940 801 549 265 104 56 19 26 14 16 21 33 18 12 19 2 0 0 0 4 1 0
0 0 0 0 1 0 0 0 158 166 173 64 246 860 1107 1074 1009 898 871 804 819 901 785 774 783 839 919 756 604 453 324 227 155 128 167 140 132 157 154 148 48 16 6 6 0 0 2 6 29
0 0 0 0 0 31 2 1 85 186 148 89 206 641 942 1054 949 804 668 559 611 807 752 791 805 828 826 623 402 220 127 73 77 178 218 293 280 370 302 148 60 23 0 1 0 0 0 1 0
0 0 0 0 0 0 12 14 278 173 49 87 507 808 960 1033 491 246 272 303 267 338 426 665 743 605 436 253 147 34 42 48 151 309 413 433 444 324 59 19 0 0 0 0 0 0 0 0 0
0 0 0 0 0 0 0 134 131 5 44 249 766 972 960 1069 642 356 289 141 125 101 228 420 305 189 85 18 0 2 29 115 238 410 462 474 267 119 0 0 0 0 0 0 0 0 0 0 0
0 0 0 0 0 0 0 0 7 0 84 314 569 668 927 706 345 87 3 0 0 76 215 254 87 8 0 0 2 10 39 37 64 88 31 23 6 25 0 0 0 0 0 0 0 0 0 0 0
0 0 0 0 0 0 0 0 0 0 43 214 567 436 449 186 81 79 1 0 0 110 221 194 35 1 0 20 1 0 1 0 0 0 0 0 0 0 0 0 0 0 0 0 0 0 0 0 0
0 0 0 0 0 0 0 0 0 0 68 79 196 251 187 13 0 0 0 0 0 70 247 219 94 31 14 10 0 0 0 0 0 0 0 0 0 0 0 0 0 0 0 0 0 0 0 0 0
0 0 0 0 0 0 0 0 0 0 83 30 9 39 43 8 0 0 0 0 0 68 235 293 257 65 0 0 0 0 0 0 0 0 0 0 0 0 0 0 0 0 0 0 0 0 0 0 0
0 0 0 0 0 0 0 0 0 0 81 36 0 0 0 0 0 0 0 0 9 129 164 97 48 2 0 0 0 0 0 0 0 0 0 0 0 0 0 0 0 0 0 0 0 0 0 0 0
0 0 0 0 0 0 0 0 0 0 0 23 20 4 1 0 0 0 0 0 2 94 113 25 0 0 0 0 0 0 0 0 0 0 0 0 0 0 0 0 0 0 0 0 0 0 0 0 0
0 0 0 0 0 0 0 0 0 0 0 0 0 0 0 0 0 0 0 17 94 48 8 3 0 0 0 0 0 0 0 0 0 0 0 0 0 0 0 0 0 0 0 0 0 0 0 0 0
0 0 0 0 0 0 0 0 0 0 0 0 0 0 0 0 0 0 0 0 0 0 0 0 0 0 0 0 0 0 0 0 0 0 0 0 0 0 0 0 0 0 0 0 0 0 0 0 0
0 0 0 0 0 0 0 0 0 0 0 0 0 0 0 0 0 0 0 0 0 0 0 0 0 0 0 0 0 0 0 0 0 0 0 0 0 0 0 0 0 0 0 0 0 0 0 0 0
0 0 0 0 0 0 0 0 0 0 0 0 0 0 0 0 0 0 0 0 0 0 0 0 0 0 0 0 0 0 0 0 0 0 0 0 0 0 0 0 0 0 0 0 0 0 0 0 0
0 0 0 0 0 0 0 0 0 0 0 0 0 0 0 0 0 0 0 0 0 0 0 0 0 0 0 0 0 0 0 0 0 0 0 0 0 0 0 0 0 0 0 0 0 0 0 0 0
0 0 0 0 0 0 0 0 0 0 0 0 0 0 0 0 0 0 0 0 0 0 0 0 0 0 0 0 0 0 0 0 0 0 0 0 0 0 0 0 0 0 0 0 0 0 0 0 0
0 0 0 0 0 0 0 0 0 0 0 0 0 0 0 0 0 0 0 0 0 0 0 0 0 0 0 0 0 0 0 0 0 0 0 0 0 0 0 0 0 0 0 0 0 0 0 0 0
0 0 0 0 0 0 0 0 0 0 0 0 0 0 0 0 0 0 0 0 0 0 0 0 0 0 0 0 0 0 0 0 0 0 0 0 0 0 0 0 0 0 0 0 0 0 0 0 0
0 0 0 0 0 0 0 0 0 0 0 0 0 0 0 0 0 0 0 0 0 0 0 0 0 0 0 0 0 0 0 0 0 0 0 0 0 0 0 0 0 0 0 0 0 0 0 0 0
0 0 0 0 0 0 0 0 0 0 0 0 0 0 0 0 0 0 0 0 0 0 0 0 0 0 0 0 0 0 0 0 0 0 0 0 0 0 0 0 0 5 0 0 0 0 0 0 0
0 0 0 0 0 0 0 0 0 0 0 0 0 0 0 0 0 0 0 0 0 0 0 0 0 0 0 0 0 0 0 0 0 0 0 0 0 0 0 0 0 5 3 0 0 0 0 0 0

GFSSGP_con_mlcape_012.txt.gz
CAPE
0 0 0 0 0 0 0 0 0 360 294 320 360 326 160 147 322 157 454 545 650 804 749 363 259 298 307 321 333 347 360 409 417 324 175 73 0 0 0 0 0 0 0 0 0 0 0 0 0
0 0 0 0 0 0 0 0 0 390 91 3 0 20 50 6 236 489 443 789 828 904 765 562 307 345 350 400 434 476 520 546 454 256 68 0 0 0 0 0 0 0 0 0 0 0 0 0 0
0 0 0 0 0 0 0 0 267 184 38 6 0 1 1 1 102 256 636 907 1005 1050 789 779 378 353 360 423 493 560 575 537 381 158 29 0 0 0 0 0 0 0 0 0 0 0 0 0 0
0 0 0 0 0 0 0 162 283 194 85 61 0 0 0 0 9 300 857 834 871 888 1053 626 458 390 429 483 636 644 605 529 322 170 103 19 0 0 0 0 0 0 0 0 0 0 0 0 0
0 0 0 0 0 0 0 360 358 234 69 65 41 4 24 230 525 667 759 615 422 939 1162 713 528 461 515 664 814 691 601 500 298 216 113 21 0 0 0 0 0 0 0 0 0 0 0 0 0
0 0 0 0 0 0 0 290 530 116 19 95 124 144 213 1074 978 1011 1062 1037 765 939 1043 940 575 580 672 859 864 653 636 474 267 172 78 3 0 0 0 0 0 0 0 0 0 0 0 0 0
0 0 0 0 4 32 32 398 270 2 97 123 297 364 909 1078 1133 1112 1144 978 928 1245 1248 957 812 720 815 964 794 676 484 307 172 103 23 0 0 0 0 0 0 0 0 0 0 0 0 0 0
0 0 0 8 87 301 336 50 0 0 112 388 632 399 802 1240 1196 1205 1210 1262 1342 1258 1214 1120 963 1042 998 963 787 679 380 201 146 61 8 0 0 0 0 0 0 0 0 0 0 0 0 0 0
0 0 0 80 208 92 83 25 32 47 178 432 221 760 1030 1329 1298 1256 1064 1152 1148 1112 1111 1141 1044 956 890 851 860 538 279 162 50 58 19 40 92 108 94 16 7 2 1 0 0 0 0 0 0
0 0 0 46 148 48 5 6 62 162 366 222 916 1292 1529 1559 1554 1367 1315 1073 1069 1101 1061 1088 1001 968 965 650 566 423 163 115 145 320 363 255 486 426 221 111 27 0 0 0 0 0 0 0 0
0 0 0 97 42 3 0 18 54 249 413 329 811 1356 1549 1425 1431 1310 997 1214 960 941 917 956 857 867 882 508 327 67 49 142 384 628 669 643 747 688 440 174 110 113 0 20 0 0 0 0 0
0 0 0 29 92 88 31 33 278 350 139 268 1124 1520 1435 1236 1336 1075 781 481 540 676 716 836 813 930 638 297 65 65 134 322 543 707 890 836 735 679 315 147 91 103 34 0 0 0 0 0 0
0 0 0 0 0 46 48 211 272 28 344 925 1182 1412 1348 983 786 471 382 393 395 352 563 703 640 535 501 225 129 221 441 631 747 857 714 450 457 486 359 195 53 0 0 0 0 0 0 0 0
0 0 0 0 0 0 59 89 90 15 568 844 1165 1128 1263 1085 653 425 294 226 246 324 647 732 521 396 235 150 270 385 141 38 105 135 97 45 1 13 220 19 0 0 0 0 0 0 0 0 0
0 0 0 0 0 0 1 0 0 7 318 870 857 1030 1186 990 642 298 190 125 103 397 727 707 494 293 314 349 10 0 0 4 14 41 43 9 0 0 0 0 0 0 0 0 0 0 0 0 0
0 0 0 0 0 0 0 0 0 57 273 810 859 841 735 432 308 195 210 156 71 335 721 733 492 391 319 0 0 1 11 2 0 0 0 0 0 0 0 0 0 0 0 0 0 0 0 0 0
0 0 0 0 0 0 0 0 0 175 306 387 573 600 499 280 225 271 275 179 183 494 879 827 687 639 279 0 0 0 1 0 0 0 0 0 0 0 0 0 0 0 0 0 0 0 0 0 0
0 0 0 0 0 0 0 0 0 216 325 314 333 390 373 323 228 194 315 429 617 704 877 970 669 480 229 25 0 0 0 0 0 0 0 0 0 0 0 0 0 0 0 0 0 0 0 0 0
0 0 0 0 0 21 0 0 0 55 311 362 348 340 330 299 137 308 449 580 680 730 760 852 592 423 287 55 0 0 0 0 0 0 0 0 0 0 0 0 0 0 0 0 0 0 0 0 0
0 0 4 0 0 40 39 58 0 0 115 323 418 422 406 232 285 345 591 733 835 835 803 669 505 373 155 12 0 0 0 0 0 0 0 0 0 0 0 0 0 0 0 0 0 0 0 0 1
2 23 18 15 0 25 64 72 43 2 0 0 87 222 240 288 324 540 583 529 404 341 264 82 8 0 0 0 0 0 0 0 0 0 0 0 0 0 0 0 0 0 0 0 0 0 0 0 0
70 1 1 3 1 11 14 52 83 59 34 56 42 121 154 260 246 49 1 3 0 0 0 0 0 0 0 0 0 0 0 0 0 0 0 0 0 0 0 0 0 0 0 0 0 0 0 0 0
71 1 50 24 53 24 2 12 137 77 91 96 80 108 26 0 0 0 0 0 0 0 0 0 0 0 0 0 0 0 0 0 0 0 0 0 0 0 0 0 0 0 0 0 0 0 0 0 0
0 8 15 19 21 1 38 17 48 121 99 91 66 0 0 0 0 0 0 0 0 0 0 0 0 0 0 0 0 0 0 0 0 0 0 0 0 0 0 0 0 0 0 2 0 0 0 0 0
21 27 16 2 6 16 2 0 6 37 4 108 61 0 0 0 0 0 0 0 0 0 0 0 0 0 0 0 0 0 0 0 0 0 0 0 0 0 0 0 0 0 6 1 2 0 0 0 0
46 50 11 0 24 2 0 0 4 0 0 31 25 0 0 0 0 0 0 0 0 0 0 0 0 0 0 0 0 0 0 0 0 0 0 0 0 0 0 0 0 3 12 2 0 8 12 4 2
0 0 4 3 0 0 0 1 0 0 0 0 0 0 0 0 0 0 0 0 0 0 0 0 0 0 0 0 0 0 0 0 0 0 0 0 0 0 0 0 7 19 14 13 17 9 9 7 1
0 0 0 0 0 0 0 0 0 0 0 0 0 0 0 0 0 0 0 0 0 0 0 0 0 0 0 0 0 0 0 0 0 0 0 0 0 0 0 1 21 35 19 16 11 19 10 2 1
0 0 0 0 0 0 0 0 0 0 0 0 0 0 0 0 0 0 0 0 0 0 0 0 0 0 0 0 0 0 0 0 0 0 0 0 0 0 0 0 14 24 21 8 22 15 4 4 6
0 0 0 0 0 0 0 0 0 0 0 0 0 0 0 0 0 0 0 0 0 0 0 0 0 0 0 0 0 0 0 0 0 0 0 0 0 0 0 0 8 22 27 28 14 11 2 3 6

GFSSGP_con_mlcape_015.txt.gz
CAPE
0 0 0 0 0 0 0 0 0 402 429 550 502 445 397 344 580 305 347 638 677 612 258 153 224 232 245 280 245 296 369 387 350 248 129 0 0 0 0 0 0 0 0 0 0 0 0 0 0
0 0 0 0 0 0 0 1 0 543 328 224 180 211 99 263 585 765 600 649 713 700 290 204 249 269 340 320 358 407 483 432 310 156 44 0 0 0 0 0 0 0 0 0 0 0 0 0 0
0 0 0 0 0 0 13 0 492 410 294 185 10 0 0 34 393 642 573 612 813 671 466 347 278 261 274 344 420 526 535 409 226 116 38 0 0 0 0 0 0 0 0 0 0 0 0 0 0
0 0 0 0 0 7 0 244 318 236 151 134 103 9 0 0 39 425 885 639 693 675 746 314 328 293 296 363 492 460 523 299 210 101 24 0 0 0 0 0 0 0 0 0 0 0 0 0 0
0 0 0 0 1 23 0 193 216 184 25 46 79 0 0 0 62 426 672 692 470 435 516 404 358 360 366 417 471 526 493 290 168 113 21 0 0 0 0 0 0 0 0 0 0 0 0 0 0
0 0 0 0 23 0 0 212 385 17 3 14 156 24 126 319 370 444 446 16 39 410 727 555 325 417 390 538 556 575 474 237 127 16 0 0 0 0 0 0 0 0 0 0 0 0 0 0 0
0 0 0 7 5 28 5 450 135 13 0 11 114 228 777 745 871 836 84 0 0 263 731 765 574 452 547 663 589 511 308 96 45 0 0 0 0 0 0 0 0 0 0 0 0 0 0 0 0
0 0 0 12 32 51 171 91 160 27 69 0 112 405 660 992 1356 948 545 326 428 278 855 764 671 755 834 785 574 343 151 32 1 0 0 0 0 0 0 0 0 0 0 0 0 0 0 0 0
0 0 0 19 154 336 7 0 3 11 40 99 528 598 935 1337 1317 1056 808 726 795 824 885 822 754 671 645 807 575 233 23 0 0 10 0 18 68 73 36 0 0 0 0 0 0 0 0 0 2
0 0 6 45 33 83 54 19 1 0 8 228 693 1027 1320 1354 1174 1135 1097 1028 900 833 838 654 733 744 633 396 371 201 11 54 144 364 210 128 287 273 7 6 0 0 0 1 0 0 0 0 0
0 0 0 15 8 40 1 0 1 1 53 324 936 1141 1275 1203 1073 1104 909 768 632 875 858 855 1067 1045 396 248 130 30 45 210 482 534 490 462 373 486 309 189 227 201 44 117 44 31 5 5 0
0 0 0 102 0 0 0 7 63 0 0 31 907 1150 953 1310 1256 858 365 274 357 484 783 830 837 835 368 162 65 42 205 369 389 592 661 666 497 482 345 191 214 223 135 53 39 36 4 0 0
0 0 0 0 27 10 14 8 0 118 199 568 1307 1054 819 926 612 277 222 227 279 330 488 543 564 441 356 99 178 461 500 600 685 754 528 513 598 458 267 197 182 92 40 38 15 6 0 0 0
0 0 0 0 0 17 33 36 0 65 178 486 625 282 277 321 253 178 172 214 209 256 478 488 408 340 187 291 525 343 84 51 35 114 248 367 281 166 11 30 67 4 5 1 0 0 0 0 0
0 0 0 0 0 23 13 0 1 163 259 305 296 276 299 270 193 126 94 181 288 443 662 578 519 357 278 538 194 9 0 1 0 37 127 163 187 21 0 1 0 0 0 0 0 0 0 0 0
0 0 2 3 14 19 12 0 5 103 294 345 414 485 512 422 306 202 213 144 275 620 1046 864 508 481 581 324 23 0 1 0 0 0 0 0 0 0 0 0 0 0 0 0 0 0 0 0 0
0 0 0 0 0 6 0 0 42 90 279 433 512 669 606 472 443 454 417 312 230 537 1087 1082 807 768 490 191 34 146 40 0 0 0 0 0 0 0 0 0 0 0 0 0 0 0 0 0 0
0 0 1 3 0 0 0 0 12 111 154 405 463 587 590 545 549 611 595 489 453 653 1203 1294 1133 871 405 262 244 196 53 1 0 0 0 0 0 0 0 0 0 0 0 0 0 0 0 0 0
0 0 0 0 0 0 0 2 0 141 160 184 300 473 545 595 640 662 759 931 925 1059 1233 934 850 657 602 584 336 15 0 0 0 0 0 0 0 0 0 0 0 0 0 0 0 0 0 0 0
0 0 0 0 0 6 0 30 9 92 159 260 286 317 379 563 595 800 967 1123 1153 1158 1133 926 874 783 688 277 17 2 7 3 0 0 0 0 0 0 0 0 0 0 0 0 0 0 0 0 0
1 0 7 14 26 33 62 103 99 55 155 345 419 436 454 625 714 947 1152 1218 1115 1051 999 911 695 507 156 6 0 11 1 0 0 0 0 0 0 0 0 0 0 0 0 0 0 0 0 0 0
4 24 11 36 83 44 17 27 30 96 73 104 243 425 546 586 733 998 1049 950 767 619 403 170 24 1 0 0 0 0 8 6 0 0 0 0 0 0 0 0 0 0 0 0 0 0 0 0 0
139 56 90 89 36 13 42 20 19 175 145 110 160 249 369 554 721 459 246 104 10 0 0 0 0 0 0 0 0 0 0 0 0 0 0 0 0 0 0 0 0 0 0 0 0 2 2 5 7
76 121 124 103 88 76 9 35 143 236 194 187 255 372 421 409 171 6 0 0 0 0 0 0 0 0 0 0 0 0 0 0 0 0 0 0 0 0 0 0 0 0 0 0 3 6 10 15 4
75 110 56 23 42 41 79 64 26 38 83 172 306 312 267 111 0 0 0 0 0 0 0 0 0 0 0 0 0 0 0 0 0 0 0 0 0 0 0 0 0 0 0 2 4 8 12 27 1
77 72 53 12 41 42 98 19 52 82 22 74 301 207 137 2 0 0 0 0 0 0 0 0 0 0 0 0 0 0 0 0 0 0 0 0 0 0 0 0 0 0 2 10 15 17 20 8 5
57 20 49 97 82 32 0 3 43 44 16 57 263 165 44 0 0 0 0 0 0 0 0 0 0 0 0 0 0 0 0 0 0 0 0 0 0 0 0 0 0 2 12 17 24 23 24 18 17
6 19 6 0 0 0 15 9 0 61 11 12 210 127 17 0 0 0 0 0 0 0 0 0 0 0 0 0 0 0 0 0 0 0 0 0 0 0 0 0 0 0 27 16 22 18 29 23 7
0 0 0 9 26 0 0 1 0 0 0 2 58 120 24 0 0 0 0 0 0 0 0 0 0 0 0 0 0 0 0 0 0 0 0 0 0 0 0 0 0 0 10 22 30 16 30 39 4
1 12 0 0 0 0 0 0 0 0 0 0 4 32 21 1 0 0 0 0 0 0 0 0 0 0 0 0 0 0 0 0 0 0 0 0 0 0 0 0 0 4 10 7 23 30 29 20 18

GFSSGP_con_mlcape_018.txt.gz
CAPE
0 0 0 0 0 0 0 0 0 311 739 549 415 391 588 736 840 297 614 612 149 63 99 120 118 138 114 147 192 273 367 350 191 95 21 0 0 0 0 0 0 0 0 0 0 0 0 0 0
0 0 0 0 0 0 0 2 270 730 688 369 356 292 338 631 834 652 826 680 338 74 83 187 176 172 196 310 373 453 455 268 88 56 0 0 0 0 0 0 0 0 0 0 0 0 0 0 0
0 0 0 0 0 0 0 7 154 650 408 275 86 103 6 402 791 600 863 827 532 117 145 291 208 191 253 266 341 452 349 183 90 15 0 0 0 0 0 0 0 0 0 0 0 0 0 0 0
0 0 0 0 0 0 0 109 684 435 193 181 64 2 0 10 448 682 732 717 578 379 284 226 183 162 269 310 427 355 235 174 77 0 0 0 0 0 0 0 0 0 0 0 0 0 0 0 0
0 0 0 0 0 0 0 364 457 186 9 34 77 0 0 27 333 809 567 676 535 193 115 169 177 258 316 394 439 287 230 147 16 0 0 0 0 0 0 0 0 0 0 0 0 0 0 0 0
0 0 0 0 0 0 49 280 196 27 2 24 27 0 57 89 348 514 637 546 229 68 87 129 134 322 388 448 390 285 173 72 0 0 0 0 0 0 0 0 0 0 0 0 0 0 0 0 0
0 0 0 0 0 0 453 365 160 55 152 56 6 21 49 330 726 105 3 9 26 132 192 0 245 433 490 455 323 182 61 11 0 0 0 0 0 0 0 0 0 0 0 0 0 0 0 0 0
0 0 0 0 0 167 176 79 12 1 1 14 0 0 253 576 422 12 0 0 0 2 39 205 203 601 529 379 160 40 20 7 0 0 0 0 0 0 0 2 0 0 0 0 0 0 0 0 0
0 0 0 0 81 9 0 16 26 123 7 0 6 194 939 1139 635 14 2 0 42 25 179 467 680 630 535 352 128 18 0 0 0 0 0 0 14 29 26 0 0 0 0 0 0 0 0 0 1
0 0 0 184 149 6 0 27 14 25 190 341 72 33 1157 1151 812 567 439 43 47 107 392 503 540 620 588 286 165 23 1 23 147 82 37 280 178 30 0 22 0 0 9 0 1 0 3 1 0
0 0 0 106 19 4 40 57 4 0 2 108 75 842 1056 802 911 544 416 421 398 495 588 691 654 656 377 262 228 31 154 307 390 403 505 360 371 364 248 313 139 131 115 110 39 36 68 14 5
0 0 0 5 28 149 130 16 1 0 0 0 134 817 1110 1027 884 795 473 652 749 810 722 703 607 637 172 190 155 240 386 626 645 745 625 741 712 593 342 214 135 107 50 34 15 3 0 0 0
0 0 0 68 0 31 5 4 9 0 1 0 69 420 825 859 351 144 119 253 495 589 600 644 803 376 131 167 527 541 470 327 382 391 344 294 302 230 87 6 0 16 0 0 0 0 0 0 0
0 0 0 1 47 59 10 4 15 0 6 155 395 388 470 328 94 139 106 187 176 428 410 475 475 342 326 616 451 202 15 0 8 100 170 235 372 214 0 10 0 0 0 0 0 0 0 0 0
0 0 0 2 0 76 24 74 41 40 108 380 183 217 143 139 94 74 141 134 144 392 454 432 380 292 439 561 259 11 0 0 0 0 4 20 61 3 0 0 0 0 0 0 0 0 0 0 0
0 0 0 0 2 23 28 2 20 175 106 149 140 111 109 104 79 101 131 176 235 442 460 500 394 301 632 319 24 7 6 0 0 0 0 0 0 0 0 0 0 0 0 0 0 0 0 0 0
0 0 0 0 0 17 4 0 7 139 68 89 229 168 277 203 124 130 108 121 357 861 729 544 540 577 434 162 47 123 53 12 0 0 0 0 0 0 0 0 0 0 0 0 0 0 0 0 0
0 0 0 0 0 1 0 0 10 61 68 237 294 318 383 341 350 348 261 225 198 1132 1141 783 767 680 358 204 88 305 131 4 0 0 0 0 0 0 0 0 0 0 0 0 0 0 0 0 0
0 0 0 1 0 0 0 0 5 33 134 214 341 409 406 408 451 571 545 519 472 1161 1249 914 743 463 420 308 318 201 1 0 0 0 0 0 0 0 0 0 0 0 0 0 0 0 0 0 0
0 1 0 0 0 0 0 15 0 24 47 145 239 345 461 469 658 725 861 989 967 1210 1317 925 719 468 568 628 196 0 0 0 0 0 0 0 0 0 0 0 0 0 0 0 0 0 0 0 0
0 5 2 1 0 0 6 5 0 1 64 105 136 224 321 507 636 842 1032 1179 1250 1119 1087 671 594 572 786 221 0 1 0 0 0 0 0 0 0 0 0 0 0 0 0 0 0 0 0 0 0
0 7 5 2 3 7 5 8 62 1 3 18 126 193 253 442 660 899 1114 1257 1011 845 794 886 779 524 15 0 0 0 0 0 0 0 0 0 0 0 0 0 0 0 0 0 0 0 0 0 0
0 0 10 22 13 7 0 7 10 38 0 17 179 333 384 554 676 910 1136 1105 1068 949 767 262 0 0 0 0 0 0 0 0 0 0 0 0 0 0 0 0 0 0 0 0 0 0 0 0 0
37 30 50 0 4 6 9 0 36 0 0 100 108 235 366 457 676 840 742 506 240 80 0 0 0 0 0 0 0 0 0 0 0 0 0 0 0 0 0 0 0 0 0 0 0 0 0 0 0
0 0 9 10 11 28 65 35 25 12 28 0 7 253 362 553 570 341 104 7 2 0 0 0 0 0 0 0 0 0 0 0 0 0 0 0 0 0 0 0 0 0 0 0 0 0 0 0 0
41 0 19 0 0 63 1 3 33 107 110 1 194 343 429 388 169 22 0 0 0 0 0 0 0 0 0 0 0 0 0 0 0 0 0 0 0 0 0 0 0 0 0 0 0 0 0 0 2
0 14 17 0 14 42 0 0 51 40 20 2 337 329 327 209 16 0 0 0 0 0 0 0 0 0 0 0 0 0 0 0 0 0 0 0 0 0 0 0 0 0 0 2 3 0 2 13 7
0 0 22 0 0 0 0 0 53 55 21 3 181 312 258 176 1 0 0 0 0 0 0 0 0 0 0 0 0 0 0 0 0 0 0 0 0 0 0 0 0 0 0 5 20 12 18 6 9
0 0 0 0 25 28 0 0 0 0 0 1 30 352 225 98 0 0 0 0 0 0 0 0 0 0 0 0 0 0 0 0 0 0 0 0 0 0 0 0 0 0 0 0 0 0 4 7 12
1 57 0 0 0 0 0 0 0 0 0 0 0 79 192 69 0 0 0 0 0 0 0 0 0 0 0 0 0 0 0 0 0 0 0 0 0 0 0 0 0 0 1 4 0 8 17 23 16

GFSSGP_con_mlcape_021.txt.gz
CAPE
0 0 0 0 0 0 0 0 39 491 442 493 586 617 761 942 863 309 546 224 18 46 282 357 312 173 137 170 273 235 187 69 1 0 0 0 0 0 0 0 0 0 0 0 0 0 0 0 0
0 0 0 0 0 0 0 0 596 663 557 338 240 431 525 717 886 879 583 199 0 15 58 167 153 121 152 264 334 262 152 43 0 0 0 0 0 0 0 0 0 0 0 0 0 0 0 0 0
0 0 0 0 0 0 0 22 554 538 211 156 92 19 339 840 892 876 403 93 0 101 142 165 112 83 244 452 377 201 103 30 3 0 0 0 0 4 0 0 0 0 0 0 0 0 0 0 0
0 0 0 0 0 0 0 62 626 425 214 116 70 5 0 355 779 924 345 30 54 215 167 68 77 98 337 398 256 139 69 37 13 0 0 0 0 2 0 0 0 0 0 0 0 0 0 0 0
0 0 0 0 0 0 28 420 569 253 138 152 11 0 1 465 706 654 399 257 308 159 122 53 74 169 257 324 193 92 47 21 1 0 0 0 0 0 0 0 0 0 0 0 0 0 0 0 0
0 0 0 0 0 15 521 209 182 198 97 165 71 140 123 629 542 511 379 216 12 17 17 67 173 59 348 240 121 53 24 1 0 0 0 0 0 0 0 0 0 0 0 0 0 0 0 0 0
0 0 0 0 0 63 473 317 155 132 208 251 113 54 31 250 172 161 135 16 1 0 0 107 106 189 290 128 48 29 8 0 0 0 0 0 0 0 0 0 0 0 0 0 0 0 0 0 0
0 0 0 0 0 56 186 79 0 107 103 7 0 2 24 101 0 9 0 0 0 1 0 30 184 171 242 102 21 4 0 0 0 0 0 0 0 0 0 0 0 0 0 0 0 0 0 0 0
0 0 0 0 186 77 21 154 153 6 0 0 10 266 209 0 0 0 0 0 0 0 0 0 101 211 164 33 2 0 0 0 0 0 0 0 0 0 0 0 0 0 0 0 0 0 0 0 0
0 0 0 82 165 53 4 5 8 13 10 0 0 144 84 5 0 2 0 0 30 0 15 45 212 259 75 12 0 0 7 0 0 0 6 2 18 0 0 0 0 0 0 0 0 14 8 0 0
0 0 4 78 29 17 7 6 0 0 77 36 0 20 239 69 0 0 4 5 33 77 173 213 257 230 57 6 0 2 19 76 147 193 173 176 206 96 92 26 21 26 14 4 3 0 0 0 0
0 0 1 94 77 62 39 28 0 0 32 0 0 167 336 171 64 7 5 21 51 214 278 405 469 261 126 72 37 22 222 255 399 275 281 241 182 42 0 0 0 0 0 0 0 0 0 0 0
0 0 75 9 3 15 44 6 0 0 0 14 178 323 449 390 312 125 91 162 468 352 432 505 553 150 131 134 291 313 347 344 174 109 18 14 50 63 0 0 0 0 0 0 0 0 0 0 0
0 0 66 95 4 0 0 0 2 0 1 141 277 538 613 236 150 523 398 367 382 419 327 521 244 103 208 230 156 108 6 1 0 0 0 4 11 0 0 0 0 0 0 0 0 0 0 0 0
3 0 1 37 37 25 0 0 0 15 172 338 453 545 470 50 65 124 448 422 294 123 255 516 64 255 187 86 12 0 0 0 0 0 0 0 0 0 0 0 0 0 0 0 0 0 0 0 0
0 0 0 2 30 32 0 1 1 42 177 299 236 127 195 75 51 72 52 314 215 134 213 296 188 362 213 60 0 0 0 0 0 0 0 0 0 0 0 0 0 0 0 0 0 0 0 0 0
0 0 0 0 1 0 1 5 156 70 229 213 73 34 32 0 58 56 36 168 261 221 287 245 219 386 172 29 0 0 0 0 0 0 0 0 0 0 0 0 0 0 0 0 0 0 0 0 0
0 0 0 0 0 0 10 0 104 126 76 78 101 87 71 34 39 38 38 75 308 299 295 240 302 310 165 30 4 38 0 0 0 0 0 0 0 0 0 0 0 0 0 0 0 0 0 0 0
0 0 0 0 0 0 0 0 29 54 0 2 112 86 153 170 189 116 85 145 554 427 318 341 303 294 209 13 8 118 0 0 0 0 0 0 0 0 0 0 0 0 0 0 0 0 0 0 0
0 0 0 0 0 0 0 2 1 83 112 75 68 130 136 250 322 324 383 558 906 670 464 462 460 386 258 1 156 76 0 0 0 0 0 0 0 0 0 0 0 0 0 0 0 0 0 0 0
6 4 0 0 0 0 0 0 0 1 35 186 224 36 28 300 463 549 607 647 1037 841 644 525 466 432 299 241 60 0 0 0 0 0 0 0 0 0 0 0 0 0 0 0 0 0 0 0 0
0 0 1 0 1 0 0 1 8 11 29 47 123 171 283 458 582 701 857 871 1074 849 570 589 500 300 394 280 0 0 0 0 0 0 0 0 0 0 0 0 0 0 0 0 0 0 0 0 0
5 0 0 0 0 0 0 5 0 0 0 3 9 86 182 523 620 756 960 1052 982 779 608 302 330 309 185 0 0 0 0 0 0 0 0 0 0 0 0 0 0 0 0 0 0 0 0 0 0
44 0 1 1 0 1 12 0 0 3 0 0 0 139 270 494 565 783 955 991 863 618 474 262 21 0 0 0 0 0 0 0 0 0 0 0 0 0 0 0 0 0 0 0 0 0 0 0 0
21 2 0 0 0 0 12 0 0 1 0 0 0 90 153 543 648 762 815 609 233 106 0 0 0 0 0 0 0 0 0 0 0 0 0 0 0 0 0 0 0 0 0 0 0 0 0 0 0
0 2 0 0 0 0 0 3 0 0 5 0 4 2 89 511 590 493 258 80 1 0 0 0 0 0 0 0 0 0 0 0 0 0 0 0 0 0 0 0 0 0 0 0 0 0 0 0 0
4 3 12 2 0 0 33 23 3 0 1 13 0 0 326 414 296 156 11 0 0 0 0 0 0 0 0 0 0 0 0 0 0 0 0 0 0 0 0 0 0 0 0 0 0 0 0 0 0
19 0 38 3 0 0 0 4 20 22 10 18 0 9 375 277 104 1 0 0 0 0 0 0 0 0 0 0 0 0 0 0 0 0 0 0 0 0 0 0 0 0 0 0 0 5 2 3 0
0 0 0 0 0 0 10 0 0 0 0 2 97 233 270 171 2 0 0 0 0 0 0 0 0 0 0 0 0 0 0 0 0 0 0 0 0 0 0 0 0 0 0 0 0 0 0 0 0
0 4 31 0 0 0 0 0 0 0 0 0 3 242 220 127 2 0 0 0 0 0 0 0 0 0 0 0 0 0 0 0 0 0 0 0 0 0 0 0 0 0 0 0 0 0 0 0 0

GFSSGP_con_mlcape_024.txt.gz
CAPE
0 0 0 0 0 0 0 0 0 1 497 707 809 776 743 931 796 236 441 242 363 648 692 495 319 104 169 220 206 112 28 13 1 1 0 0 0 0 0 0 0 0 0 0 0 0 0 0 0
0 0 0 0 0 0 0 0 0 612 418 159 232 652 722 880 1002 681 549 330 460 587 575 398 226 175 270 312 208 68 37 14 3 0 0 0 0 0 0 0 0 3 0 0 0 0 0 0 0
0 0 0 0 0 0 0 1 650 408 276 246 99 84 741 1032 1035 897 432 348 378 461 405 320 167 265 436 341 194 65 36 8 1 0 0 0 3 4 8 2 9 8 0 0 0 0 0 0 0
0 0 0 0 0 0 0 0 401 330 279 232 43 250 355 783 1030 626 222 133 180 248 260 130 157 316 396 244 74 45 25 18 4 0 14 22 23 24 11 5 7 0 0 0 0 0 0 0 0
0 0 0 0 0 51 394 137 384 271 157 127 2 72 465 739 504 348 168 120 180 187 127 55 150 264 255 148 97 77 47 11 2 0 17 12 7 4 0 0 0 0 0 0 0 0 0 0 0
0 0 0 0 0 224 447 281 236 264 180 158 154 195 479 406 444 331 190 141 159 127 86 100 129 83 79 127 90 71 10 0 0 0 0 0 0 0 0 0 0 0 0 0 0 0 0 0 0
0 0 0 0 0 0 286 239 207 222 221 276 121 163 341 375 275 115 0 1 53 7 44 4 5 14 74 104 56 1 0 0 0 0 0 0 0 0 0 0 0 0 0 0 0 0 0 0 0
0 0 0 0 0 34 162 121 60 194 154 0 3 0 218 111 33 2 1 0 5 2 3 11 57 96 37 25 0 0 0 0 0 0 0 0 0 0 0 0 0 0 0 0 0 0 0 0 0
0 0 0 0 0 55 100 138 137 0 17 1 104 335 88 4 1 1 3 0 0 0 5 5 29 111 56 0 0 0 0 0 0 0 0 0 0 0 0 0 0 0 0 0 0 0 0 0 0
0 0 0 23 105 2 12 7 24 10 0 10 151 84 7 0 0 1 0 0 0 0 0 2 51 87 21 0 1 0 0 0 0 0 0 0 0 0 0 0 0 0 0 5 0 0 0 0 0
0 0 0 105 101 22 0 0 0 53 48 0 48 18 6 4 0 0 26 0 0 0 0 0 97 108 1 0 0 0 0 0 0 0 0 19 13 5 0 0 0 3 0 0 0 0 0 0 0
0 0 0 109 84 50 30 1 0 0 66 0 240 43 7 3 7 3 14 14 0 5 0 21 190 16 0 0 0 0 3 94 175 164 144 79 11 0 0 0 0 0 0 0 0 0 0 0 0
0 0 0 84 66 76 66 16 0 8 0 14 279 89 22 21 27 0 0 0 0 49 81 172 254 49 0 0 2 21 206 138 83 69 50 28 0 0 0 0 0 0 0 0 0 0 0 0 0
0 7 5 0 12 35 21 0 2 1 33 170 317 263 45 31 28 0 0 24 98 227 200 249 162 73 11 24 20 77 44 3 0 0 0 0 0 0 0 0 0 0 0 0 0 0 0 0 0
0 2 48 25 41 20 0 26 25 14 49 191 204 327 430 197 68 0 44 130 357 372 431 446 235 185 117 30 19 3 0 0 0 0 0 0 0 0 0 0 0 0 0 0 0 0 0 0 0
0 0 0 55 62 59 0 38 22 93 180 265 416 410 203 437 206 203 225 370 395 378 510 482 282 108 34 11 0 0 0 0 0 0 0 0 0 0 0 0 0 0 0 0 0 0 0 0 0
0 0 0 9 45 31 0 8 36 254 331 379 353 368 68 372 559 549 475 421 353 399 481 190 227 84 13 0 0 0 0 0 0 0 0 0 0 0 0 0 0 0 0 0 0 0 0 0 0
0 0 0 0 0 0 0 0 90 263 356 310 176 119 103 166 277 573 595 455 110 228 452 187 241 103 2 0 0 0 0 0 0 0 0 0 0 0 0 0 0 0 0 0 0 0 0 0 0
0 0 0 0 0 1 0 9 207 319 303 228 99 80 33 71 73 232 630 442 145 115 251 246 222 132 41 13 2 0 0 0 0 0 0 0 0 0 0 0 0 0 0 0 0 0 0 0 0
0 0 0 0 0 0 0 27 213 212 177 40 118 116 65 48 87 23 246 420 329 228 278 273 198 142 46 29 19 2 0 0 0 0 0 0 0 0 0 0 0 0 0 0 0 0 0 0 0
0 0 0 0 0 0 1 0 174 111 0 2 103 125 118 48 52 73 119 404 416 353 359 253 232 207 184 78 24 0 0 0 0 0 0 0 0 0 0 0 0 0 0 0 0 0 0 0 0
0 0 0 0 0 0 0 0 0 33 38 12 64 147 181 178 190 258 256 460 476 450 388 344 272 276 241 8 14 5 0 0 0 0 0 0 0 0 0 0 0 0 0 0 0 0 0 0 0
0 0 0 2 0 0 0 0 0 0 0 4 143 173 60 68 315 368 575 677 654 451 377 381 306 279 253 0 5 0 0 0 0 0 0 0 0 0 0 0 0 0 0 0 0 0 0 0 0
0 1 0 0 0 0 0 0 0 0 0 0 27 196 34 0 351 532 701 839 742 613 588 433 461 277 123 31 0 0 0 0 0 0 0 0 0 0 0 0 0 0 0 0 0 0 0 0 0
19 1 0 0 0 0 0 0 0 0 0 0 0 0 1 201 403 688 806 894 861 703 384 175 105 2 0 0 0 0 0 0 0 0 0 0 0 0 0 0 0 0 0 0 0 0 0 0 0
0 0 0 0 0 0 0 0 0 0 0 0 0 0 56 145 475 728 805 698 524 177 7 0 0 0 0 0 0 0 0 0 0 0 0 0 0 0 0 0 0 0 0 0 0 0 0 0 0
2 0 0 1 0 0 0 0 0 0 0 0 0 0 107 328 537 614 554 474 90 0 0 0 0 0 0 0 0 0 0 0 0 0 0 0 0 0 0 0 0 0 0 0 0 0 0 0 0
0 1 25 11 0 0 0 0 0 14 17 4 0 0 83 311 434 471 398 105 0 0 0 0 0 0 0 0 0 0 0 0 0 0 0 0 0 0 0 0 0 0 0 0 0 0 0 0 0
0 0 0 5 0 0 0 0 0 4 0 0 0 0 23 265 335 332 162 21 0 0 0 0 0 0 0 0 0 0 0 0 0 0 0 0 0 0 0 0 0 0 0 0 0 0 0 0 0
0 0 0 0 0 0 0 0 0 0 0 0 0 0 0 144 131 74 20 0 0 0 0 0 0 0 0 0 0 0 0 0 0 0 0 0 0 0 0 0 0 0 0 0 0 0 0 0 0

GFSSGP_con_mlcape_027.txt.gz
CAPE
0 0 0 0 0 0 0 0 0 0 161 859 863 854 804 943 681 257 442 307 674 730 716 488 213 90 110 104 60 22 12 0 0 0 0 0 0 0 0 0 0 0 0 0 0 0 0 0 0
0 0 0 0 0 0 0 0 0 127 359 278 203 799 732 836 786 680 580 548 763 776 646 357 177 151 205 151 79 2 13 9 1 0 0 0 0 0 0 0 0 0 0 0 0 0 0 0 0
0 0 0 0 0 0 0 0 381 450 253 170 123 367 901 1019 856 789 643 620 555 530 481 348 319 281 243 67 10 20 26 9 1 1 10 19 1 4 0 0 0 0 0 0 0 0 0 0 0
0 0 0 0 0 0 0 0 0 421 293 145 50 290 853 812 1103 831 612 579 546 525 450 338 294 286 168 49 11 0 13 7 10 45 55 45 21 5 0 0 4 0 0 0 0 0 0 0 0
0 0 0 0 0 0 421 339 361 372 259 51 27 510 708 718 591 606 511 485 395 357 343 264 233 291 148 8 0 1 13 17 35 74 75 80 59 30 23 7 0 0 0 0 0 0 0 0 0
0 0 0 0 0 0 258 365 350 370 251 218 283 389 473 737 462 249 241 286 259 280 194 204 163 115 22 4 4 18 22 27 63 57 68 62 24 3 0 0 0 0 0 0 0 0 0 0 0
0 0 0 0 0 0 234 311 312 310 271 252 179 243 418 480 162 36 1 0 6 18 18 122 54 40 61 26 18 20 18 8 24 11 3 0 0 0 0 0 0 0 0 0 0 0 0 0 0
0 0 0 0 0 50 224 309 224 225 135 23 0 287 273 194 116 3 1 0 0 2 0 1 4 46 87 59 6 0 0 0 2 0 0 0 0 0 0 0 0 0 0 0 0 0 0 0 0
0 0 0 0 0 76 217 158 121 0 11 181 246 293 266 197 20 1 2 1 0 0 0 10 11 58 32 2 3 0 0 0 4 0 0 0 0 0 0 0 0 0 0 0 0 0 0 0 0
0 0 0 0 72 51 122 188 201 24 145 289 304 211 201 113 31 3 0 0 0 3 0 17 24 47 30 43 19 0 1 0 0 0 0 0 0 0 0 0 0 0 0 0 0 0 0 0 0
0 0 0 2 107 64 38 34 21 77 3 106 243 123 153 19 20 36 4 2 5 0 0 45 111 102 63 15 0 0 0 0 0 0 0 0 0 0 0 0 0 0 0 0 0 0 0 0 0
0 0 0 0 112 61 52 6 0 66 42 43 56 41 31 18 22 62 24 13 0 0 0 0 46 123 38 0 0 0 0 0 0 0 7 5 0 0 0 0 0 0 0 0 0 0 0 0 0
0 0 0 0 90 98 105 6 0 1 107 89 72 13 48 18 44 52 17 0 0 0 0 0 127 205 3 0 0 0 19 134 110 50 51 0 0 0 0 0 0 0 0 0 0 0 0 0 0
0 1 16 6 63 116 57 12 5 3 346 150 79 3 0 43 56 15 18 0 0 0 4 41 178 246 1 0 0 47 130 83 56 53 15 0 0 0 0 0 0 0 0 0 0 0 0 0 0
1 32 44 21 3 13 50 39 33 9 344 326 108 42 0 26 35 0 7 0 0 19 109 144 308 231 0 0 0 107 30 1 1 0 0 0 0 0 0 0 0 0 0 0 0 0 0 0 0
0 0 0 1 63 35 6 40 58 23 121 254 361 161 122 107 39 0 0 12 116 271 264 310 337 136 0 0 23 47 0 0 0 0 0 0 0 0 0 0 0 0 0 0 0 0 0 0 0
0 0 0 9 72 12 1 45 76 50 131 278 301 397 331 200 73 2 0 84 236 362 322 290 254 102 20 0 12 1 0 0 0 0 0 0 0 0 0 0 0 0 0 0 0 0 0 0 0
0 0 0 1 10 65 40 0 96 141 233 316 337 324 382 368 216 62 60 183 386 367 353 344 285 209 30 0 0 0 0 0 0 0 0 0 0 0 0 0 0 0 0 0 0 0 0 0 0
0 0 0 0 0 2 8 9 84 257 272 309 264 306 107 410 391 319 312 358 427 336 343 413 199 54 9 0 0 0 0 0 0 0 0 0 0 0 0 0 0 0 0 0 0 0 0 0 0
0 0 0 0 0 0 0 0 69 182 292 286 212 170 114 289 378 519 506 435 323 285 377 337 119 25 9 0 0 0 0 0 0 0 0 0 0 0 0 0 0 0 0 0 0 0 0 0 0
0 0 0 0 0 0 0 0 66 148 117 120 64 51 57 142 227 314 460 463 283 164 335 345 176 93 7 4 0 0 0 0 0 0 0 0 0 0 0 0 0 0 0 0 0 0 0 0 0
0 0 0 0 0 0 0 0 0 162 200 136 86 71 73 94 147 158 349 486 394 148 165 309 197 153 50 15 6 0 0 0 0 0 0 0 0 0 0 0 0 0 0 0 0 0 0 0 0
0 0 0 0 0 0 0 0 0 0 130 114 75 0 45 49 73 117 118 380 367 235 50 159 208 151 122 4 6 0 0 0 0 0 0 0 0 0 0 0 0 0 0 0 0 0 0 0 0
0 0 0 0 0 0 0 0 0 0 0 1 78 2 17 27 10 108 108 280 325 263 172 122 238 152 113 68 0 0 0 0 0 0 0 0 0 0 0 0 0 0 0 0 0 0 0 0 0
0 0 0 0 0 0 0 0 0 0 0 0 0 0 27 1 1 179 401 377 373 388 429 289 248 121 117 11 0 0 0 0 0 0 0 0 0 0 0 0 0 0 0 0 0 0 0 0 0
0 0 0 0 0 0 0 0 0 0 0 0 0 0 0 12 42 176 460 639 580 546 487 416 150 40 12 1 0 0 0 0 0 0 0 0 0 0 0 0 0 0 0 0 0 0 0 0 0
0 0 0 0 0 0 0 0 0 0 0 0 0 0 0 0 34 266 496 730 694 631 443 286 62 2 0 0 0 0 0 0 0 0 0 0 0 0 0 0 0 0 0 0 0 0 0 0 0
12 0 2 0 2 0 0 0 0 3 4 0 0 0 5 51 162 259 390 519 445 400 207 0 0 0 0 0 0 0 0 0 0 0 0 0 0 0 0 0 0 0 0 0 0 0 0 0 0
0 0 0 0 0 0 0 0 0 0 0 0 0 0 0 44 199 315 387 300 283 127 42 0 0 0 0 0 0 0 0 0 0 0 0 0 0 0 0 0 0 0 0 0 0 0 0 0 0
0 0 0 0 0 0 0 0 0 0 0 0 0 0 0 39 144 312 424 214 56 44 0 0 0 0 0 0 0 0 0 0 0 0 0 0 0 0 0 0 0 0 0 0 0 0 0 0 0

GFSSGP_con_mlcape_030.txt.gz
CAPE
0 0 0 0 0 0 0 0 0 0 281 812 1031 923 783 757 508 269 464 506 738 785 681 423 259 109 49 19 1 0 0 0 0 0 0 0 0 0 0 0 0 0 0 0 0 2 10 8 0
0 0 0 0 0 0 0 0 157 393 559 307 386 969 866 809 714 576 518 795 760 757 652 423 191 137 88 66 39 0 0 0 0 0 1 0 0 0 0 0 0 0 0 0 0 0 0 0 0
0 0 0 0 0 0 0 0 162 381 326 305 416 523 879 827 934 672 674 844 801 697 534 338 311 322 163 28 6 3 0 0 3 7 7 5 0 0 2 1 3 5 0 0 0 0 0 0 0
0 0 0 0 0 0 0 0 339 239 260 163 282 595 861 654 962 856 949 951 872 728 496 423 210 265 95 30 8 31 0 8 17 42 37 38 37 33 3 0 11 17 4 0 0 0 0 0 0
0 0 0 0 0 0 111 367 424 442 262 158 256 599 568 667 720 876 852 707 694 676 573 324 173 171 79 79 27 25 10 31 86 98 91 91 82 48 10 0 0 0 0 0 0 0 0 0 0
0 0 0 0 0 0 40 433 516 443 394 418 584 504 590 545 621 509 422 272 219 323 403 265 76 71 81 198 49 50 58 114 120 144 138 114 65 17 0 0 0 0 0 0 0 0 0 0 0
0 0 0 0 0 0 141 459 445 440 414 333 368 401 501 441 192 188 66 2 2 4 123 47 77 39 77 97 93 45 73 105 153 165 112 45 7 0 0 0 0 0 0 0 0 0 0 0 0
0 0 0 0 0 0 190 392 435 391 289 180 190 449 493 95 3 1 1 1 0 2 3 0 3 3 19 95 92 57 71 79 101 45 6 0 0 0 0 0 0 0 0 0 0 0 0 0 0
0 0 0 0 0 11 291 310 161 160 374 494 476 444 302 5 1 0 0 3 1 1 1 5 0 19 125 84 59 26 87 36 4 0 1 1 0 0 0 0 0 0 0 0 0 0 0 0 0
0 0 0 0 0 52 159 299 204 260 394 455 513 522 235 7 3 2 3 1 2 0 0 5 0 12 24 90 4 0 14 7 0 0 0 0 0 0 0 0 0 0 0 0 0 0 0 0 0
0 0 0 0 0 139 72 124 100 167 105 350 332 390 96 30 3 2 2 1 0 0 0 0 0 3 0 14 0 0 1 0 0 0 0 0 0 0 0 0 0 0 0 0 0 0 0 0 0
0 0 0 0 4 120 71 29 66 33 132 269 322 289 4 7 45 18 5 4 2 1 0 0 3 12 69 37 0 0 0 0 0 0 0 0 0 0 0 0 0 0 0 0 0 0 0 0 0
0 0 0 0 61 187 85 9 31 53 165 213 243 54 37 56 77 89 60 6 2 0 0 0 16 87 45 0 0 0 0 0 0 0 1 0 0 0 0 0 0 0 0 0 0 0 0 0 0
0 0 9 9 121 198 110 65 74 169 254 49 64 50 6 47 58 68 13 0 0 0 0 0 42 241 64 0 0 0 0 1 0 1 6 0 0 0 0 0 0 0 0 0 0 0 0 0 0
0 11 63 64 45 60 64 38 71 255 170 33 41 14 15 29 39 10 0 0 0 0 0 0 70 270 60 0 0 0 59 38 52 39 0 0 0 0 0 0 0 0 0 0 0 0 0 0 0
0 0 0 5 13 15 6 36 51 408 213 101 100 35 5 43 54 7 0 0 0 0 0 15 170 221 61 0 0 13 8 13 9 6 0 0 0 0 0 0 0 0 0 0 0 0 0 0 0
0 0 0 3 26 9 6 0 13 344 413 256 193 106 14 29 68 81 0 0 0 9 82 176 224 253 61 0 0 10 0 0 0 0 0 0 0 0 0 0 0 0 0 0 0 0 0 0 0
0 0 0 0 9 28 19 2 12 70 222 304 308 300 225 153 131 101 1 0 14 108 227 269 255 218 33 0 0 0 0 0 0 0 0 0 0 0 0 0 0 0 0 0 0 0 0 0 0
0 0 0 0 0 0 0 0 2 39 126 302 310 279 403 358 283 128 25 9 125 241 365 331 243 153 36 4 7 0 0 0 0 0 0 0 0 0 0 0 0 0 0 0 0 0 0 0 0
0 0 0 0 0 0 0 0 0 74 137 266 294 285 347 355 433 251 112 58 138 253 309 275 250 145 75 51 6 0 0 0 0 0 0 0 0 0 0 0 0 0 0 0 0 0 0 0 0
0 0 0 0 0 0 0 0 0 48 150 175 220 254 299 250 353 408 318 203 173 247 267 221 192 149 61 0 0 0 0 0 0 0 0 0 0 0 0 0 0 0 0 0 0 0 0 0 0
0 0 0 0 0 0 0 0 0 6 191 157 196 197 228 241 231 349 421 413 304 278 248 242 240 166 7 0 0 0 0 0 0 0 0 0 0 0 0 0 0 0 0 0 0 0 0 0 0
0 0 0 0 0 0 0 0 0 0 89 202 214 163 86 75 128 243 265 417 385 237 245 216 202 136 4 0 0 0 0 0 0 0 0 0 0 0 0 0 0 0 0 0 0 0 0 0 0
0 0 0 0 0 0 0 0 0 0 0 35 183 154 122 1 0 17 86 231 362 210 167 105 110 162 36 0 0 0 0 0 0 0 0 0 0 0 0 0 0 0 0 0 0 0 0 0 0
0 0 0 0 0 0 0 0 0 0 0 0 1 11 23 14 0 3 23 70 238 293 224 45 5 39 51 4 0 0 0 0 0 0 0 0 0 0 0 0 0 0 0 0 0 0 0 0 0
0 0 0 0 0 0 0 0 0 0 0 0 0 0 0 0 0 0 95 46 118 149 159 114 47 23 18 22 0 0 0 0 0 0 0 0 0 0 0 0 0 0 0 0 0 0 0 0 0
0 0 0 0 0 0 0 0 0 0 0 0 0 0 0 0 0 3 112 174 143 134 133 203 97 43 0 19 0 0 0 0 0 0 0 0 0 0 0 0 0 0 0 0 0 0 0 0 0
0 0 0 0 0 0 0 0 0 0 0 0 0 0 0 0 0 0 86 217 251 233 216 161 47 21 0 0 0 0 0 0 0 0 0 0 0 0 0 0 0 0 0 0 0 0 0 0 0
0 0 0 0 0 0 0 0 0 0 0 0 0 0 0 0 0 10 90 190 185 183 171 69 34 35 0 0 0 0 0 0 0 0 0 0 0 0 0 0 0 0 0 0 0 0 0 0 0
0 0 0 0 0 0 0 0 0 0 0 0 0 0 0 0 0 73 147 137 127 189 138 133 1 0 0 0 0 0 0 0 0 0 0 0 0 0 0 0 0 0 0 0 0 0 0 0 0

GFSSGP_con_mlcape_033.txt.gz
CAPE
0 0 0 0 0 0 0 0 0 6 138 797 1108 983 768 724 523 362 624 668 942 730 493 466 359 141 60 36 10 0 1 7 1 2 4 0 0 0 0 0 0 0 24 117 151 108 23 1 32
0 0 0 0 0 0 0 0 295 208 532 440 625 1007 1003 662 605 542 639 847 928 749 528 345 358 247 196 112 52 80 65 29 8 1 5 3 11 16 5 0 0 0 0 18 90 160 80 68 64
0 0 0 0 0 0 0 0 41 361 488 461 483 792 1032 773 803 869 836 1079 1024 787 612 399 376 308 216 125 112 75 66 29 11 10 12 14 36 43 31 0 0 0 0 0 0 0 6 1 0
0 0 0 0 0 0 0 0 502 386 464 346 664 799 805 853 1103 970 1076 1028 988 884 669 451 335 286 152 61 79 68 40 29 31 40 38 59 62 64 54 36 26 0 0 0 0 0 0 0 0
0 0 0 0 0 0 0 427 623 583 526 478 567 661 649 751 1035 1058 1087 1042 870 767 702 509 261 243 192 243 114 63 17 39 64 80 92 76 64 77 79 82 68 6 0 0 0 0 0 0 0
0 0 0 0 0 0 0 461 708 724 660 673 816 675 645 754 842 492 531 491 448 654 427 417 311 114 39 165 70 68 32 89 102 120 116 85 53 39 22 13 0 0 0 0 0 0 0 0 0
0 0 0 0 0 0 183 558 620 668 608 589 647 607 529 591 228 165 143 109 141 200 301 333 94 37 1 78 75 92 130 166 151 145 118 56 14 4 0 0 0 0 0 0 0 0 0 0 0
0 0 0 0 0 0 208 432 442 434 459 447 451 605 469 260 42 3 2 2 3 1 2 0 0 1 5 22 216 176 143 187 177 116 64 3 1 0 0 0 0 0 0 0 0 0 0 0 0
0 0 0 0 0 0 262 441 226 323 600 560 502 640 318 42 17 1 2 4 3 4 2 4 0 0 32 119 150 246 175 172 118 55 12 6 9 0 0 0 0 0 0 0 0 0 0 0 0
0 0 0 0 0 1 176 363 265 486 556 516 518 382 170 42 7 0 3 1 4 5 3 1 2 15 14 109 90 158 195 85 28 23 7 5 1 0 0 0 0 0 0 0 0 0 0 0 0
0 0 0 0 0 43 129 251 207 396 276 475 519 356 131 28 2 1 3 2 2 3 7 3 0 0 0 43 18 20 7 11 10 6 1 0 0 0 0 0 0 0 0 0 0 0 0 0 0
0 0 0 0 2 111 146 91 216 158 251 323 609 306 128 7 0 1 3 1 0 0 0 0 0 0 18 27 8 5 9 1 0 0 0 0 0 0 0 0 0 0 0 0 0 0 0 0 0
0 0 0 0 0 187 93 45 87 215 423 617 331 107 48 43 24 3 5 4 10 4 5 5 1 8 48 39 3 0 0 0 0 0 17 8 6 0 0 0 0 0 0 0 0 0 0 0 0
0 0 14 0 124 182 215 196 125 306 315 282 251 63 88 119 134 99 48 2 1 5 0 0 0 29 112 0 0 0 0 0 0 0 15 1 2 0 0 0 0 0 0 0 0 0 0 0 0
0 4 26 53 139 151 76 92 175 333 117 118 109 30 80 112 95 101 83 6 0 0 0 0 2 193 122 0 0 0 0 0 0 0 0 0 0 0 0 0 0 0 0 0 0 0 0 0 0
0 0 0 0 13 43 6 91 255 313 76 49 39 40 22 52 20 24 14 0 0 0 0 0 44 173 205 0 0 0 28 36 33 18 0 0 0 0 0 0 0 0 0 0 0 0 0 0 0
0 0 0 18 58 37 35 60 201 263 108 79 44 0 7 23 45 18 0 0 0 0 0 0 35 247 261 2 0 7 42 32 34 4 0 0 0 0 0 0 0 0 0 0 0 0 0 0 0
0 0 0 14 52 30 26 24 147 397 263 152 155 120 20 8 51 98 35 0 0 0 0 33 132 267 265 26 0 17 12 0 0 0 0 0 0 0 0 0 0 0 0 0 0 0 0 0 0
3 1 0 0 0 0 5 12 47 242 419 380 309 290 282 132 106 124 131 36 4 7 24 118 187 212 198 49 3 42 39 0 0 0 0 0 0 0 0 0 0 0 0 0 0 0 0 0 0
0 1 1 0 0 0 0 0 18 99 266 229 337 325 281 373 373 282 202 102 66 83 86 186 266 247 210 87 19 11 0 0 0 0 0 0 0 0 0 0 0 0 0 0 0 0 0 0 0
0 0 0 0 0 0 0 0 0 13 101 142 172 308 309 313 335 461 264 155 100 141 204 267 370 266 184 66 4 0 0 0 0 0 0 0 0 0 0 0 0 0 0 0 0 0 0 0 0
0 0 0 0 0 0 0 0 0 0 60 191 207 235 297 297 331 454 444 291 157 119 229 343 382 313 231 55 33 4 5 0 0 0 0 0 0 0 0 0 0 0 0 0 0 0 0 0 0
0 0 0 0 0 0 0 0 0 0 7 90 290 242 252 277 301 407 473 490 381 249 210 262 316 236 168 24 7 2 0 0 0 0 0 0 0 0 0 0 0 0 0 0 0 0 0 0 0
0 0 0 0 0 0 0 0 0 0 0 7 115 316 240 239 247 218 327 412 528 416 321 280 258 257 94 33 16 0 0 0 0 0 0 0 0 0 0 0 0 0 0 0 0 0 0 0 0
0 0 0 0 0 0 0 0 0 0 0 0 0 61 206 230 179 207 136 152 372 373 404 372 307 195 74 50 13 0 0 0 0 0 0 0 0 0 0 0 0 0 0 0 0 0 0 0 0
0 0 0 0 0 0 0 0 0 0 0 0 0 0 0 5 105 216 204 156 162 261 335 407 385 141 0 0 8 2 0 0 0 0 0 0 0 0 0 0 0 0 0 0 0 0 0 0 0
0 0 0 0 0 0 0 0 0 0 0 0 0 0 0 0 0 0 15 49 62 179 258 432 473 200 46 18 4 3 0 0 0 0 0 0 0 0 0 0 0 0 0 0 0 0 0 0 0
0 0 0 0 0 0 0 0 0 0 0 0 0 0 0 0 0 0 0 42 81 151 200 278 392 397 251 1 2 0 0 0 0 0 0 0 0 0 0 0 0 0 0 0 0 0 0 0 0
0 0 0 0 0 0 0 0 0 0 0 0 0 0 0 0 0 0 2 114 228 277 260 270 298 309 84 32 0 0 0 0 0 0 0 0 0 0 0 0 0 0 0 0 0 0 0 0 0
0 0 0 0 0 0 0 0 0 0 0 0 0 0 0 0 0 18 65 150 250 315 275 250 115 72 17 0 0 0 0 0 0 0 0 0 0 0 0 0 0 0 0 0 0 0 0 0 0

GFSSGP_con_mlcape_036.txt.gz
CAPE
0 0 0 0 0 0 0 0 0 90 98 1086 1522 1263 758 1121 710 571 935 1211 1218 725 237 406 656 674 615 427 247 90 52 0 0 0 0 0 1 8 0 8 21 139 184 163 114 93 82 0 0
0 0 0 0 0 0 0 0 1 214 610 944 1093 1521 1326 1143 939 909 1002 950 1177 857 371 94 457 450 358 178 73 66 41 34 34 13 4 32 48 34 18 17 137 257 287 241 147 177 86 0 0
0 0 0 0 0 0 0 0 38 390 715 1038 992 1468 1023 692 786 811 1073 1214 1216 934 537 270 464 303 149 40 51 70 58 57 52 38 69 92 67 63 29 29 48 107 180 262 240 224 44 0 0
0 0 0 0 0 0 0 0 708 734 774 814 1192 1058 790 935 1541 1226 1211 1370 1277 911 708 563 377 176 88 79 77 79 52 86 57 120 119 132 115 84 56 64 71 6 37 43 99 41 0 0 0
0 0 0 0 0 0 0 55 767 788 944 974 1082 931 990 1098 1197 1437 1344 1257 1169 914 797 473 330 316 254 233 165 87 52 72 95 153 141 162 165 156 121 97 70 0 0 0 0 0 0 0 0
0 0 0 0 0 0 8 435 942 1044 1055 1191 1269 1181 924 561 849 646 942 1046 1036 862 649 532 227 375 329 279 143 61 71 91 112 162 165 178 207 174 135 54 9 0 0 0 0 0 0 0 0
0 0 0 0 24 36 427 876 929 1034 1092 1118 1221 1214 817 572 296 222 487 539 627 683 463 307 109 66 93 65 116 87 122 136 178 191 202 156 106 66 26 0 0 0 0 0 0 0 0 0 0
0 0 0 0 25 44 413 740 786 935 1025 1057 1073 1063 801 510 168 186 220 170 234 258 178 2 0 0 0 58 193 195 180 231 226 160 116 60 29 4 0 0 0 6 0 0 0 0 0 0 0
0 0 0 9 34 33 332 667 705 757 1123 1110 1024 1235 713 218 147 231 117 5 8 3 1 3 0 0 0 0 180 238 223 323 198 90 53 2 0 0 0 0 0 0 0 0 0 0 0 0 0
0 0 0 0 0 0 268 650 727 960 1108 996 754 556 322 161 199 193 33 1 3 2 3 5 1 0 0 5 72 265 256 185 136 78 21 26 45 11 4 3 0 0 0 0 0 0 0 0 0
0 1 0 0 0 0 180 508 594 682 850 974 647 450 282 182 90 6 5 6 4 3 2 7 0 20 0 0 0 229 205 192 201 129 81 84 75 38 54 0 0 0 0 0 0 0 0 0 0
0 0 0 0 8 80 299 426 595 596 889 856 570 293 182 111 33 3 4 4 3 4 3 1 5 5 7 24 127 122 106 79 39 28 79 73 50 104 25 0 0 0 0 0 0 0 0 0 0
0 0 0 5 0 256 248 311 474 654 936 840 492 238 128 67 11 2 1 2 0 0 1 6 12 22 40 27 15 17 3 24 36 33 9 0 10 121 29 0 0 0 0 0 0 0 0 0 0
0 7 103 18 221 442 483 545 534 724 735 505 333 68 87 104 3 3 3 8 1 0 0 0 0 3 3 20 19 8 57 33 26 61 88 162 100 52 17 0 0 0 0 0 0 0 0 0 0
0 80 46 120 287 381 323 309 631 433 475 510 303 129 82 140 122 58 35 22 7 9 7 3 5 36 23 38 96 33 25 9 16 212 335 270 157 60 1 0 0 0 0 0 0 0 0 0 0
0 15 0 0 86 162 250 233 686 319 218 163 142 178 52 180 239 238 76 3 13 15 9 7 13 61 163 183 79 1 27 8 121 271 308 215 77 8 0 0 0 0 0 0 0 0 0 0 0
0 8 4 16 51 153 175 163 633 490 148 147 79 32 69 124 128 211 19 0 0 0 1 0 7 152 310 347 39 9 88 214 366 358 263 37 2 0 0 0 0 0 0 0 0 0 0 0 0
18 18 28 92 142 108 131 104 575 629 206 168 180 23 39 82 82 87 85 0 0 0 0 0 94 264 462 336 65 1 242 428 526 471 287 69 0 0 0 0 0 0 0 0 0 0 0 0 0
0 11 24 23 0 50 31 55 239 623 531 332 326 293 113 85 131 143 69 11 0 0 30 75 132 346 526 326 20 28 160 352 380 415 233 47 0 0 0 0 0 0 0 0 0 0 0 0 0
1 3 20 2 0 0 16 29 80 493 686 697 613 558 549 369 163 250 275 116 40 55 105 162 279 460 539 356 58 180 341 358 272 89 1 0 0 0 0 0 0 0 0 0 0 0 0 0 0
2 3 2 0 0 0 0 13 63 130 406 677 582 509 474 456 530 491 433 455 230 113 154 199 358 563 701 471 178 169 334 142 17 0 0 0 0 0 0 0 0 0 0 0 0 0 0 0 0
0 0 0 0 0 13 0 33 22 66 114 224 374 365 449 415 458 555 764 569 507 327 258 288 334 566 711 592 254 83 78 200 24 0 0 0 0 0 0 0 0 0 0 0 0 0 0 0 0
2 0 1 3 6 7 7 4 4 0 61 96 264 387 379 416 442 513 623 832 638 459 369 468 495 597 769 726 461 261 217 332 121 0 0 0 0 0 0 0 0 0 0 0 0 0 0 0 0
0 0 0 0 6 0 6 11 29 5 3 17 86 297 414 427 488 591 653 770 902 727 552 553 593 665 788 645 310 193 177 285 22 0 0 0 0 0 0 0 0 0 0 0 0 0 0 0 0
0 0 10 8 8 4 4 11 38 22 0 0 7 64 277 415 474 566 664 785 944 1022 965 851 761 599 632 409 89 63 141 207 0 0 0 0 0 0 0 0 0 0 0 0 0 0 0 0 0
0 5 12 4 0 10 0 0 17 0 0 10 26 1 13 266 450 534 593 657 826 1070 1264 1128 1021 614 156 66 81 174 184 163 2 2 0 0 0 0 0 0 0 0 0 0 0 0 0 0 0
0 0 0 13 0 0 0 0 0 0 0 0 19 21 25 9 18 243 517 597 673 784 1144 1178 1056 726 454 70 0 15 40 42 3 0 0 0 0 0 0 0 0 0 0 0 0 0 0 0 0
0 0 0 12 14 0 1 0 4 0 0 0 0 0 55 136 31 32 101 235 519 591 890 1008 1083 1055 810 16 25 60 71 28 12 0 0 0 0 0 0 0 0 0 0 0 0 0 0 0 0
0 0 1 29 15 4 0 0 0 0 0 0 0 0 0 31 243 228 234 260 378 465 686 795 969 1083 1085 346 280 190 232 152 61 5 0 0 0 0 0 0 0 0 0 0 0 0 0 0 0
7 9 9 1 1 0 0 0 0 0 0 0 0 0 0 0 79 434 507 581 677 679 694 779 848 892 980 998 879 586 404 169 37 2 1 0 0 0 0 0 0 0 0 0 0 0 0 0 0

GFSSGP_con_mlcape_039.txt.gz
CAPE
0 0 0 0 0 0 0 2 22 22 0 155 421 467 64 730 323 187 999 1476 1108 836 723 1149 1246 1171 1019 836 547 358 151 0 0 0 4 0 0 1 51 73 122 168 148 162 43 0 0 0 0
0 0 0 0 0 0 7 0 0 4 191 585 1319 1284 1213 1207 1150 1170 1384 1589 924 769 698 1215 1110 1053 884 678 458 223 34 0 0 6 19 32 36 70 81 196 314 323 254 198 65 0 0 0 0
0 0 0 0 0 0 10 0 3 257 345 693 843 1457 1452 850 737 832 1206 1431 784 448 524 1041 929 915 763 536 316 109 29 39 12 31 87 94 102 109 199 327 483 438 325 253 121 0 0 0 0
0 0 0 0 0 0 0 7 177 299 439 734 897 1318 956 326 142 1 928 1653 977 110 264 697 742 729 585 398 209 68 39 19 42 105 157 151 153 143 134 174 303 433 365 328 166 0 0 0 0
0 0 0 7 4 0 0 1 272 412 599 998 1133 552 1158 1075 994 561 951 1726 992 5 359 506 591 452 421 268 129 50 61 65 167 172 217 197 162 199 172 83 116 142 180 188 6 0 0 0 0
0 0 0 12 3 0 2 161 368 865 1045 1188 1054 995 1016 666 808 834 1570 1594 1033 763 648 367 409 403 274 170 92 61 66 119 235 241 280 249 253 200 130 37 20 23 0 0 0 0 0 0 0
0 0 17 0 19 83 224 576 732 814 929 1205 1392 1174 1216 834 329 583 745 881 930 535 350 227 69 181 234 130 60 104 171 259 270 265 334 180 130 89 43 0 0 0 0 0 0 0 0 0 0
0 0 0 4 8 0 396 621 843 997 1295 1297 1327 1144 1206 727 330 362 344 317 499 359 40 94 63 114 96 81 101 128 205 294 283 254 197 113 75 34 6 0 0 0 0 0 0 0 0 0 0
0 0 8 18 31 0 267 601 989 972 1163 1381 1460 1646 1104 486 354 440 328 211 116 87 53 0 0 0 0 15 127 206 300 282 207 146 119 33 16 20 59 46 21 0 0 0 0 0 0 0 0
0 7 1 0 9 0 52 435 786 871 1206 1330 847 713 587 447 444 454 234 100 15 2 2 2 0 0 0 9 36 132 255 209 143 88 33 51 55 121 102 23 0 0 0 0 0 0 0 0 0
0 0 0 10 0 0 26 408 685 760 726 960 1095 627 474 394 323 89 6 5 2 3 0 2 0 0 0 0 39 84 173 220 180 93 202 192 147 140 92 18 3 0 0 0 0 0 0 0 0
0 1 0 0 0 3 243 494 647 861 1137 1257 909 652 481 304 217 7 4 4 2 3 2 1 5 0 0 0 17 53 185 240 227 235 217 216 151 245 151 45 4 0 0 0 0 0 0 0 0
0 8 1 10 10 47 308 420 498 827 1020 812 584 381 212 218 10 9 5 4 2 2 2 4 6 0 0 0 1 6 22 167 199 222 214 201 165 238 158 90 37 1 0 0 0 0 0 0 0
0 0 43 24 72 325 330 465 569 844 654 597 503 254 78 51 2 2 4 1 2 1 3 5 4 6 19 9 0 30 112 103 72 92 98 96 119 335 191 133 36 0 0 0 0 0 0 0 0
0 1 26 52 84 179 301 62 520 570 568 517 109 22 0 72 0 1 3 0 0 0 0 0 0 26 13 5 7 34 67 43 55 27 190 167 179 342 226 133 41 0 0 0 0 0 0 0 0
0 0 37 7 8 71 9 0 405 390 400 284 170 93 32 131 161 14 2 0 0 0 0 0 0 0 7 35 122 82 69 68 41 101 340 344 362 343 230 57 21 0 0 0 0 0 0 0 0
0 6 32 12 0 60 111 0 290 296 123 70 133 112 53 150 188 150 94 1 1 1 7 0 11 10 48 85 119 29 17 52 11 120 380 419 344 276 257 77 29 0 0 0 0 0 0 0 0
7 20 19 23 17 15 59 26 508 390 204 124 34 10 10 65 135 108 25 12 19 3 0 0 30 31 115 78 93 32 23 94 93 442 444 419 275 154 142 66 8 0 0 0 0 0 0 0 0
1 9 16 6 34 21 41 37 27 604 255 207 167 54 33 58 76 112 0 2 0 4 0 6 9 87 135 112 37 11 0 48 296 448 448 397 273 119 116 67 0 0 0 0 0 0 0 0 0
13 21 10 6 0 0 1 27 19 491 437 362 246 229 116 63 84 109 92 0 0 1 1 1 1 52 200 254 36 0 4 80 197 400 494 494 388 112 88 16 0 0 0 0 0 0 0 0 0
13 23 17 11 1 0 0 0 13 82 427 582 348 267 219 138 75 102 102 94 21 40 73 99 144 198 388 360 154 33 136 259 317 311 346 317 272 49 0 0 0 0 0 0 0 0 0 0 0
15 3 5 0 0 19 0 1 0 26 68 379 532 386 253 226 195 146 201 193 120 100 142 202 305 356 556 604 428 65 139 357 385 425 249 149 30 0 0 0 0 0 0 0 0 0 0 0 0
12 8 3 10 19 26 7 1 0 0 8 46 200 398 246 217 243 252 267 322 391 279 252 309 352 381 581 695 674 351 222 311 418 362 191 70 0 0 0 0 0 0 0 0 0 0 0 0 0
5 9 12 15 26 29 8 24 0 1 0 7 28 162 282 231 220 250 316 416 381 433 469 450 362 350 427 872 714 553 448 338 387 439 109 4 0 0 0 0 0 0 0 0 0 0 0 0 0
0 16 21 31 35 12 30 12 5 0 15 0 2 77 232 268 243 234 269 380 616 693 708 646 524 501 492 802 964 734 468 458 309 351 52 0 0 0 0 0 0 0 0 0 0 0 0 0 0
0 29 48 5 76 90 21 0 12 12 1 0 0 2 21 289 291 259 203 432 679 884 1094 957 849 831 725 888 846 465 7 37 66 466 81 0 1 0 0 0 0 0 0 0 0 0 0 0 0
16 9 48 28 40 54 83 34 5 0 0 0 0 112 159 56 327 352 304 253 612 861 1170 1460 1245 1147 1002 1003 552 281 100 123 355 352 138 18 0 0 0 0 0 0 0 0 0 0 0 0 0
0 33 40 20 36 30 42 82 98 7 0 0 0 1 130 181 144 193 387 442 503 759 1024 1581 1729 1472 1275 693 587 195 280 489 492 296 125 0 0 0 0 0 0 0 0 0 0 0 0 0 0
0 7 28 65 32 61 96 101 63 40 1 0 0 0 0 16 288 308 253 302 492 730 959 1208 1694 1661 1376 1039 773 161 177 213 234 218 75 0 0 0 0 0 0 0 0 0 0 0 0 0 0
20 1 35 48 44 57 50 48 8 5 1 0 0 0 0 11 88 420 544 541 522 606 791 1075 1440 1581 1500 1392 686 277 552 442 308 188 64 0 0 0 0 0 0 0 0 0 0 0 0 0 0

GFSSGP_con_mlcape_042.txt.gz
CAPE
0 0 0 0 0 0 0 0 0 0 8 170 202 83 0 265 128 121 150 0 0 721 1492 1610 1340 1094 997 769 577 326 104 5 0 0 0 0 2 42 59 89 116 283 0 0 0 0 0 0 0
0 0 0 0 0 0 0 0 12 45 283 99 6 48 32 258 228 906 911 381 735 1077 1670 1655 1418 1203 1062 891 593 328 124 14 0 0 0 6 62 87 131 175 198 215 32 0 0 0 0 0 0
0 0 0 0 0 0 0 0 0 123 123 224 216 152 919 98 4 714 811 852 786 926 1507 1415 1214 997 938 754 480 257 139 32 0 0 18 91 125 231 283 329 337 309 101 0 0 0 0 0 0
0 0 0 0 0 0 2 0 0 72 101 67 164 581 472 726 357 20 216 710 437 448 1164 957 930 991 764 624 410 278 113 30 0 62 180 200 294 389 508 513 459 399 173 0 0 0 0 0 0
0 0 0 0 0 1 6 1 0 111 99 31 117 119 13 636 710 783 247 1056 549 739 903 969 792 767 628 501 386 229 95 97 143 267 250 220 215 251 419 528 487 444 209 15 0 0 0 0 0
0 0 0 0 3 65 15 0 55 75 229 16 28 2 0 396 645 629 903 787 569 450 562 641 614 668 459 306 220 123 203 184 324 318 243 260 163 141 198 233 299 285 59 0 0 0 0 0 0
0 0 0 0 2 49 0 0 30 233 143 13 0 34 577 466 310 494 631 721 468 95 301 190 278 418 235 190 235 200 242 305 385 465 355 162 121 72 65 79 104 81 0 0 0 0 0 0 0
0 0 0 1 5 27 11 8 32 435 493 59 304 698 941 409 315 337 263 450 512 152 21 20 7 62 117 183 222 297 237 272 350 234 162 105 76 17 0 3 29 0 0 0 0 0 0 0 0
0 0 0 1 15 4 4 84 59 74 498 1070 853 742 412 388 482 373 386 264 243 125 5 3 2 3 23 122 215 272 252 239 202 136 99 36 13 8 60 8 0 0 0 0 0 0 0 0 0
0 0 2 0 0 0 0 44 36 146 495 383 35 387 336 474 396 224 151 144 35 71 50 25 45 19 50 135 83 195 176 157 178 93 44 45 54 143 112 40 0 0 0 0 0 0 0 0 0
0 0 0 0 0 0 0 11 0 347 543 23 0 443 317 325 142 30 8 3 2 2 2 2 0 0 1 18 41 12 97 83 80 62 164 106 139 116 53 64 11 0 0 0 0 0 0 0 0
0 0 0 0 0 0 0 129 176 521 947 869 608 483 330 240 29 3 1 4 3 2 2 3 0 0 0 1 17 58 64 128 92 180 169 143 182 81 37 63 40 4 0 0 0 0 0 0 0
0 0 0 2 0 0 8 136 191 928 639 558 467 429 291 147 1 3 3 3 3 3 2 2 0 0 0 0 3 28 25 89 146 187 217 206 244 201 113 77 50 0 0 0 0 0 0 0 0
0 0 0 4 0 1 91 11 0 257 561 388 358 135 44 0 2 3 4 4 2 2 2 0 0 0 0 0 0 0 13 34 120 85 59 96 202 284 205 227 108 60 0 0 0 0 0 0 0
0 0 0 1 10 41 64 1 0 0 296 97 79 57 0 2 0 2 2 1 1 1 0 0 0 0 0 0 0 0 3 27 11 4 89 181 157 333 350 161 94 60 48 5 0 0 0 0 0
0 0 0 1 20 14 0 0 1 0 70 6 0 10 24 13 0 0 0 0 0 1 1 2 3 0 0 9 0 0 0 4 5 4 169 91 200 333 274 252 130 70 5 0 0 0 0 0 0
0 0 1 28 0 20 6 0 0 9 287 89 21 84 152 110 6 0 0 0 0 0 0 2 0 0 0 0 0 0 4 130 78 18 80 344 236 330 311 244 115 34 0 0 0 0 0 0 0
0 0 1 26 23 7 40 2 0 12 79 46 50 0 57 102 114 15 0 0 0 0 0 0 0 0 0 0 0 15 103 64 26 11 228 218 372 421 360 254 86 9 0 0 0 0 0 0 0
0 0 0 40 9 19 38 126 62 305 127 32 0 0 0 22 37 125 2 0 0 0 0 0 0 0 0 2 38 53 7 33 41 179 299 400 382 364 254 208 38 2 0 0 0 0 0 0 0
0 0 0 4 4 0 0 7 192 376 292 150 14 0 0 0 36 2 0 0 0 0 0 0 0 0 0 22 0 16 0 0 35 255 416 417 378 261 210 196 25 7 0 0 0 0 0 0 0
0 0 0 13 0 3 0 0 2 382 279 313 189 63 0 0 72 4 0 0 0 0 0 0 0 1 25 53 40 14 2 0 57 154 275 346 385 254 150 170 34 0 0 0 0 0 0 0 0
0 0 0 2 0 0 12 9 0 175 154 314 266 170 68 28 21 78 18 0 0 0 0 0 0 0 66 155 304 24 0 1 148 237 280 283 416 352 107 43 1 0 0 0 0 0 0 0 0
0 0 6 0 0 14 25 7 0 10 18 254 408 361 230 125 62 73 113 91 2 40 55 4 4 77 150 167 369 284 23 190 281 299 254 246 232 137 33 0 0 0 0 0 0 0 0 0 0
3 1 7 4 0 2 26 8 6 1 0 21 113 401 372 242 207 161 172 184 188 108 135 210 204 256 336 385 353 430 143 308 374 281 242 253 73 1 0 0 0 0 0 0 0 0 0 0 0
0 3 0 4 15 8 20 16 28 0 0 3 4 8 359 305 215 242 199 278 330 302 245 299 352 405 447 630 634 566 547 433 321 214 187 178 28 0 0 0 0 0 0 0 0 0 0 0 0
0 0 0 0 0 28 28 27 27 6 1 0 0 0 57 357 252 244 235 332 369 492 494 430 411 403 449 608 760 687 467 453 446 319 160 93 36 1 0 0 0 0 0 0 0 0 0 0 0
3 0 2 7 0 0 2 17 2 14 0 0 0 0 25 40 322 307 207 170 463 562 709 747 713 532 579 572 979 856 160 584 521 340 207 98 66 1 0 0 0 0 0 0 0 0 0 0 0
0 1 45 14 23 12 4 1 34 1 0 0 0 0 87 100 60 200 203 328 225 709 915 978 853 676 782 835 1098 963 458 453 229 240 389 239 63 0 0 0 0 0 0 0 0 0 0 0 0
0 0 1 50 36 19 0 31 0 0 0 1 0 0 0 20 130 160 132 161 362 472 819 1274 1280 1179 1096 1132 1104 933 691 431 439 533 569 346 0 0 0 0 0 0 0 0 0 0 0 0 0
0 0 0 50 22 65 66 4 27 4 0 12 13 1 0 0 3 224 371 316 290 376 770 1600 1713 1574 1260 1342 1150 917 493 214 296 342 368 42 0 0 0 0 0 0 0 0 0 0 0 0 0

GFSSGP_con_mlcape_045.txt.gz
CAPE
0 0 0 0 0 0 0 0 0 0 23 169 185 204 168 417 629 472 510 9 0 41 12 621 1080 1092 922 644 423 285 222 136 4 0 23 193 130 158 343 169 0 0 0 0 0 0 0 0 0
0 0 0 0 0 0 0 0 0 194 295 153 106 115 141 216 163 711 719 0 4 0 0 16 685 1127 1019 608 431 362 248 16 0 3 98 186 115 129 359 91 0 0 0 0 0 0 0 0 0
0 0 0 0 0 0 0 0 0 181 253 286 241 600 595 163 94 171 434 141 550 366 280 746 872 1074 823 564 394 357 132 1 19 88 194 209 260 230 276 180 22 0 0 0 0 0 0 0 0
0 0 0 0 0 0 0 8 61 141 178 49 409 532 223 125 272 677 68 850 712 777 611 952 815 866 735 517 386 240 8 5 132 267 250 370 480 401 349 319 98 46 0 0 0 0 0 0 0
0 0 0 0 0 0 0 0 11 220 222 90 92 0 124 197 562 672 244 748 640 489 164 399 426 547 405 418 323 61 2 94 245 279 471 655 725 597 494 488 170 64 0 0 0 0 0 0 0
0 0 0 0 0 27 1 0 0 46 136 121 39 3 0 355 340 463 586 928 629 229 64 303 215 318 260 179 58 112 110 225 287 356 431 609 751 738 659 564 168 24 0 0 0 0 0 0 0
0 0 0 0 0 25 0 3 10 107 123 49 0 3 0 408 235 416 632 574 425 529 466 326 408 285 184 60 28 188 261 371 322 323 268 337 446 467 496 385 85 0 0 0 0 0 0 0 0
0 0 0 0 0 7 0 2 0 109 218 56 18 167 21 290 235 354 492 373 271 355 213 97 106 132 178 62 83 234 353 276 182 121 94 103 153 169 159 137 27 0 0 0 0 0 0 0 0
0 0 0 0 0 0 6 39 34 0 269 197 475 422 289 266 230 257 380 375 273 163 52 0 2 16 32 33 93 303 259 145 107 79 48 8 7 14 37 64 22 4 0 0 0 0 0 0 0
0 0 0 0 0 0 7 45 10 22 0 6 182 313 327 212 125 191 149 137 195 40 0 0 1 2 0 1 76 297 185 50 87 44 9 8 34 8 7 21 14 11 0 0 0 0 0 0 0
0 0 0 0 0 0 0 27 0 0 0 29 16 265 271 42 7 38 29 1 3 2 2 21 1 0 0 0 4 29 52 74 22 21 27 115 92 2 3 5 11 11 0 0 0 0 0 0 0
0 0 0 0 0 0 3 49 298 321 372 475 297 175 193 42 0 0 0 1 0 1 1 1 0 1 0 0 0 5 57 67 42 78 82 121 32 14 21 18 5 0 0 0 0 0 0 0 0
0 0 0 0 0 0 7 62 130 4 159 275 370 238 175 1 0 3 2 2 2 1 1 1 1 0 0 0 2 25 71 43 117 107 119 120 39 27 54 43 0 0 0 0 0 0 0 0 0
0 0 0 0 0 0 0 1 2 3 272 232 96 67 21 1 0 3 1 2 2 2 1 0 0 0 0 0 2 13 27 39 118 148 158 173 92 77 80 43 21 1 0 0 0 0 0 0 0
0 0 0 0 0 0 0 4 0 1 0 195 57 15 9 6 0 3 2 1 1 2 2 1 0 0 0 0 0 0 0 9 1 5 11 107 198 240 116 126 42 19 0 0 0 0 0 0 0
0 0 0 0 0 2 16 0 0 0 0 0 0 2 7 1 0 0 1 2 1 1 0 2 2 0 0 0 0 0 0 0 0 0 40 38 83 209 242 81 71 18 0 0 0 0 0 0 0
0 0 0 0 1 0 1 0 5 0 0 0 0 4 11 17 0 0 0 1 1 0 0 1 0 0 0 0 0 0 0 0 0 0 6 86 42 234 185 161 80 1 0 0 0 0 0 0 0
0 0 0 0 0 3 12 26 0 1 29 0 0 29 54 9 0 0 0 0 0 0 1 0 0 0 0 0 0 0 0 0 0 0 0 0 115 41 158 195 54 0 0 0 0 0 0 0 0
0 0 0 0 0 10 52 33 8 0 38 0 0 0 79 34 0 0 0 0 0 0 0 0 0 0 0 0 0 0 0 0 0 0 0 0 0 119 258 165 60 0 0 0 0 0 0 0 0
0 0 0 0 1 3 2 31 25 0 57 0 0 0 0 35 0 0 0 0 0 0 0 0 0 0 0 0 0 0 0 0 0 0 0 0 0 70 176 61 33 0 0 0 0 0 0 0 0
0 0 0 0 4 3 0 0 44 36 108 8 0 0 0 0 2 0 0 0 0 0 0 0 0 0 0 0 0 1 10 2 0 0 0 0 83 188 137 88 31 0 0 0 0 0 0 0 0
0 0 0 0 0 0 0 0 59 96 173 91 1 0 0 0 0 0 0 0 0 0 0 0 0 0 0 0 0 0 0 0 0 0 0 21 131 194 173 96 47 3 0 0 0 0 0 0 0
0 0 0 0 0 0 0 0 0 216 150 133 127 17 0 0 0 0 0 0 0 0 0 0 0 0 0 0 0 0 0 0 0 0 16 82 163 212 162 76 25 0 0 0 0 0 0 0 0
0 0 0 0 0 0 0 0 0 72 26 156 151 144 7 0 11 1 0 0 0 0 0 0 0 0 0 0 1 16 44 0 0 15 55 129 141 147 107 0 2 0 0 0 0 0 0 0 0
0 0 0 0 0 0 4 5 0 6 4 120 16 222 142 1 39 10 0 0 0 0 0 0 0 0 0 0 20 11 46 72 9 55 122 97 80 50 38 1 0 0 0 0 0 0 0 0 0
0 0 0 0 0 0 0 0 14 0 0 0 7 208 234 88 11 38 35 3 0 0 0 0 0 0 0 0 6 32 37 62 52 99 126 112 51 35 1 0 0 0 0 0 0 0 0 0 0
0 0 0 0 0 0 0 0 0 0 0 0 0 0 127 234 99 10 28 30 16 4 12 61 58 33 50 165 220 200 194 240 121 80 145 142 75 11 0 0 0 0 0 0 0 0 0 0 0
0 0 5 10 4 0 2 8 25 0 0 0 0 0 0 30 160 81 15 48 72 78 92 10 116 147 88 152 305 349 359 255 291 228 231 148 50 1 0 0 0 0 0 0 0 0 0 0 0
0 0 0 2 0 3 0 0 0 1 0 0 0 0 4 35 80 100 88 161 105 165 321 243 122 158 137 120 272 445 437 355 223 237 274 181 19 0 0 0 0 0 0 0 0 0 0 0 0
0 0 0 0 0 30 2 0 2 0 0 0 0 0 0 0 13 97 226 180 67 53 293 162 304 239 226 201 337 549 404 212 56 175 281 173 53 0 0 0 0 0 0 0 0 0 0 0 0

GFSSGP_con_mlcape_048.txt.gz
CAPE
0 0 0 0 0 0 0 0 0 0 0 86 126 255 377 600 698 572 465 185 443 1066 855 317 154 757 728 389 190 147 81 53 198 231 520 603 222 32 13 0 0 0 0 0 0 0 0 0 3
0 0 0 0 0 0 0 0 0 4 161 80 345 341 265 179 321 821 555 210 497 511 879 712 384 405 765 259 201 239 173 168 348 371 604 669 429 51 10 0 0 0 0 0 0 0 0 0 0
0 0 0 0 0 0 0 0 0 25 168 266 577 642 495 248 320 290 430 91 154 76 208 285 5 103 591 464 342 218 104 218 340 359 558 664 450 56 21 0 0 0 0 0 0 0 0 0 0
0 0 0 0 0 0 0 0 125 105 217 276 611 467 286 299 403 841 345 231 529 112 26 67 0 104 337 535 324 118 149 254 339 365 545 683 418 80 32 1 0 0 0 0 0 0 0 0 0
0 0 0 0 0 0 0 0 89 193 220 140 60 10 135 150 634 759 597 861 934 584 75 35 17 52 300 481 135 101 177 351 364 445 536 623 473 141 103 0 0 0 0 0 0 0 0 0 0
0 0 0 0 0 0 0 0 31 173 159 66 0 0 2 190 272 448 548 781 542 316 437 517 207 197 226 240 99 163 230 420 524 566 614 603 587 285 119 0 0 0 0 0 0 0 0 0 0
0 0 0 0 0 0 0 1 55 112 66 43 1 20 0 308 287 324 543 679 517 308 209 472 153 233 15 47 61 467 381 568 649 736 757 594 568 432 60 0 0 0 0 0 0 0 0 0 0
0 0 0 0 0 0 17 37 3 15 132 298 397 246 88 229 250 395 491 493 444 286 274 121 136 75 5 0 0 152 321 380 399 472 497 541 544 297 59 0 0 0 0 0 0 0 0 0 0
0 0 0 0 0 0 48 41 8 7 5 40 73 143 221 313 328 513 372 276 338 256 78 59 1 9 37 25 10 0 239 236 231 249 230 232 191 150 0 0 0 0 0 0 0 0 0 0 0
0 0 0 0 0 9 37 9 0 0 0 2 31 70 166 142 217 273 296 215 185 151 15 16 0 1 1 0 5 54 229 137 56 25 13 23 38 23 0 0 0 0 0 0 0 0 0 0 0
0 0 0 0 0 1 10 21 1 12 0 0 0 0 46 58 160 133 168 96 29 90 3 2 10 0 0 0 0 29 78 32 0 0 1 6 0 12 1 0 0 0 0 0 0 0 0 0 0
0 0 0 0 0 0 0 87 75 0 0 2 0 55 68 22 57 34 19 0 11 0 2 2 2 2 1 0 0 36 19 0 0 0 0 0 0 0 0 0 0 0 0 0 0 0 0 0 0
0 0 0 0 0 0 17 88 65 7 165 126 65 88 40 8 9 6 2 2 1 0 1 2 0 4 1 0 2 33 1 0 0 9 3 0 0 0 2 0 0 0 0 0 0 0 0 0 0
0 0 0 0 0 0 0 1 0 8 88 18 32 41 17 5 5 1 1 1 1 2 1 0 1 2 0 0 1 9 0 0 7 36 9 0 3 4 2 0 0 0 0 0 0 0 0 0 0
0 0 0 0 0 0 0 0 0 102 151 69 4 13 9 0 1 1 0 0 1 0 2 1 0 0 0 0 0 0 0 0 34 64 35 9 6 19 13 6 0 0 0 0 0 0 0 0 0
0 0 0 0 0 0 0 0 0 69 38 105 0 0 0 0 0 1 1 1 1 2 1 2 2 0 0 0 0 0 0 0 10 32 58 53 80 66 69 43 34 7 0 0 0 0 0 0 0
0 0 0 0 0 0 0 0 0 0 2 0 0 0 0 0 0 0 0 1 2 1 1 0 3 0 0 0 0 0 0 0 0 0 5 36 59 150 138 82 73 28 0 0 0 0 0 0 0
0 0 0 0 1 0 0 0 0 0 0 0 0 0 0 0 0 0 1 1 0 1 0 0 0 0 0 0 0 0 0 0 0 0 0 0 47 57 121 110 69 11 0 0 0 0 0 0 0
0 0 0 0 0 14 0 0 0 0 0 0 0 0 0 0 0 0 0 0 0 0 0 1 0 0 0 0 0 0 2 0 0 0 0 0 0 14 74 57 37 2 0 0 0 0 0 0 0
0 0 0 0 0 11 9 3 1 0 0 0 0 0 0 0 0 0 0 0 0 0 0 0 0 0 0 0 0 0 0 1 0 0 0 0 0 4 56 60 39 0 0 0 0 0 0 0 0
0 0 0 0 0 0 0 0 0 0 0 0 0 0 0 0 0 0 0 0 0 0 0 0 0 0 0 0 0 0 0 0 0 0 0 0 0 0 5 10 40 0 0 0 0 0 0 0 0
0 0 0 0 0 0 0 0 0 0 2 0 0 0 0 0 0 0 0 0 0 0 0 0 0 0 0 0 0 0 0 0 0 0 0 0 0 4 0 13 23 0 0 0 0 0 0 0 0
0 0 0 0 0 0 0 0 0 0 14 66 10 0 0 0 0 0 0 0 0 0 0 0 0 0 0 0 0 0 0 0 0 0 0 0 0 5 9 54 72 25 0 0 0 0 0 0 0
0 0 0 0 0 0 0 0 0 0 0 48 116 0 0 0 0 0 0 0 0 0 0 0 0 0 0 0 0 0 0 0 0 0 0 0 1 4 29 64 66 4 0 0 0 0 0 0 0
0 0 0 0 0 0 0 0 0 0 0 2 66 100 1 0 0 2 0 0 0 0 0 0 0 0 0 0 0 0 0 0 0 0 0 0 2 18 49 54 19 4 0 0 0 0 0 0 0
0 0 0 0 0 0 0 0 0 0 0 0 14 97 89 1 0 0 0 0 0 0 0 0 0 0 0 0 0 0 0 2 2 0 0 0 0 9 41 39 9 0 0 0 0 0 0 0 0
0 0 0 0 0 0 0 0 0 0 0 0 0 26 99 73 2 27 3 0 0 0 0 0 0 0 0 0 0 0 10 14 41 50 27 1 0 26 3 8 0 0 0 0 0 0 0 0 0
0 0 0 0 0 0 0 0 0 0 0 0 0 0 17 36 14 64 18 0 0 0 0 0 0 0 0 0 0 0 3 15 31 30 59 37 2 12 1 0 0 0 0 0 0 0 0 0 0
0 0 0 3 0 0 0 0 0 0 0 0 0 0 0 23 65 26 54 31 1 0 0 0 0 0 0 0 0 0 5 14 9 20 25 58 32 35 29 8 0 0 0 0 0 0 0 0 0
0 0 0 0 0 0 0 0 0 0 0 0 0 0 0 2 25 64 30 60 52 19 0 0 9 12 19 20 36 40 112 130 65 15 52 59 1 5 11 0 0 0 0 0 0 0 0 0 0

GFSSGP_con_mlcape_051.txt.gz
CAPE
0 0 0 0 0 0 0 0 0 0 6 34 111 177 247 420 496 327 413 263 893 1329 1300 1040 616 464 432 368 102 27 253 647 814 476 318 260 167 73 12 0 5 38 19 4 6 9 10 5 0
0 0 0 0 0 0 0 0 0 3 52 106 296 309 229 186 501 798 359 350 922 1341 1108 1024 928 570 388 348 247 105 177 720 834 505 349 271 147 37 2 4 32 58 24 1 1 0 0 0 0
0 0 0 0 0 0 0 0 0 3 43 97 399 500 368 212 317 513 518 540 757 849 877 533 486 416 159 193 147 173 484 598 759 655 321 192 99 5 0 0 27 41 17 0 0 0 0 0 0
0 0 0 0 0 0 0 0 0 8 10 65 428 326 273 430 698 783 622 446 634 614 816 765 472 467 237 192 216 333 486 584 865 751 276 168 46 0 0 0 3 20 0 0 0 0 0 0 0
0 0 0 0 0 0 0 0 0 27 29 13 21 14 273 312 555 846 726 448 387 431 415 507 273 359 215 198 80 303 532 557 769 620 280 204 47 0 0 0 0 0 0 0 0 0 0 0 0
0 0 0 0 0 0 0 0 5 70 45 19 7 1 0 296 373 498 618 745 649 474 120 200 177 89 234 248 91 60 480 554 487 575 342 216 35 0 0 0 0 0 0 0 0 0 0 0 0
0 0 0 0 0 0 0 0 14 22 20 55 22 58 1 211 243 408 530 795 540 454 444 62 95 10 98 65 56 43 456 446 418 439 430 280 88 0 0 0 0 0 0 0 0 0 0 0 0
0 0 0 0 0 0 0 9 19 15 24 169 204 83 35 226 179 457 530 541 373 347 506 305 2 1 1 2 0 122 406 466 403 477 559 277 53 0 0 0 0 0 0 0 0 0 0 0 0
0 0 0 0 0 0 1 11 2 3 24 37 18 19 183 251 222 325 330 240 259 227 318 233 2 0 1 0 0 61 446 469 444 506 579 206 8 0 0 0 0 0 0 0 0 0 0 0 0
0 0 0 0 0 0 0 0 0 0 0 0 6 75 171 118 131 273 199 170 150 164 164 68 9 3 0 0 0 1 61 239 414 458 296 51 0 0 0 0 0 0 0 0 0 0 0 0 0
0 0 0 0 0 0 0 0 0 2 0 0 0 0 7 36 49 64 147 73 26 22 25 17 1 3 3 1 0 0 0 46 134 187 149 27 0 0 0 0 0 0 0 0 0 0 0 0 0
0 0 0 0 0 0 0 5 5 0 0 0 0 7 15 1 13 5 2 14 6 2 2 1 2 1 1 1 0 0 0 0 46 103 81 9 0 0 0 0 0 0 0 0 0 0 0 0 0
0 0 0 0 0 0 0 8 9 0 13 9 2 19 28 10 3 2 2 1 1 4 2 2 3 2 0 1 2 0 2 0 40 76 7 0 0 0 0 0 0 0 0 0 0 0 0 0 0
0 0 0 0 0 0 0 0 0 0 14 0 0 10 13 0 2 9 5 3 2 0 1 2 5 3 0 0 0 10 0 10 3 0 0 0 0 0 0 0 0 0 0 0 0 0 0 0 0
0 0 0 0 0 0 0 0 0 0 3 0 0 0 0 0 0 2 1 0 1 1 0 2 4 7 0 0 1 3 0 0 0 0 0 0 0 0 0 0 0 0 0 0 0 0 0 0 0
0 0 0 0 0 0 0 0 0 0 2 6 0 0 0 0 0 0 1 0 0 1 1 1 1 0 0 0 0 1 0 0 32 0 0 0 0 0 0 0 0 0 0 0 0 0 0 0 0
0 0 0 0 0 0 0 0 0 0 1 3 0 0 0 0 0 0 0 0 1 1 2 0 1 0 0 0 0 2 0 6 32 13 9 17 17 12 15 10 13 8 2 0 0 0 0 0 0
0 0 0 0 0 0 0 0 0 0 0 0 0 0 0 0 0 0 0 0 0 1 2 2 1 1 0 0 0 0 0 2 20 9 30 46 52 68 56 51 73 35 8 0 0 0 0 0 0
0 0 0 0 0 0 0 0 0 0 0 0 0 0 0 0 0 0 0 0 0 0 0 1 0 0 0 0 0 2 0 4 11 2 1 14 31 94 147 123 58 49 21 0 0 0 0 0 0
0 0 0 0 0 0 0 0 0 0 0 0 0 0 0 0 0 0 0 0 0 0 0 0 1 0 0 2 6 0 0 0 0 1 0 0 1 1 52 86 100 81 23 0 0 0 0 0 0
0 0 0 0 0 0 0 0 0 0 0 0 0 0 0 0 0 0 0 0 0 0 0 0 0 0 0 0 0 0 0 0 0 0 0 0 0 0 0 54 82 58 0 0 0 0 0 0 0
0 0 0 0 0 0 0 0 0 0 0 0 0 0 0 0 0 0 0 0 0 0 0 0 0 0 0 0 0 0 0 0 0 0 0 0 0 0 0 0 7 34 29 0 0 0 0 0 0
0 0 0 0 0 0 0 0 0 0 0 0 0 0 0 0 0 0 0 0 0 0 0 0 0 0 0 0 0 0 0 0 0 0 0 0 0 0 0 0 0 0 3 0 0 0 0 0 0
0 0 0 0 0 0 0 0 0 0 0 0 0 0 0 0 0 0 0 0 0 0 0 0 0 0 0 0 0 0 0 0 0 0 0 0 0 0 0 0 14 15 8 0 0 0 0 0 0
0 0 0 0 0 0 0 0 0 0 0 0 0 0 0 0 0 0 0 0 0 0 0 0 0 0 0 0 0 0 0 0 0 0 0 0 0 0 0 0 2 2 0 0 0 0 0 0 0
0 0 0 0 0 0 0 0 0 0 0 0 0 4 0 0 0 0 0 0 0 0 0 0 0 0 0 0 0 0 0 0 0 0 0 0 0 0 0 1 0 2 2 28 0 0 0 0 0
0 0 0 0 0 0 0 0 0 0 0 0 0 0 8 0 0 0 0 0 0 0 0 0 0 0 0 0 0 0 0 0 0 0 0 0 0 0 0 0 1 0 0 0 0 0 0 0 0
0 0 0 0 0 0 0 0 0 0 0 0 0 0 0 0 0 0 3 0 0 0 0 0 0 0 0 0 0 0 0 0 0 0 0 0 0 0 0 0 0 0 0 0 0 0 0 0 0
0 0 0 0 0 0 0 0 0 0 0 0 0 0 0 0 0 0 0 1 0 0 0 0 0 0 0 0 0 0 0 0 0 0 0 0 0 5 1 0 0 0 0 0 0 0 0 0 0
0 0 0 0 0 0 0 0 0 0 0 0 0 0 0 0 0 2 3 13 10 0 0 0 0 0 0 0 0 0 0 0 0 0 0 7 7 1 1 0 0 0 0 0 0 0 0 0 0

GFSSGP_con_mlcape_054.txt.gz
CAPE
0 0 0 0 0 0 0 0 0 0 0 6 86 126 174 298 200 158 374 338 1025 1228 1234 968 564 403 337 231 551 818 713 592 610 567 423 333 168 28 74 74 51 33 24 17 10 7 6 4 2
0 0 0 0 0 0 0 0 0 0 0 8 80 170 126 138 396 692 410 375 1007 1369 1267 992 741 698 571 476 372 846 1076 636 516 418 374 274 81 88 112 94 68 82 75 40 38 36 3 1 1
0 0 0 0 0 0 0 0 0 0 0 8 47 283 241 111 230 456 417 467 999 1391 1203 972 748 825 595 614 554 733 642 345 534 352 329 227 106 125 145 83 84 78 51 37 11 11 1 0 0
0 0 0 0 0 0 0 0 0 0 0 0 87 66 108 225 416 585 738 651 1041 1075 1088 1003 699 638 894 933 1102 1091 1077 663 425 320 318 188 79 150 116 67 36 22 0 0 0 1 0 0 0
0 0 0 0 0 0 0 0 0 0 0 0 0 0 79 84 300 582 757 465 1077 929 1002 898 829 816 944 917 971 986 1016 655 304 223 247 162 70 73 89 76 19 0 0 0 0 0 0 0 0
0 0 0 0 0 0 0 0 0 0 8 14 0 0 0 100 233 329 570 591 399 519 395 573 745 414 303 357 553 502 841 640 339 178 243 168 97 84 117 4 0 0 0 0 0 0 0 0 0
0 0 0 0 0 0 0 0 0 0 0 5 0 12 0 32 131 229 436 507 660 384 255 171 303 329 89 9 0 26 258 512 327 196 254 198 166 81 12 0 0 0 0 0 0 0 0 0 0
0 0 0 0 0 0 0 0 0 0 0 77 21 69 8 99 184 496 447 711 682 535 206 52 86 38 1 3 0 0 205 364 321 199 266 238 186 82 0 0 0 0 0 0 0 0 0 0 0
0 0 0 0 0 0 0 0 0 0 15 45 149 33 135 108 221 296 299 517 420 301 34 4 1 2 1 0 0 19 19 63 250 290 236 213 123 0 0 0 0 0 0 0 0 0 0 0 0
0 0 0 0 0 0 0 0 0 0 0 6 11 24 84 74 90 145 183 201 276 124 10 0 0 0 0 1 4 12 27 104 225 273 266 141 29 0 0 0 0 0 0 0 0 0 0 0 0
0 0 0 0 0 0 0 0 0 0 0 0 0 0 38 38 54 84 84 98 95 110 3 3 2 1 1 1 0 1 0 66 173 213 248 107 6 0 0 0 0 0 0 0 0 0 0 0 0
0 0 0 0 0 0 0 0 0 0 0 5 0 10 35 37 29 40 70 44 36 30 5 3 3 2 1 0 0 0 0 14 61 147 207 89 4 6 0 0 0 0 0 0 0 0 0 0 0
0 0 0 0 0 0 0 0 0 0 1 6 12 36 26 19 1 14 25 18 10 8 4 3 4 3 0 0 0 0 0 8 67 93 111 93 24 2 0 0 0 0 0 0 0 0 0 0 0
0 0 0 0 0 0 0 0 0 0 9 0 0 27 34 9 0 0 3 13 18 7 5 2 1 2 0 0 0 0 0 0 26 66 74 73 11 0 2 0 0 0 0 0 0 0 0 0 0
0 0 0 0 0 0 0 0 0 0 0 0 0 17 17 2 0 0 1 0 1 0 0 2 3 1 0 0 0 0 0 0 0 14 41 46 0 5 4 0 0 0 0 0 0 0 0 0 0
0 0 0 0 0 0 0 0 0 0 0 0 0 0 0 0 0 1 0 0 0 0 0 0 3 2 0 0 0 0 2 0 1 27 4 23 3 2 2 0 0 0 0 0 0 0 0 0 0
0 0 0 0 0 0 0 0 0 0 0 0 0 0 0 0 1 0 0 0 0 0 1 0 1 2 2 2 3 2 2 13 13 0 15 24 6 3 3 1 0 0 0 0 0 0 0 0 0
0 0 0 0 0 0 0 0 0 0 0 0 0 0 0 0 0 0 0 0 0 1 1 0 0 2 2 0 0 2 8 12 2 8 14 21 18 9 14 5 2 4 0 0 0 0 0 0 0
0 0 0 0 0 0 0 0 0 0 0 0 0 0 0 0 0 0 0 0 0 0 1 0 1 1 0 0 0 20 3 0 6 21 19 26 26 23 39 32 29 14 0 1 0 0 0 0 0
0 0 0 0 0 0 0 0 0 0 0 0 0 0 0 0 0 0 0 0 0 0 0 0 1 1 0 0 0 0 0 2 3 19 45 54 72 105 110 66 105 65 0 0 0 0 0 0 0
0 0 0 0 0 0 0 0 0 0 0 0 0 0 0 0 0 0 0 0 0 0 0 3 0 0 1 0 0 0 1 1 5 0 7 19 29 14 45 59 67 46 3 10 0 0 0 0 0
0 0 0 0 0 0 0 0 0 0 0 0 0 0 0 0 0 0 0 0 0 0 0 0 0 0 0 0 0 0 0 0 0 0 0 0 1 0 0 5 32 44 28 11 1 0 0 0 0
0 0 0 0 0 0 0 0 0 0 0 0 0 0 0 0 0 0 0 0 0 0 0 0 0 0 0 0 0 0 0 0 0 0 0 0 0 0 0 0 0 0 0 15 10 0 0 0 0
0 0 0 0 0 0 0 0 0 0 0 0 0 0 0 0 0 0 0 0 0 0 0 0 0 0 0 0 0 0 0 0 0 0 0 0 0 0 0 0 0 0 0 0 0 0 0 0 0
0 0 0 0 0 0 0 0 0 0 0 0 0 0 0 0 0 0 0 0 0 0 0 0 0 0 0 0 0 0 0 0 0 0 0 0 0 0 0 0 0 0 0 0 0 2 0 0 0
0 0 0 0 0 0 0 0 0 0 0 0 0 0 0 0 0 0 0 0 0 0 0 0 0 0 0 0 0 0 0 0 0 0 0 0 0 0 0 0 0 0 0 0 2 10 0 0 0
0 0 0 0 0 0 0 0 0 0 0 0 0 0 0 0 0 0 0 0 0 0 0 0 0 0 0 0 0 0 0 0 0 0 0 0 0 0 0 0 0 0 0 1 6 1 3 0 0
0 0 0 0 0 0 0 0 0 0 0 0 0 0 0 0 0 0 0 0 0 0 0 0 0 0 0 0 0 0 0 0 0 0 0 0 0 0 0 0 0 0 3 5 3 0 0 0 0
0 0 0 0 0 0 0 0 0 0 0 0 0 0 0 0 0 0 0 0 0 0 0 0 0 0 0 0 0 0 0 0 0 0 0 0 0 0 0 0 0 0 0 0 0 0 0 1 0
0 0 0 0 0 0 0 0 0 0 0 0 0 0 0 0 0 0 0 0 0 0 0 0 0 0 0 0 0 0 0 0 0 0 0 0 0 0 0 0 0 0 0 0 0 0 0 0 0

GFSSGP_con_mlcape_057.txt.gz
CAPE
0 0 0 0 0 0 0 0 0 0 0 0 35 50 41 127 146 79 283 467 802 770 468 690 788 1074 1138 1321 1394 1236 1118 952 657 660 490 418 240 134 60 21 7 3 3 6 11 10 13 17 13
0 0 0 0 0 0 0 0 0 0 0 0 18 80 66 46 278 639 399 381 805 902 789 966 775 889 1262 1289 1303 1258 1093 733 635 502 402 212 191 133 57 7 5 0 2 4 6 6 7 10 4
0 0 0 0 0 0 0 0 0 0 0 0 1 147 222 44 97 342 260 336 959 1374 1213 1168 1106 816 1145 1262 1275 1251 1111 952 767 572 341 179 193 181 122 95 53 13 19 29 8 2 4 2 0
0 0 0 0 0 0 0 0 0 0 0 0 17 6 102 122 243 513 690 531 895 1388 1384 1337 889 737 1030 1386 1421 1194 1091 861 601 498 226 250 221 187 98 85 88 66 88 34 1 1 1 0 0
0 0 0 0 0 0 0 0 0 0 0 0 0 0 0 44 166 390 633 467 1036 1056 1164 1246 843 662 871 1136 1421 1148 1018 793 586 392 246 218 242 131 87 127 68 21 65 45 0 0 0 0 0
0 0 0 0 0 0 0 0 0 0 4 0 0 0 0 39 82 211 375 636 617 669 546 600 771 686 539 583 1233 1039 908 709 557 285 215 258 145 78 70 72 12 2 66 50 0 0 0 0 0
0 0 0 0 0 0 0 0 0 0 0 2 0 0 0 7 80 239 367 497 557 417 344 341 227 451 327 375 893 888 688 725 534 237 184 175 94 75 101 4 5 12 32 2 0 0 0 0 0
0 0 0 0 0 0 0 0 0 0 2 22 35 13 8 53 208 469 462 365 604 548 321 285 221 44 21 108 148 246 396 439 432 191 122 94 89 63 21 0 0 116 72 0 0 0 0 0 0
0 0 0 0 0 0 0 0 0 0 1 25 122 42 81 55 172 301 365 343 274 308 208 91 110 4 23 5 1 0 232 188 356 232 149 106 96 2 0 0 9 81 53 0 0 0 0 0 0
0 0 0 0 0 0 0 0 0 0 0 1 9 21 41 44 59 176 249 235 121 114 108 27 69 28 48 23 3 10 9 91 206 237 186 113 33 0 0 0 0 13 15 0 0 0 0 0 0
0 0 0 0 0 0 0 0 0 0 0 0 0 0 30 27 36 64 98 137 69 26 1 0 0 1 1 1 2 3 9 45 44 224 126 46 7 0 0 0 0 8 13 19 4 0 0 0 0
0 0 0 0 0 0 0 0 0 0 0 0 0 0 12 13 29 38 61 91 59 0 1 3 3 2 2 1 2 0 2 21 48 217 101 17 2 0 0 0 0 0 0 0 13 0 0 0 0
0 0 0 0 0 0 0 0 0 0 0 0 0 0 4 10 1 0 0 40 40 10 0 1 4 3 2 1 1 0 10 45 28 175 74 7 0 0 0 0 0 0 0 0 0 0 0 0 0
0 0 0 0 0 0 0 0 0 0 0 0 0 0 0 2 1 0 1 37 48 11 1 3 4 2 0 0 0 8 24 16 43 117 57 5 3 0 0 0 0 0 0 0 0 0 0 0 0
0 0 0 0 0 0 0 0 0 0 0 0 0 0 0 0 0 0 1 1 8 2 2 3 3 2 0 0 0 2 0 6 40 102 90 9 23 1 0 0 0 0 0 0 0 0 0 0 0
0 0 0 0 0 0 0 0 0 0 0 0 0 0 0 0 0 0 1 0 1 0 2 3 2 0 0 0 0 0 0 0 17 64 84 16 4 6 3 0 0 0 0 0 0 0 0 0 0
0 0 0 0 0 0 0 0 0 0 0 0 0 0 0 0 0 0 1 0 1 2 0 2 2 2 3 0 0 0 0 0 0 7 41 32 1 3 6 1 0 0 0 0 0 0 0 0 0
0 0 0 0 0 0 0 0 0 0 0 0 0 0 0 0 0 0 1 2 1 1 2 0 1 2 3 0 0 2 1 0 0 0 8 19 10 15 11 7 0 0 7 0 0 0 0 0 0
0 0 0 0 0 0 0 0 0 0 0 0 0 0 0 0 0 0 0 2 2 1 1 1 1 2 3 2 3 1 0 0 6 3 16 13 22 21 19 19 8 3 3 3 2 0 0 0 0
0 0 0 0 0 0 0 0 0 0 0 0 0 0 0 0 0 0 0 1 2 2 1 2 2 1 2 3 6 4 0 0 9 32 34 37 41 31 42 35 22 25 9 4 3 0 0 0 0
0 0 0 0 0 0 0 0 0 0 0 0 0 0 0 0 0 0 0 1 3 2 3 1 2 2 2 4 4 2 1 0 2 7 23 34 55 81 69 62 71 76 37 36 20 0 0 0 0
0 0 0 0 0 0 0 0 0 0 0 0 0 0 0 0 0 0 0 0 2 1 4 6 1 1 2 1 1 0 0 0 0 2 6 3 41 63 106 100 61 70 42 40 19 1 0 0 0
0 0 0 0 0 0 0 0 0 0 0 0 0 0 0 0 0 0 0 0 0 2 1 4 2 1 0 1 0 0 0 0 4 0 5 5 16 18 20 22 23 15 46 64 35 5 0 0 0
0 0 0 0 0 0 0 0 0 0 0 0 0 0 0 0 0 0 0 0 0 0 2 3 2 0 0 0 0 0 0 0 0 0 2 1 0 0 5 1 6 5 32 37 37 49 13 0 0
0 0 0 0 0 0 0 0 0 0 0 0 0 0 0 0 0 0 0 0 0 0 0 2 1 1 0 0 0 0 0 0 0 0 0 0 0 0 0 0 0 0 0 0 0 0 3 5 4
0 0 0 0 0 0 0 0 0 0 0 0 0 0 0 0 0 0 0 0 0 0 0 0 0 0 0 0 0 0 0 0 0 0 0 0 0 0 0 0 0 0 0 0 0 0 0 0 0
0 0 0 0 0 0 0 0 0 0 0 0 0 0 0 0 0 0 0 0 0 0 0 0 0 0 0 0 0 0 0 0 0 0 0 0 0 0 0 0 0 0 0 0 0 0 0 0 0
0 0 0 0 0 0 0 0 0 0 0 0 0 0 0 0 0 0 0 0 0 0 0 0 0 0 0 0 0 0 0 0 0 0 0 0 0 0 0 0 0 0 0 0 0 0 0 0 0
0 0 0 0 0 0 0 0 0 0 0 0 0 0 0 0 0 0 0 0 0 0 0 0 0 0 0 0 0 0 0 0 0 0 0 0 0 0 0 0 0 0 0 0 0 0 1 0 0
0 0 0 0 0 0 0 0 0 0 0 0 0 0 0 0 0 0 0 0 0 0 0 0 0 0 0 0 0 0 0 0 0 0 0 0 0 0 0 0 0 0 0 0 0 0 0 0 0

GFSSGP_con_mlcape_060.txt.gz
CAPE
0 0 0 0 0 0 0 0 0 0 0 0 20 35 51 90 57 64 607 773 1004 1130 1290 789 1118 1578 1788 1487 1230 1215 1111 1069 769 796 832 840 689 641 451 183 46 30 36 17 8 3 11 9 1
0 0 0 0 0 0 0 0 0 0 0 0 38 40 100 45 203 606 716 910 804 1339 1404 1000 935 1493 1832 1683 1529 1396 1263 1083 889 895 738 832 643 429 218 40 8 4 4 10 7 5 4 8 0
0 0 0 0 0 0 0 0 0 0 0 0 2 79 126 189 179 553 564 673 738 1375 1060 1044 867 1080 1623 1782 1686 1485 1394 1191 1037 943 741 641 447 238 80 9 0 0 0 3 5 7 12 5 0
0 0 0 0 0 0 0 0 0 0 0 0 1 19 207 330 428 660 774 728 1138 1302 1069 1044 988 1131 1591 1800 1776 1613 1395 1172 1057 824 731 598 423 183 59 2 0 5 3 2 5 9 7 0 0
0 0 0 0 0 0 0 0 0 0 0 3 9 0 7 287 332 404 709 789 1033 1137 1514 1083 1073 745 1239 1781 1814 1623 1404 1226 909 726 727 640 519 367 70 38 18 39 0 1 2 6 1 0 0
0 0 0 0 0 0 0 0 0 0 0 32 26 2 0 204 249 449 574 768 993 1107 948 1043 857 485 865 1409 1580 1490 1294 1111 812 777 742 654 597 340 158 95 115 84 0 0 0 2 0 0 0
0 0 0 0 0 0 0 0 0 0 0 9 29 0 47 242 290 627 741 779 972 948 655 643 451 165 234 413 989 625 1091 939 764 776 735 666 485 333 174 92 139 82 0 0 0 0 0 0 0
0 0 0 0 0 0 0 0 0 0 0 66 52 2 5 513 453 687 765 592 952 862 387 469 280 164 81 84 244 327 465 699 653 708 723 474 290 199 45 34 108 79 0 0 0 0 0 0 0
0 0 0 0 0 0 0 0 0 0 0 42 142 107 360 298 315 507 671 520 379 733 527 432 228 127 109 77 98 321 518 550 446 605 546 325 239 142 31 2 83 80 0 0 0 0 0 0 0
0 0 0 0 0 0 0 0 0 0 0 5 37 246 338 257 224 357 373 553 228 237 185 224 144 121 98 63 50 107 235 290 347 392 380 218 233 110 0 24 64 13 0 0 0 0 0 0 0
0 0 0 0 0 0 0 0 0 0 0 0 0 7 282 296 221 69 165 236 145 185 72 79 49 33 21 43 17 5 4 18 58 91 205 201 201 30 27 89 106 59 0 0 0 0 0 0 0
0 0 0 0 0 0 0 0 0 0 0 0 0 29 263 176 27 38 62 105 96 83 78 3 48 3 16 39 5 17 31 18 26 29 115 219 75 70 32 60 42 6 1 0 0 0 0 0 0
0 0 0 0 0 0 0 0 0 0 0 0 20 51 148 25 0 0 2 3 34 24 3 2 3 8 4 1 1 1 2 38 49 18 116 199 122 62 21 26 24 35 83 43 6 0 1 0 0
0 0 0 0 0 0 0 0 0 0 0 37 40 61 78 45 0 0 3 3 10 19 18 3 4 5 6 4 2 2 6 6 49 24 174 172 111 55 27 4 0 0 23 41 7 0 0 0 0
0 0 0 0 0 0 0 0 0 0 2 27 65 70 58 31 0 0 2 6 0 13 8 4 2 3 6 6 2 4 0 21 7 33 124 124 85 48 31 4 0 0 1 0 0 0 0 0 0
0 0 0 0 0 0 0 0 0 0 0 9 49 39 38 32 0 0 1 0 6 6 0 4 4 1 7 4 4 1 1 23 36 54 119 106 80 52 29 11 1 0 0 0 0 0 0 0 0
0 0 0 0 0 0 0 0 0 0 0 0 9 47 29 0 0 0 0 3 0 2 5 2 3 2 1 0 0 2 0 3 36 42 94 89 61 46 18 6 26 18 0 0 0 0 0 0 0
0 0 0 0 0 0 0 0 0 0 0 0 1 37 79 9 0 0 0 0 3 8 2 4 2 3 1 0 0 0 0 0 1 32 103 59 48 67 30 19 53 42 1 1 0 0 0 0 0
0 0 0 0 0 0 0 0 0 0 0 0 22 48 69 58 0 0 0 0 3 2 5 1 2 2 2 1 0 1 0 0 0 24 37 71 67 87 75 66 66 55 47 45 31 6 0 0 0
0 0 0 0 0 0 0 0 0 0 0 0 19 64 79 104 0 0 0 0 0 5 10 1 1 2 2 2 0 0 4 1 1 11 30 67 94 90 88 72 62 52 89 87 67 25 16 2 0
0 0 0 0 0 0 0 0 0 0 0 0 0 19 55 100 32 0 0 0 0 1 1 11 10 2 2 0 3 12 21 2 6 3 6 37 103 153 79 81 101 95 92 131 137 98 78 68 5
0 0 0 0 0 0 0 0 0 0 0 0 0 10 16 63 41 0 0 0 0 0 4 10 19 10 4 4 3 4 0 0 0 0 5 38 71 114 108 80 131 154 154 132 170 185 158 148 122
0 0 0 0 0 0 0 0 0 0 0 0 0 0 8 0 43 3 0 0 0 0 1 5 10 6 2 4 3 2 0 0 0 0 1 50 46 84 92 101 156 192 160 145 157 135 128 148 122
0 0 0 0 0 0 0 0 0 0 0 0 0 0 0 0 13 22 0 0 0 0 0 2 2 7 3 3 3 2 2 0 0 0 0 3 12 32 40 51 83 156 87 31 8 34 169 179 144
0 0 0 0 0 0 0 0 0 0 0 0 0 0 0 0 7 20 2 0 0 0 0 0 2 2 5 3 3 2 4 1 0 0 0 0 1 6 6 25 79 50 3 0 1 12 72 109 113
0 0 0 0 0 0 0 0 0 0 0 0 0 0 0 0 5 28 19 0 0 0 0 0 0 2 6 7 4 3 5 2 0 0 0 0 0 0 0 0 8 13 4 9 44 43 41 69 79
0 0 0 0 0 0 1 0 0 0 0 0 0 0 0 0 2 31 50 25 3 0 0 0 0 0 3 2 3 2 3 6 2 0 0 0 0 0 0 0 0 18 31 31 46 45 15 44 61
0 0 0 0 0 1 0 0 0 0 0 0 0 0 0 0 0 35 82 57 32 0 0 0 0 0 0 1 5 5 4 5 7 5 0 0 0 0 0 0 0 0 6 14 24 31 18 23 26
0 0 0 0 0 0 0 1 0 0 0 0 0 0 0 0 17 78 95 87 65 34 0 0 0 0 0 0 0 0 0 2 8 5 4 1 0 0 0 0 0 0 0 0 9 4 0 4 4
0 1 0 0 0 0 1 0 0 0 0 0 0 0 0 0 0 38 129 123 51 56 23 4 0 0 0 0 0 0 0 0 0 0 0 1 0 0 0 0 0 0 0 0 0 0 1 3 11

GFSSGP_con_mlcape_063.txt.gz
CAPE
0 0 0 0 0 0 0 0 0 0 0 0 0 0 2 0 0 41 860 992 1341 1493 1626 947 1189 1708 1830 1519 1346 1301 1026 958 833 733 671 804 580 706 744 387 321 306 198 131 138 66 9 8 1
0 0 0 0 0 0 0 0 0 0 0 0 0 0 0 14 18 56 804 1114 1141 1476 1498 1144 1115 1591 1728 1548 1322 1447 1292 1158 897 973 946 883 839 822 535 305 250 220 71 20 31 28 10 1 0
0 0 0 0 0 0 0 0 0 0 0 0 0 0 0 4 133 353 876 1003 1131 1516 1519 1399 997 1326 1615 1530 1520 1446 1457 1211 1113 1007 1041 1026 956 687 346 204 164 86 5 7 15 19 11 0 0
0 0 0 0 0 0 0 0 0 0 0 0 0 0 56 325 351 764 774 830 990 1489 1609 1392 1049 908 1495 1475 1511 1151 1414 1267 1209 1201 1171 1034 817 513 247 135 99 21 5 12 6 11 3 0 0
0 0 0 0 0 0 0 0 0 0 0 0 0 0 13 351 354 442 630 832 958 1413 1728 1173 982 743 964 1167 1027 1013 1159 1203 1166 1205 1039 916 655 315 120 51 12 5 3 9 10 10 0 0 0
0 0 0 0 0 0 0 0 0 0 0 1 0 8 7 384 195 526 629 688 975 1271 1423 1426 987 680 612 785 753 575 804 1035 985 1088 909 832 476 204 95 144 55 0 0 4 6 0 0 0 0
0 0 0 0 0 0 0 0 0 0 0 0 8 0 12 376 438 546 774 1015 1000 1122 1089 1324 1302 510 156 78 1 299 803 948 990 971 874 697 403 195 239 204 55 0 0 0 0 0 0 0 0
0 0 0 0 0 0 0 0 0 0 0 0 0 0 8 774 661 720 722 801 807 975 653 903 604 274 136 6 126 25 58 711 864 888 826 600 362 343 370 206 72 0 0 0 0 0 0 0 0
0 0 0 0 0 0 0 0 0 0 0 0 0 2 175 511 380 555 697 784 767 861 769 726 252 119 11 12 7 22 23 223 481 729 616 515 210 331 249 182 90 0 0 0 0 0 0 0 0
0 0 0 0 0 0 0 0 0 0 0 0 0 0 199 304 294 299 336 331 738 271 715 531 301 154 64 24 24 0 2 223 373 497 378 162 272 329 158 208 49 0 0 0 0 0 0 0 0
0 0 0 0 0 0 0 0 0 0 0 0 0 0 6 366 398 277 189 209 310 308 201 301 260 283 146 65 29 17 31 187 326 322 301 201 179 134 161 161 24 0 0 0 0 0 0 0 0
0 0 0 0 0 0 0 0 0 0 0 0 0 0 1 295 300 143 104 40 346 125 64 130 107 89 80 68 19 11 20 43 105 208 131 98 89 75 129 133 30 0 0 0 0 0 0 0 0
0 0 0 0 0 0 0 0 0 0 0 0 0 0 54 257 150 99 27 12 46 59 35 49 100 47 69 46 42 33 16 1 13 43 32 67 102 95 111 149 98 1 6 0 0 4 0 0 0
0 0 0 0 0 0 0 0 0 0 0 0 0 0 81 223 110 106 15 0 8 20 30 20 3 14 9 10 16 13 18 7 1 3 20 49 121 138 134 122 114 79 66 15 0 18 2 0 0
0 0 0 0 0 0 0 0 0 0 0 0 18 29 84 180 129 78 0 20 4 8 17 1 4 0 2 2 2 2 2 4 4 0 15 27 129 159 198 224 231 168 115 65 40 2 0 0 0
0 0 0 0 0 0 0 0 0 0 0 0 7 31 76 230 190 45 0 5 7 9 5 2 2 0 5 2 3 2 4 5 16 31 18 2 116 124 162 143 136 112 114 78 24 0 0 1 0
0 0 0 0 0 0 0 0 0 0 0 0 0 31 38 98 159 36 0 0 17 6 76 3 2 1 5 9 4 6 3 2 2 8 20 25 136 115 133 99 89 54 42 47 25 2 3 1 0
0 0 0 0 0 0 0 0 0 0 0 0 0 0 38 73 55 32 0 0 0 10 11 5 2 2 0 5 4 11 6 2 1 0 39 91 75 89 85 91 81 33 18 13 19 3 0 1 0
0 0 0 0 0 0 0 0 0 0 0 0 0 0 29 86 92 10 0 0 0 3 13 5 2 2 0 3 1 1 5 5 8 5 41 61 49 71 60 91 127 118 38 23 35 10 0 0 0
0 0 0 0 0 0 0 0 0 0 0 0 0 5 8 44 90 0 0 0 0 0 4 2 3 2 1 0 1 4 2 2 1 1 33 66 61 130 98 112 134 158 115 103 76 68 38 2 0
0 0 0 0 0 0 0 0 0 0 0 0 0 0 2 23 98 29 0 0 0 0 2 2 3 2 1 0 0 10 3 3 0 4 10 25 63 105 143 171 152 117 182 153 158 160 113 56 5
0 0 0 0 0 0 0 0 0 0 0 0 0 0 0 0 33 107 3 0 0 0 1 14 13 4 1 3 1 1 0 0 0 0 4 12 12 88 104 92 100 159 136 127 163 181 148 131 89
0 0 0 0 0 0 0 0 0 0 0 0 0 0 0 0 5 65 65 6 0 0 0 0 10 11 5 4 3 0 0 4 14 1 5 7 0 51 75 75 49 107 180 140 201 197 178 185 83
0 0 0 0 0 0 0 0 0 0 0 0 0 0 0 0 0 32 82 51 0 0 0 0 2 9 10 3 2 1 0 3 8 9 5 4 5 23 36 46 56 39 132 153 162 160 227 191 170
0 0 0 0 0 0 0 0 0 0 0 0 0 0 0 0 0 8 74 68 1 0 0 0 1 1 5 5 4 2 1 1 1 1 0 0 0 6 15 51 69 59 52 85 50 162 162 175 128
0 0 0 0 0 0 0 0 0 0 0 0 0 0 0 0 0 17 60 83 23 0 0 0 0 0 2 4 3 6 3 8 2 1 0 0 0 0 12 59 49 61 29 36 55 51 51 45 50
0 0 0 0 0 1 2 0 0 0 0 0 0 0 0 0 0 15 53 112 55 6 0 0 0 0 0 3 3 3 3 2 2 1 0 0 0 4 27 31 49 56 67 75 54 23 5 41 36
0 0 0 0 1 1 2 8 7 0 0 0 0 1 0 0 0 6 63 135 107 37 0 0 0 0 0 0 3 5 4 6 4 0 2 0 0 10 8 21 11 14 17 24 47 21 13 29 53
0 0 6 0 0 0 4 3 7 0 2 11 7 2 1 0 0 11 86 156 199 127 38 2 0 0 0 0 0 5 2 8 12 7 8 1 3 1 0 0 0 0 0 0 11 29 20 23 28
2 0 5 4 2 2 0 0 0 0 0 0 0 17 23 0 0 57 136 211 250 227 143 46 7 0 0 4 4 4 3 5 3 2 5 8 2 0 4 2 0 0 0 1 1 0 3 9 0

GFSSGP_con_mlcape_066.txt.gz
CAPE
0 0 0 0 0 0 0 0 0 0 0 0 0 0 0 0 0 222 889 1081 1356 1671 1476 958 1231 1707 1544 1296 1258 1228 1083 893 693 579 729 594 416 433 665 671 610 553 467 378 299 142 39 55 0
0 0 0 0 0 0 0 0 0 0 0 0 0 0 0 1 21 12 1186 1047 1128 1390 1690 1332 1136 1613 1737 1482 1285 1238 1224 1124 854 686 778 580 533 790 683 628 559 514 439 315 190 66 12 12 0
0 0 0 0 0 0 0 0 0 0 0 0 0 0 0 2 16 54 946 964 1065 1330 1573 1536 1065 1455 1814 1630 1299 1283 1232 1170 939 782 881 503 827 757 641 538 470 349 297 169 69 20 7 0 0
0 0 0 0 0 0 0 0 0 0 0 0 0 0 26 118 18 638 537 688 798 1225 1516 1337 1127 1147 1706 1760 1429 1215 1282 1173 1065 887 909 888 909 720 460 412 247 115 114 66 19 6 0 0 0
0 0 0 0 0 0 0 0 0 0 0 0 0 0 14 309 210 260 405 682 775 1141 1521 1295 1193 1050 1327 1493 1364 881 762 1073 710 1169 1187 965 861 581 360 297 153 54 23 52 10 1 0 0 0
0 0 0 0 0 0 0 0 0 0 0 0 0 1 8 426 91 464 560 542 798 925 1518 1576 1077 965 794 982 754 379 427 659 608 1137 1144 984 728 415 279 128 77 57 4 9 2 0 0 0 0
0 0 0 0 0 0 0 0 0 0 0 0 4 0 4 350 327 431 535 903 1034 1116 1225 1308 1383 908 416 412 315 66 6 48 445 1019 986 788 488 248 130 80 66 49 5 1 0 0 0 0 0
0 0 0 0 0 0 0 0 0 0 0 0 0 0 55 640 744 576 647 901 653 931 880 759 1049 769 335 197 83 80 3 26 84 719 692 513 360 281 179 63 39 7 5 0 0 0 0 0 0
0 0 0 0 0 0 0 0 0 0 0 0 0 0 220 798 368 472 592 818 679 765 831 656 665 375 269 98 17 5 2 0 5 554 439 371 332 346 149 64 14 0 0 0 0 0 0 0 0
0 0 0 0 0 0 0 0 0 0 0 0 0 0 149 120 199 220 250 720 898 510 597 762 380 115 62 12 66 125 25 0 0 286 287 318 417 375 180 72 5 0 0 0 0 0 0 0 0
0 0 0 0 0 0 0 0 0 0 0 0 0 0 36 405 247 262 263 133 738 561 398 384 314 150 64 90 73 47 0 0 85 198 231 360 366 232 184 29 0 0 0 0 0 0 0 0 0
0 0 0 0 0 0 0 0 0 0 0 0 0 0 0 80 156 223 83 62 377 221 109 150 101 138 70 44 36 29 10 0 38 157 174 248 185 66 147 0 0 0 0 0 0 0 0 0 0
0 0 0 0 0 0 0 0 0 0 0 0 0 0 0 36 137 103 100 84 95 31 0 29 12 9 10 39 13 12 1 6 27 103 107 118 94 107 82 0 0 0 0 0 0 0 0 0 0
0 0 0 0 0 0 0 0 0 0 0 0 0 0 6 37 134 39 99 2 83 24 0 0 12 5 9 6 2 5 0 21 24 13 39 36 67 113 103 4 0 2 0 0 0 0 0 0 0
0 0 0 0 0 0 0 0 0 0 0 0 0 0 0 136 128 51 1 10 83 2 2 0 1 3 1 11 14 8 3 0 1 0 21 21 32 109 95 79 7 19 0 0 0 12 0 0 0
0 0 0 0 0 0 0 0 0 0 0 0 0 0 0 156 177 59 0 7 37 50 15 0 0 1 2 4 2 2 3 1 0 0 4 10 20 78 88 64 78 92 18 76 3 5 0 0 0
0 0 0 0 0 0 0 0 0 0 0 0 0 4 15 67 275 108 0 0 29 15 11 1 2 1 0 0 2 2 2 2 1 1 0 0 8 33 74 52 87 119 86 98 35 5 0 0 1
0 0 0 0 0 0 0 0 0 0 0 0 0 0 33 6 106 129 0 0 19 4 11 0 2 3 4 0 0 3 5 14 3 2 0 3 3 38 55 36 61 66 11 60 33 16 25 3 2
0 0 0 0 0 0 0 0 0 0 0 0 0 0 0 26 51 85 0 0 0 9 1 3 2 1 0 0 2 1 1 1 2 0 0 0 8 28 34 39 40 44 51 25 31 35 3 6 0
0 0 0 0 0 0 0 0 0 0 0 0 1 2 0 13 64 92 0 0 0 12 3 4 4 0 0 0 0 3 1 1 0 1 0 0 7 12 7 22 52 55 48 18 14 5 0 0 0
0 0 0 0 0 0 0 0 0 0 0 0 0 0 2 18 40 78 0 0 0 23 0 2 3 0 0 1 1 7 2 2 1 0 3 0 3 5 10 55 41 52 92 36 27 33 1 2 0
0 0 0 0 0 0 0 0 0 0 0 0 0 0 0 0 22 98 6 0 0 2 0 0 1 1 0 0 2 0 2 1 0 1 0 0 1 16 14 37 44 44 119 91 67 52 89 69 13
0 0 0 0 0 0 0 0 0 0 0 0 0 0 0 0 0 105 49 0 0 1 2 0 0 1 1 2 2 0 1 1 0 1 0 0 0 15 27 66 59 137 30 116 100 92 107 152 80
0 0 0 0 0 0 0 0 0 0 0 0 0 0 0 0 0 4 131 5 0 3 4 0 0 1 3 2 1 0 0 0 0 0 0 0 0 1 20 45 55 72 53 72 67 40 36 82 77
0 0 0 1 0 0 0 0 0 0 0 0 0 0 0 0 0 0 100 71 0 3 14 0 0 3 2 4 1 1 0 0 0 0 0 0 0 0 0 17 40 24 21 68 67 42 26 46 52
0 0 0 1 0 0 0 0 0 0 0 0 0 0 0 0 0 0 36 126 7 0 10 4 0 1 4 2 3 0 0 0 0 0 0 0 0 0 0 0 7 19 27 17 53 39 17 3 5
0 0 0 0 0 0 0 0 13 0 0 0 0 0 0 0 0 0 6 168 51 0 0 0 0 0 2 4 2 4 0 0 0 0 0 0 0 0 0 0 2 4 25 32 10 9 0 0 5
0 0 0 0 0 0 23 2 5 5 0 0 0 2 2 0 1 0 0 198 164 0 0 9 0 0 0 2 3 3 6 5 1 0 0 0 0 0 0 0 8 5 12 28 23 17 1 1 5
0 0 0 0 0 0 0 1 52 0 3 8 0 0 0 0 0 13 24 207 282 97 7 10 0 0 0 0 1 3 5 4 6 1 0 0 0 0 0 0 6 16 33 33 11 3 0 1 1
0 0 0 0 0 0 0 9 0 0 0 0 0 0 3 6 0 6 63 170 345 255 76 17 0 0 0 0 0 0 3 5 8 4 4 2 0 0 0 0 3 0 0 8 10 9 12 11 2

GFSSGP_con_mlcape_069.txt.gz
CAPE
0 0 0 0 0 0 0 0 0 0 0 0 0 0 0 0 1 111 836 903 1654 1350 995 1594 1536 1095 1130 1077 1039 1072 845 805 803 591 353 387 294 225 211 354 744 690 576 292 23 51 48 181 90
0 0 0 0 0 0 0 0 0 0 0 0 0 0 0 0 476 1010 1008 998 1296 1484 1115 1041 1742 1506 1323 1235 1123 1115 1013 980 976 727 481 438 499 596 682 812 764 693 531 467 214 89 50 34 27
0 0 0 0 0 0 0 0 0 0 0 0 0 0 0 0 7 663 848 830 928 1113 1400 1165 1262 1732 1588 1414 1249 1260 1175 988 1040 846 592 558 674 823 746 690 595 605 525 386 242 46 13 0 0
0 0 0 0 0 0 0 0 0 0 0 0 0 0 7 2 42 638 603 587 784 779 1432 1425 1097 1519 1835 1590 1405 1300 1208 1045 971 904 820 878 964 997 712 535 551 522 507 298 89 37 0 0 0
0 0 0 0 0 0 0 0 0 0 0 0 0 0 7 184 316 213 497 546 662 1036 1270 1387 1227 1346 1429 1476 1548 1197 1157 1105 997 813 881 980 1053 901 613 448 434 460 275 65 39 1 0 0 0
0 0 0 0 0 0 0 0 0 0 0 0 0 0 27 105 47 305 359 399 679 1298 1346 1234 1064 1259 1165 997 1222 996 745 725 663 484 693 210 917 676 506 370 359 314 88 30 8 0 0 0 0
0 0 0 0 0 0 0 0 0 0 0 0 0 0 56 82 328 332 379 604 806 1112 1171 1308 1159 849 747 723 590 171 142 100 214 287 110 169 617 452 400 256 136 86 34 4 3 0 0 0 0
0 0 0 0 0 0 0 0 0 0 0 0 0 0 13 191 247 233 574 733 754 888 862 726 1042 760 340 203 56 97 92 7 0 18 206 402 461 339 326 247 97 41 20 5 0 0 0 0 0
0 0 0 0 0 0 0 0 0 0 0 0 0 0 10 393 483 179 575 625 524 538 621 523 677 596 267 80 28 46 54 64 12 0 2 298 396 263 196 112 63 15 6 0 0 0 0 0 0
0 0 0 0 0 0 0 0 0 0 0 0 0 13 619 529 150 101 379 545 632 576 710 610 466 206 84 51 7 0 0 31 0 0 1 145 251 104 116 55 34 5 3 0 0 0 0 0 0
0 0 0 0 0 0 0 0 0 0 0 0 0 26 99 50 57 66 92 167 644 542 525 528 271 59 6 7 0 0 3 0 0 0 0 194 140 74 42 16 8 0 0 0 0 0 0 0 0
0 0 0 0 0 0 0 0 0 0 0 0 0 0 37 94 96 87 90 271 566 382 197 224 189 63 22 16 1 0 0 0 0 0 0 180 95 45 3 1 0 0 0 0 0 0 0 0 0
0 0 0 0 0 0 0 0 0 0 0 0 0 0 0 30 55 47 34 113 189 129 77 72 13 68 0 0 0 0 0 0 0 4 20 127 77 11 0 0 0 0 0 0 0 0 0 0 0
0 0 0 0 0 0 0 0 0 0 0 0 0 0 0 0 40 11 11 8 22 32 0 7 5 2 0 0 0 0 0 0 4 57 76 65 77 0 0 0 0 0 0 0 0 0 0 0 0
0 0 0 0 0 0 0 0 0 0 0 0 0 0 0 0 55 14 0 0 39 34 0 1 3 0 0 4 0 0 1 3 19 35 32 44 52 1 0 0 0 0 0 0 0 0 0 0 0
0 0 0 0 0 0 0 0 0 0 0 0 0 0 0 0 56 9 0 0 6 2 0 1 1 0 0 0 1 0 0 1 12 29 4 20 44 3 0 0 0 0 0 0 0 0 0 0 0
0 0 0 0 0 0 0 0 0 0 0 0 0 0 0 0 42 17 0 0 0 1 0 0 0 1 0 0 1 0 0 0 1 1 0 6 9 21 5 0 0 3 0 0 0 0 0 0 0
0 0 0 0 0 0 0 0 0 0 0 0 0 0 0 0 21 9 0 0 0 0 0 0 2 2 0 1 3 1 5 1 1 0 1 8 2 3 7 12 19 65 3 0 0 1 0 0 0
0 0 0 0 0 0 0 0 0 0 0 0 0 0 0 0 32 0 0 0 0 0 0 2 3 2 1 0 1 2 0 1 2 0 0 2 0 0 19 21 21 43 55 38 25 16 4 0 0
0 0 0 0 0 0 0 0 0 0 0 0 0 0 0 4 12 0 0 0 0 0 0 1 0 0 1 0 0 0 1 3 3 1 0 0 1 0 4 21 30 9 39 38 4 8 3 2 0
0 0 0 0 0 0 0 0 0 0 0 0 0 0 0 2 7 0 0 0 0 0 0 0 0 0 0 0 1 2 1 1 1 1 0 0 0 5 1 8 4 0 6 0 0 2 0 0 0
0 0 0 0 0 0 0 0 0 0 0 0 0 0 0 0 9 0 0 0 0 0 0 0 0 1 0 0 1 1 1 0 1 1 0 0 0 0 0 0 0 0 5 9 27 16 4 0 0
0 3 0 0 0 0 0 0 0 0 0 0 0 0 0 0 11 0 0 0 0 0 0 0 0 0 0 3 0 1 1 0 0 0 0 0 0 0 0 1 0 3 15 20 26 29 13 2 0
0 0 0 0 0 0 0 0 0 0 0 0 0 0 0 0 12 0 0 0 0 0 0 0 0 0 0 1 1 0 0 0 0 0 0 0 0 0 0 0 17 21 14 63 39 28 18 10 18
0 1 0 0 0 0 0 0 0 0 0 0 0 0 0 0 1 0 0 0 0 0 0 0 0 0 0 0 0 0 0 0 0 0 0 0 0 0 0 0 3 45 27 16 64 33 46 38 42
0 0 0 0 0 0 0 0 0 0 0 0 0 0 0 0 1 5 0 0 0 0 0 0 0 0 1 0 0 0 0 0 0 0 0 0 0 0 0 0 4 12 17 22 37 48 46 27 28
0 0 0 0 0 0 0 0 0 0 0 0 0 0 0 0 0 24 5 0 0 0 0 0 0 0 1 0 0 0 0 0 0 0 0 0 0 0 0 0 0 8 6 16 24 25 29 34 25
0 0 0 0 0 0 0 2 0 0 0 0 0 0 0 0 0 11 13 0 0 0 0 0 0 0 0 0 2 0 0 0 0 0 0 0 0 0 0 0 0 0 1 10 24 18 7 7 11
1 1 1 1 0 0 0 0 0 0 0 0 0 0 0 0 0 0 56 1 0 0 0 0 0 0 0 0 0 1 1 0 0 0 0 0 0 0 0 0 0 0 0 1 2 4 2 0 0
0 0 0 0 0 0 0 0 0 0 0 0 0 0 0 0 0 0 33 50 0 0 0 0 0 0 0 0 0 0 2 3 1 0 0 0 0 0 0 0 0 0 0 0 0 0 0 0 0

GFSSGP_con_mlcape_072.txt.gz
CAPE
0 0 0 0 0 0 0 0 0 0 0 0 0 0 0 0 0 0 651 1068 1338 1275 1383 1264 1254 1224 1024 857 656 677 901 818 716 735 674 715 590 495 327 290 465 675 616 486 327 390 432 363 277
0 0 0 0 0 0 0 0 0 0 0 0 0 0 0 0 414 722 800 1196 1346 1226 1357 1373 1256 1256 1179 1027 920 830 974 894 726 593 630 632 577 409 575 639 616 659 580 228 260 438 332 329 194
0 0 0 0 0 0 0 0 0 0 0 0 0 0 0 6 454 601 765 1195 1385 1255 1321 1483 1327 1270 1349 1256 1143 1006 1087 942 699 663 661 559 475 717 982 903 859 630 275 270 209 288 286 159 99
0 0 0 0 0 0 0 0 0 0 0 0 0 0 0 1 184 549 727 944 1159 1227 1166 1291 1419 1461 1417 1314 1289 1151 1073 952 642 550 658 655 706 924 990 898 791 667 519 519 311 256 162 102 27
0 0 0 0 0 0 0 0 0 0 0 0 0 0 0 94 342 452 439 644 445 1040 1267 1264 1420 1424 1540 1497 1326 1191 1094 987 708 673 777 955 1082 1116 856 837 785 601 447 324 239 154 75 35 0
0 0 0 0 0 0 0 0 0 0 0 0 0 0 0 307 178 261 357 464 900 928 1153 1271 1313 1455 1554 1499 1264 1075 1009 948 775 828 924 986 1032 971 860 769 595 454 330 197 158 22 15 0 0
0 0 0 0 0 0 0 0 0 0 0 0 0 0 19 176 93 267 277 486 956 1092 1108 1070 1073 1141 1273 1523 1048 858 724 224 264 209 260 13 308 487 670 628 552 340 117 131 24 0 0 0 0
0 0 0 0 0 0 0 0 0 0 0 0 0 0 0 33 259 242 414 571 688 820 861 992 878 576 560 564 711 571 503 97 101 117 21 22 138 289 459 552 416 212 46 26 3 0 0 0 0
0 0 0 0 0 0 0 0 0 0 0 0 0 0 0 150 259 447 480 475 591 519 391 480 626 453 314 251 261 229 270 144 95 43 10 4 159 229 377 337 244 134 29 3 0 0 0 0 0
0 0 0 0 0 0 0 0 0 0 0 0 0 0 15 237 249 334 201 320 405 348 287 333 431 416 233 54 39 38 68 84 15 0 0 0 0 186 210 224 110 68 33 2 0 0 0 0 0
0 0 0 0 0 0 0 0 0 0 0 0 0 0 102 336 340 37 245 334 388 450 432 395 313 149 109 9 0 0 3 13 1 0 0 0 0 122 151 110 27 29 41 14 0 0 0 0 0
0 0 0 0 0 0 0 0 0 0 0 0 0 22 266 217 79 81 115 304 412 489 392 430 205 34 0 0 0 0 0 0 0 0 0 0 3 108 56 20 0 3 0 0 0 0 0 0 0
0 0 0 0 0 0 0 0 0 0 0 0 1 115 55 18 26 20 64 202 397 380 203 289 168 30 0 0 0 0 0 0 0 0 0 10 35 29 2 1 0 0 0 0 0 0 0 0 0
0 0 0 0 0 0 0 0 0 0 0 0 0 1 9 5 52 9 145 217 155 61 25 133 135 59 1 0 0 0 0 1 0 1 0 4 27 1 0 1 0 0 0 0 0 0 0 0 0
0 0 0 0 0 0 0 0 0 0 0 0 0 0 1 23 0 33 37 65 24 0 3 40 75 7 0 0 0 0 0 4 3 0 0 45 3 0 1 0 0 0 0 0 0 0 0 0 0
0 0 0 0 0 0 0 0 0 0 0 0 0 0 0 0 13 23 0 18 0 0 0 8 0 0 0 0 0 0 2 1 4 4 11 4 1 0 0 0 0 0 0 0 0 0 0 0 0
0 0 0 0 0 0 0 0 0 0 0 0 0 0 0 0 5 23 21 26 0 0 0 0 0 0 0 1 0 0 1 5 7 8 22 9 0 0 0 0 0 0 0 0 0 0 0 0 0
0 0 0 0 0 0 0 0 0 0 0 0 0 0 0 0 22 21 49 16 0 0 0 0 0 0 0 0 3 1 0 1 0 12 22 38 7 0 0 0 0 0 0 0 0 0 0 0 0
0 0 0 0 0 0 0 0 0 0 0 0 0 0 0 0 37 20 37 12 0 0 0 0 0 0 0 1 1 4 1 1 1 0 3 0 9 0 0 0 0 0 0 0 0 0 0 0 0
0 0 0 0 0 0 0 0 0 0 0 0 0 0 0 7 23 18 46 18 12 0 0 0 0 0 0 0 1 1 1 1 1 1 1 0 0 0 0 0 2 8 0 0 0 0 0 0 0
0 0 0 0 0 0 0 0 0 0 0 0 0 0 0 2 15 9 49 33 15 0 0 0 0 0 0 0 0 0 1 1 1 1 1 1 0 3 13 0 16 40 30 5 3 0 0 1 0
0 0 1 0 0 0 0 0 0 0 0 0 0 0 0 0 3 5 39 21 1 0 0 0 0 0 0 1 0 0 1 1 0 1 0 0 0 0 1 21 7 22 55 35 18 0 0 3 0
0 0 0 0 0 0 0 0 0 0 0 0 0 0 0 0 0 1 33 33 0 0 0 0 0 0 0 1 0 0 1 0 1 1 0 0 0 0 0 8 16 10 37 30 12 20 1 0 0
0 10 2 0 0 0 0 0 0 0 0 0 0 0 0 0 0 6 11 14 2 0 0 0 0 0 0 0 0 0 0 0 2 0 1 1 0 0 1 4 9 0 7 20 7 0 3 1 5
1 5 4 3 0 0 0 0 0 0 0 0 0 0 0 0 0 0 0 9 12 0 0 0 0 0 0 0 1 0 0 0 0 0 0 1 0 0 0 0 0 0 3 3 1 2 5 11 15
2 0 1 0 0 0 0 0 0 0 0 0 0 0 0 0 0 0 0 5 9 0 0 0 0 0 0 0 0 0 0 0 0 0 0 0 0 0 0 0 0 0 0 1 26 12 8 36 33
0 0 0 0 0 0 0 0 0 0 0 0 0 0 0 0 0 0 2 5 0 0 0 0 0 0 0 0 0 0 0 0 0 0 0 0 0 0 0 0 2 0 6 11 10 38 61 35 35
1 0 0 0 0 2 0 0 6 0 0 0 0 0 0 0 1 0 0 4 0 0 0 0 0 0 0 0 1 0 0 0 0 0 0 0 0 0 0 0 0 0 0 8 24 16 20 28 31
2 0 1 1 0 13 3 22 0 0 0 0 0 0 0 0 0 9 11 0 0 0 0 0 0 0 0 1 0 0 0 0 1 0 0 0 0 0 0 0 0 0 0 0 1 7 5 5 11
0 1 0 0 0 0 0 0 0 0 0 0 0 0 0 0 0 1 0 0 0 0 0 0 0 0 0 0 0 0 0 0 0 1 0 0 0 0 0 0 0 0 0 0 0 1 2 3 1

GFSSGP_con_mlcape_075.txt.gz
CAPE
0 0 0 0 0 0 0 0 0 0 0 0 0 0 0 0 0 0 312 626 1072 1044 1011 1006 975 909 859 851 862 877 822 734 1167 1265 1263 1196 1025 906 785 806 974 914 824 759 689 796 728 558 499
0 0 0 0 0 0 0 0 0 0 0 0 0 0 0 0 259 361 568 1081 1159 1069 1040 1078 1127 1077 919 856 863 1107 1121 1014 859 1044 1094 1079 945 855 785 795 915 789 777 754 868 790 619 564 429
0 0 0 0 0 0 0 0 0 0 0 0 0 0 0 0 352 413 611 1112 1142 1185 1140 1083 1173 1170 1156 1022 914 1167 1186 971 910 865 884 887 858 732 715 821 774 715 673 711 780 662 481 382 234
0 0 0 0 0 0 0 0 0 0 0 0 0 0 0 54 111 606 788 1127 1060 1173 1300 1223 1160 1206 1244 1186 1027 1069 1220 1020 920 977 1026 906 737 739 674 765 706 661 351 506 714 454 342 210 72
0 0 0 0 0 0 0 0 0 0 0 0 0 0 0 32 530 683 922 1121 963 1053 1189 1375 1188 1201 1335 1346 1157 1066 1233 1049 892 971 1020 858 975 997 812 721 737 554 485 559 494 322 219 97 28
0 0 0 0 0 0 0 0 0 0 0 0 0 0 0 105 366 561 839 920 878 789 1018 1148 1422 1373 1459 1453 1295 887 964 981 934 1043 961 972 1057 989 1036 1006 776 540 432 405 272 183 104 30 2
0 0 0 0 0 0 0 0 0 0 0 0 0 0 12 205 411 451 522 641 717 805 1035 1083 1382 1596 1591 1600 1440 1038 774 626 486 485 279 184 294 439 722 711 571 460 419 250 157 90 5 8 0
0 0 0 0 0 0 0 0 0 0 0 0 0 0 1 160 352 342 502 804 851 835 903 1008 986 1048 1154 1382 1242 959 737 396 243 25 1 1 100 125 183 457 451 362 345 195 80 7 1 0 0
0 0 0 0 0 0 0 0 0 0 0 0 0 12 6 200 368 463 443 519 612 728 790 768 680 566 554 751 827 905 595 127 18 17 12 31 66 135 144 340 366 262 236 100 20 0 0 0 0
0 0 0 0 0 0 0 0 0 0 0 0 0 16 22 285 406 377 329 293 408 425 360 420 382 378 220 232 391 521 362 58 8 11 21 25 68 63 35 147 287 191 147 33 0 0 0 0 0
0 0 0 0 0 0 0 0 0 0 0 0 0 0 91 279 450 368 436 356 160 279 161 170 205 210 129 99 112 140 158 47 17 36 8 0 6 95 180 109 167 124 111 0 0 0 0 0 0
0 0 0 0 0 0 0 0 0 0 0 0 0 0 160 225 242 317 432 259 278 340 273 197 148 108 73 25 0 0 23 0 1 1 2 0 0 4 56 77 56 49 36 3 0 0 0 0 0
0 0 0 0 0 0 0 0 0 0 0 0 0 0 296 216 190 272 330 242 353 410 341 225 168 60 4 0 0 0 0 0 1 0 1 0 0 4 121 45 0 8 7 0 0 0 0 0 0
0 0 0 0 0 0 0 0 0 0 0 0 0 0 340 241 268 243 147 268 355 394 264 205 109 48 0 0 0 0 0 0 0 1 3 0 6 77 95 22 0 0 0 0 0 0 0 0 0
0 0 0 0 0 0 0 0 0 0 0 0 0 0 195 279 266 122 167 152 286 319 85 12 79 49 4 2 0 0 0 0 0 1 1 4 13 125 50 16 1 0 0 0 0 0 0 0 0
0 0 0 0 0 0 0 0 0 0 0 0 0 0 0 121 108 83 166 201 231 95 0 0 24 29 0 0 0 0 2 1 3 0 0 1 37 74 21 1 0 0 0 0 0 0 0 0 0
0 0 0 0 0 0 0 0 0 0 0 0 0 0 0 0 63 87 116 165 106 26 7 0 4 1 0 0 0 1 3 3 6 7 2 1 25 2 1 1 0 0 0 0 0 0 0 0 0
0 0 0 0 0 0 0 0 0 0 0 0 0 0 0 0 4 48 65 72 54 13 14 0 0 0 1 0 0 1 2 3 10 4 2 3 2 0 0 0 0 0 0 0 0 0 0 0 0
0 0 0 0 0 0 0 0 0 0 0 0 0 0 0 0 0 2 38 47 41 0 11 0 0 0 0 0 1 0 1 1 7 4 4 1 1 0 3 0 0 0 0 0 0 0 0 0 0
0 0 0 0 0 0 0 0 0 0 0 0 0 0 0 0 0 0 31 50 29 9 0 0 0 0 0 0 0 0 1 2 0 3 10 28 18 1 0 0 0 0 0 0 0 0 0 0 0
0 0 0 0 0 0 0 0 0 0 0 0 0 0 0 0 0 0 38 57 34 1 0 0 0 0 0 0 0 0 0 2 1 8 15 2 4 0 0 0 0 0 0 0 0 0 0 0 0
0 0 0 0 0 0 0 0 0 0 0 0 0 0 0 0 0 1 38 54 52 5 0 0 0 0 0 0 0 0 0 0 1 2 1 3 9 1 0 0 3 2 0 0 2 3 3 1 3
0 0 0 1 0 1 0 0 0 0 0 0 0 0 0 0 0 0 60 77 49 0 0 0 0 0 0 0 0 0 0 0 0 2 0 1 1 0 0 0 0 5 1 9 26 17 6 14 14
0 0 0 0 0 0 0 0 0 0 0 0 0 0 0 0 0 0 46 45 56 19 0 0 0 0 0 0 0 0 0 0 0 0 1 1 0 1 0 0 0 2 7 15 20 34 36 8 0
8 1 0 0 0 0 0 0 0 0 0 0 0 0 0 0 0 0 6 38 61 43 3 0 0 0 0 0 0 0 0 0 0 0 3 0 1 0 0 0 0 0 0 17 13 30 33 10 1
1 0 0 0 0 0 0 0 0 0 0 0 0 0 0 0 0 0 0 27 62 56 12 0 0 0 0 0 0 0 0 0 0 0 0 0 0 0 0 0 0 0 0 3 12 23 31 7 5
8 0 0 0 1 0 0 0 0 0 0 0 0 0 0 0 0 0 0 18 39 43 11 0 0 0 0 0 0 0 0 0 0 0 0 0 0 0 0 0 0 0 0 0 0 1 0 0 0
0 3 0 0 0 0 0 2 2 0 0 0 0 0 0 0 0 0 0 11 33 7 0 0 0 0 1 0 1 0 0 0 0 0 0 0 0 1 0 0 0 0 0 0 0 0 1 2 3
2 2 0 1 0 2 1 17 1 0 0 0 0 0 0 0 0 0 0 0 4 0 1 0 0 1 0 0 1 1 0 0 0 0 0 0 0 0 0 0 0 0 0 0 0 0 0 1 6
11 0 1 0 0 0 1 0 0 0 0 0 0 1 0 0 0 0 0 0 0 0 1 1 2 1 0 1 0 1 0 0 0 0 0 0 0 0 0 0 0 0 0 0 0 0 1 3 3

GFSSGP_con_mlcape_081.txt.gz
CAPE
0 0 0 0 0 0 0 0 0 0 0 0 0 0 0 0 0 0 27 906 658 904 1116 1144 986 996 908 735 868 1235 1649 1637 1551 1501 1456 1386 1426 1348 1218 1077 1155 1243 1295 1260 1310 1305 1151 976 832
0 0 0 0 0 0 0 0 0 0 0 0 0 0 0 0 0 0 287 722 826 911 1100 1240 1095 1184 959 804 1029 1300 1798 1815 1735 1682 1623 1547 1448 1234 1152 1149 1219 1256 1344 1310 1283 1275 1073 942 818
0 0 0 0 0 0 0 0 0 0 0 0 0 0 0 0 32 0 171 893 1146 934 981 1149 1188 1220 998 868 908 1225 1642 1947 1908 1839 1748 1671 1390 1200 1125 1087 1223 1266 1297 1339 1246 1170 1075 893 741
0 0 0 0 0 0 0 0 0 0 0 0 0 0 0 0 29 157 349 941 968 1029 1001 1123 1161 1149 1163 1011 838 1141 1384 1766 1926 1902 1701 1487 1385 1367 975 979 1166 1276 1322 1344 1207 1027 909 767 629
0 0 0 0 0 0 0 0 0 0 0 0 0 0 0 0 55 376 600 781 707 1078 1164 1298 1283 1250 1227 1190 915 948 1228 1365 1579 1888 1620 1318 1505 1109 910 841 1060 1329 1249 1255 1013 967 813 629 456
0 0 0 0 0 0 0 0 0 0 0 0 0 0 0 0 89 410 913 969 1218 758 1036 1240 1390 1391 1250 1222 1188 956 985 1202 1450 1762 1715 1509 1014 865 518 492 639 613 957 1067 1017 822 657 480 263
0 0 0 0 0 0 0 0 0 0 0 0 0 0 0 0 244 619 1054 1204 1224 1294 1187 1152 1419 1553 1377 1276 1212 1232 946 740 921 1268 1501 603 186 363 220 230 234 379 761 806 803 637 466 302 141
0 0 0 0 0 0 0 0 0 0 0 0 0 0 0 0 227 839 1189 1202 1190 1232 1410 1357 1365 1493 1711 1563 1316 1202 1122 757 403 542 355 210 103 95 27 12 102 270 681 659 652 488 318 154 52
0 0 0 0 0 0 0 0 0 0 0 0 0 0 0 0 236 815 830 846 848 945 1126 1322 1400 1496 1545 1422 1350 1331 1104 792 497 347 155 56 25 3 1 13 61 144 402 511 409 325 158 64 6
0 0 0 0 0 0 0 0 0 0 0 0 0 0 0 0 194 637 692 481 438 451 777 1132 1179 1357 1274 1140 1145 1274 1054 676 317 204 86 19 5 11 2 0 32 104 227 247 242 178 64 29 26
0 0 0 0 0 0 0 0 0 0 0 0 0 0 0 0 1 389 626 610 734 684 654 949 1010 1056 1137 1051 889 812 606 399 138 30 18 10 0 0 0 3 34 154 174 197 236 114 77 58 25
0 0 0 0 0 0 0 0 0 0 0 0 0 0 0 0 0 0 347 574 641 685 788 791 800 822 776 773 586 508 382 171 59 0 0 0 1 19 63 99 75 75 45 128 226 140 21 0 0
0 0 0 0 0 0 0 0 0 0 0 0 0 0 0 0 0 0 7 720 710 654 841 780 666 623 480 402 382 243 171 132 45 3 0 3 6 46 98 51 105 58 3 53 127 20 1 0 0
0 0 0 0 0 0 0 0 0 0 0 0 0 0 0 0 0 0 10 325 680 685 738 647 478 389 347 219 192 109 125 92 23 5 0 1 12 35 91 77 85 51 0 12 65 0 0 0 0
0 0 0 0 0 0 0 0 0 0 0 0 0 0 0 0 0 0 0 176 658 636 656 472 366 451 232 92 83 11 11 6 4 3 2 0 2 4 67 102 98 51 1 0 3 0 0 0 0
0 0 0 0 0 0 0 0 0 0 0 0 0 0 0 0 0 0 0 238 621 622 641 460 420 315 89 34 1 0 1 0 1 1 1 2 4 22 61 73 55 7 0 0 2 0 0 0 0
0 0 0 0 0 0 0 0 0 0 0 0 0 0 0 0 0 0 1 183 451 600 578 446 386 185 9 3 3 1 1 3 0 2 1 1 1 5 72 79 33 4 1 0 0 0 0 0 0
0 0 0 0 0 0 0 0 0 0 0 0 0 0 0 0 0 0 0 188 446 484 470 374 259 90 0 1 1 1 2 2 2 2 0 2 3 3 56 37 6 2 2 0 0 0 0 7 3
0 0 0 0 0 0 0 0 0 0 0 0 0 0 0 0 0 0 0 12 272 373 331 221 180 6 0 0 0 1 0 1 2 3 4 2 2 11 7 2 1 1 1 0 0 0 0 0 2
0 0 0 0 0 0 0 0 0 0 0 0 0 0 0 0 0 0 0 0 80 309 255 159 106 0 1 1 1 1 1 3 3 4 1 10 1 4 9 0 2 3 2 0 0 0 0 0 0
0 0 0 0 0 0 0 0 0 0 0 0 0 0 0 0 0 0 0 0 82 243 226 156 32 0 1 1 3 1 3 3 4 2 3 1 1 3 2 2 2 1 1 0 0 0 0 0 0
0 0 0 0 0 0 0 0 0 0 0 0 0 0 0 0 0 0 0 0 14 221 204 48 8 1 2 3 2 0 0 1 6 2 3 2 2 1 2 2 0 0 0 0 0 0 0 0 0
0 0 0 0 0 1 0 0 0 0 0 0 0 0 0 0 0 0 0 0 56 216 133 7 0 2 3 1 0 0 2 4 3 3 1 1 2 2 2 2 0 0 0 0 0 0 0 0 0
0 0 0 0 0 1 0 0 0 0 0 0 0 0 0 0 0 0 0 2 46 117 10 1 0 1 1 1 1 0 8 3 0 6 1 0 2 1 1 0 0 0 0 0 0 0 0 0 3
0 0 0 0 0 0 0 0 0 0 0 0 0 0 0 0 0 0 0 0 20 26 0 0 0 0 3 0 0 1 2 2 0 0 1 0 0 2 0 0 0 0 0 0 0 0 0 1 9
0 0 0 0 0 0 0 0 0 0 0 0 0 0 0 0 0 0 0 25 68 33 7 7 6 1 2 1 0 1 1 1 1 2 2 3 2 3 1 0 0 0 0 0 0 0 4 13 6
0 0 0 0 0 0 0 0 0 0 0 0 0 0 0 0 0 0 0 23 49 25 17 29 1 2 3 3 0 2 2 0 0 1 1 5 7 3 0 2 2 1 0 0 0 0 0 0 3
0 2 1 0 0 0 0 0 0 0 0 1 1 2 2 0 1 0 0 1 42 26 5 1 1 1 3 2 0 0 2 1 0 0 0 0 5 17 6 1 1 2 0 0 0 0 0 0 0
1 1 0 0 0 0 0 0 24 7 1 5 3 4 4 3 3 3 6 19 26 8 2 2 1 0 1 2 0 0 0 0 0 0 0 0 0 1 1 0 2 2 1 0 3 0 2 0 0
0 0 2 0 0 0 0 0 52 4 2 7 0 1 4 5 4 1 5 4 4 4 2 1 1 1 2 1 1 0 0 0 0 1 0 0 0 0 0 0 5 5 2 3 2 1 4 0 0

GFSSGP_con_mlcape_087.txt.gz
CAPE
0 0 0 0 0 0 0 0 0 0 0 0 0 0 0 0 0 16 198 1020 1090 1231 1267 715 637 779 910 1164 1105 1128 1400 1473 1318 1221 1253 1092 1378 1163 1560 1529 1562 1674 1762 1671 1493 1363 1250 1321 1217
0 0 0 0 0 0 0 0 0 0 0 0 0 0 0 0 0 60 275 885 1053 1089 1493 1346 700 848 1037 1144 1128 1177 1523 1722 1644 1492 1495 1449 1553 1519 1304 1349 1588 1726 1743 1653 1546 1482 1594 1369 1101
0 0 0 0 0 0 0 0 0 0 0 0 0 0 0 0 0 0 595 842 585 439 1181 1713 700 917 1132 1082 1111 1246 1585 1850 1921 1777 1657 1720 1651 1648 1156 1186 1467 1610 1487 1660 1723 1582 1472 1207 1014
0 0 0 0 0 0 0 0 0 0 0 0 0 0 0 0 10 14 575 693 553 716 1037 1372 760 867 1099 1035 1103 1401 1734 2064 2108 1951 1733 1729 1280 1159 1010 1001 1304 1401 1370 1481 1440 1335 1270 1032 936
0 0 0 0 0 0 0 0 0 0 0 0 0 0 0 0 0 73 347 649 792 1065 1207 1595 819 807 1113 1044 1096 1442 1677 2087 2137 2078 1877 1538 1244 1034 981 948 1101 1173 1107 950 828 928 1014 957 845
0 0 0 0 0 0 0 0 0 0 0 0 0 0 0 0 0 32 319 771 957 1277 1639 1921 955 981 1052 1058 1088 1352 1605 2006 2103 1942 1674 1474 1167 1017 904 692 559 534 287 381 519 635 1005 870 733
0 0 0 0 0 0 0 0 0 0 0 0 0 0 0 0 17 441 386 903 1323 1550 1859 1974 1593 1318 1000 1058 1066 1231 1496 1734 1920 1515 1483 1217 1019 801 733 524 439 292 228 190 343 508 876 787 538
0 0 0 0 0 0 0 0 0 0 0 0 0 0 0 0 0 503 970 1133 1699 1960 2092 2166 1997 1797 1655 1481 1162 1100 1410 1554 1645 1434 1207 950 820 732 566 338 261 218 196 267 262 247 421 419 321
0 0 0 0 0 0 0 0 0 0 0 0 0 0 0 0 0 401 1089 1675 1961 2029 2059 2176 1944 1975 1868 1731 1615 1220 1187 1267 1332 1217 865 732 743 701 433 360 241 154 133 165 248 221 231 219 216
0 0 0 0 0 0 0 0 0 0 0 0 0 0 0 0 0 0 764 1522 1835 1749 2099 2349 2065 2008 2035 1736 2014 1666 1539 1368 1314 1081 1090 816 734 768 601 361 167 94 89 58 78 205 111 160 326
0 0 0 0 0 0 0 0 0 0 0 0 0 0 0 0 0 0 11 885 1378 1491 1745 2161 2260 2091 2156 1992 2155 1794 1789 1813 1680 1391 1274 910 804 782 705 390 117 96 38 19 122 135 184 215 341
0 0 0 0 0 0 0 0 0 0 0 0 0 0 0 0 0 0 0 0 838 1177 1479 2059 2230 2072 1952 1725 1645 1585 2148 2120 1720 1472 1300 1001 813 748 590 454 202 95 114 62 86 202 178 228 281
0 0 0 0 0 0 0 0 0 0 0 0 0 0 0 0 0 0 0 0 11 880 1279 1988 1900 1956 1925 1829 1664 1747 1842 1740 1539 1435 1244 1063 718 695 489 182 112 109 195 62 12 22 130 236 208
0 0 0 0 0 0 0 0 0 0 0 0 0 0 0 0 0 0 0 0 0 194 1099 1967 1908 1899 1889 1863 1627 1370 1499 1346 1225 1140 1116 1115 786 577 574 330 141 152 238 78 11 42 112 218 184
0 0 0 0 0 0 0 0 0 0 0 0 0 0 0 0 0 0 0 0 0 0 345 1812 2038 1922 1908 1778 1804 1314 1410 1010 931 783 1070 893 728 536 351 236 234 208 229 187 42 48 81 146 134
0 0 0 0 0 0 0 0 0 0 0 0 0 0 0 0 0 0 0 0 0 0 0 1375 2018 1857 1903 1773 1665 1526 971 843 911 937 814 699 516 405 346 305 306 227 155 104 52 62 50 61 150
0 0 0 0 0 0 0 0 0 0 0 0 0 0 0 0 0 0 0 0 0 0 43 1030 2060 1742 1848 1764 1598 1295 957 748 857 847 558 440 396 402 356 311 186 141 109 92 77 60 34 55 72
0 0 0 0 0 0 0 0 0 0 0 0 0 0 0 0 0 0 0 0 0 0 216 1143 2092 1720 1801 1741 1319 913 640 544 409 384 312 433 251 129 59 11 27 86 100 116 86 44 39 78 61
0 0 0 0 0 0 0 0 0 0 0 0 0 0 0 0 0 0 0 0 0 6 656 1337 1995 1653 1819 1461 821 607 399 407 270 185 154 217 224 95 3 9 25 39 67 81 94 55 21 40 57
0 0 0 0 0 0 0 0 0 0 0 0 0 0 0 0 0 0 0 0 0 207 950 1449 1852 1673 1683 1005 933 650 442 290 341 298 134 60 8 2 4 15 53 29 27 43 65 42 26 41 76
0 0 0 0 0 0 0 0 0 0 0 0 0 0 0 0 0 0 0 0 0 242 905 1401 1733 1693 1577 1098 931 582 322 210 171 72 52 344 174 137 39 47 32 8 23 10 8 11 13 31 37
0 0 0 0 0 0 23 0 0 0 0 0 0 0 0 0 0 0 0 0 0 252 770 1248 1572 1538 1455 1146 817 496 252 100 86 63 103 240 156 109 97 79 51 62 8 1 5 6 22 26 45
0 1 2 9 6 0 0 0 0 0 0 4 0 0 0 0 0 0 0 0 0 58 616 1257 1400 1324 1351 1030 736 462 242 81 51 54 50 58 8 2 7 6 16 11 16 1 7 0 25 25 70
1 12 14 1 3 1 0 0 0 25 21 15 21 13 30 25 22 8 7 3 1 19 642 1418 1251 1308 973 985 696 488 239 67 31 76 74 3 4 2 0 1 4 3 2 2 2 1 0 36 41
0 20 11 20 21 0 16 13 9 60 15 20 14 13 14 9 12 179 103 23 1 126 859 1421 1200 1252 835 859 733 430 167 52 22 88 29 2 1 1 0 0 0 1 1 2 2 3 12 43 29
25 40 16 0 0 10 0 0 62 78 1 1 11 5 4 2 0 2 343 189 160 203 913 1117 755 741 544 758 712 354 85 18 22 82 6 3 2 3 1 2 0 1 1 2 2 3 29 43 43
0 9 11 13 0 0 0 0 149 24 2 4 6 0 0 0 0 0 17 321 510 680 850 492 375 394 432 899 583 176 68 10 23 58 19 4 2 1 1 2 1 0 1 1 1 1 1 2 30
24 29 12 5 3 8 3 6 80 37 1 0 0 0 0 0 0 0 0 140 678 796 323 180 240 295 379 726 344 46 22 2 18 33 22 15 22 3 5 2 3 3 1 2 2 0 0 1 4
6 28 3 29 16 20 7 38 94 17 2 0 0 0 0 0 0 0 0 0 503 396 184 73 202 172 227 379 49 21 2 1 10 3 5 8 15 17 32 6 1 0 0 0 0 0 0 0 0
26 16 29 15 15 18 51 28 85 9 0 0 0 0 0 0 0 0 3 1 68 294 209 202 205 98 71 52 2 11 1 2 1 1 4 5 9 18 3 26 3 2 1 1 0 0 0 0 0

GFSSGP_con_mlcape_090.txt.gz
CAPE
0 0 0 0 0 0 0 0 0 0 0 0 0 0 0 0 9 91 626 765 1500 998 430 586 735 886 1073 1080 1274 1504 1298 1294 1276 1209 1112 1101 1132 1203 1386 1498 1481 1624 1616 1779 1670 1458 1453 1177 924
0 0 0 0 0 0 0 0 0 0 0 0 0 0 0 0 1 158 602 833 1378 1119 542 635 640 678 878 1119 1086 1211 1507 1531 1447 1431 1373 1112 1131 1179 1216 1275 1528 1571 1621 1673 1657 1556 1523 1308 1028
0 0 0 0 0 0 0 0 0 0 0 0 0 0 0 0 0 129 583 848 1094 1260 1084 935 574 685 784 949 1032 1161 1409 1627 1602 1562 1473 1277 1200 1099 1049 1035 1372 1578 1602 1525 1661 1547 1542 1139 1008
0 0 0 0 0 0 0 0 0 0 0 0 0 0 0 0 23 88 622 697 432 1145 1501 801 509 714 865 940 1012 1185 1558 1819 1832 1734 1663 1539 1309 1061 961 879 1125 1064 1167 1210 1514 1535 1307 1018 902
0 0 0 0 0 0 0 0 0 0 0 0 0 0 0 0 0 288 519 444 449 1287 1647 1155 668 789 916 943 1035 1217 1564 1902 1966 1954 1879 1819 1486 1061 940 927 1000 914 698 554 659 657 830 981 876
0 0 0 0 0 0 0 0 0 0 0 0 0 0 0 0 0 45 471 711 1088 1563 2046 1424 885 884 1038 992 1051 1285 1563 1574 1893 1980 1998 1859 1644 1137 983 857 726 510 466 265 293 297 641 877 784
0 0 0 0 0 0 0 0 0 0 0 0 0 0 0 0 0 165 469 926 1409 1532 2097 1914 1103 1097 1077 995 1051 1295 1584 1623 1779 1935 2042 1879 1645 1266 931 705 564 478 243 76 79 247 211 473 579
0 0 0 0 0 0 0 0 0 0 0 0 0 0 0 0 0 300 723 1062 1556 2046 2153 2318 1765 1317 1067 1009 983 1167 1451 1635 1615 1830 1744 1708 1448 1146 836 712 521 396 236 143 86 209 303 375 357
0 0 0 0 0 0 0 0 0 0 0 0 0 0 0 0 0 171 510 1245 1816 2155 2258 2566 2324 1960 1806 1723 1157 1016 1270 1456 1516 1560 1402 1318 1230 1057 761 596 442 324 208 193 279 221 172 256 259
0 0 0 0 0 0 0 0 0 0 0 0 0 0 0 0 0 0 362 1198 1829 2270 2286 2576 2192 2375 2157 1617 1645 1323 1326 1311 1430 1405 1168 1218 1165 1055 842 574 328 194 211 179 138 176 99 114 212
0 0 0 0 0 0 0 0 0 0 0 0 0 0 0 0 0 0 0 327 1691 2206 2262 2468 2121 1944 1921 1698 1835 1575 1786 1502 1542 1471 1428 1009 1017 1129 906 632 310 94 121 146 92 80 102 149 252
0 0 0 0 0 0 0 0 0 0 0 0 0 0 0 0 0 0 0 0 212 1849 1972 2517 2484 1852 2013 1965 1855 2095 1917 1810 1927 1729 1533 1354 1032 915 940 728 375 118 49 69 61 83 12 45 261
0 0 0 0 0 0 0 0 0 0 0 0 0 0 0 0 0 0 0 0 0 721 1800 2129 2520 2157 2262 2205 1906 1698 1845 2137 1967 1787 1591 1294 1026 909 792 884 517 258 222 118 76 50 20 28 235
0 0 0 0 0 0 0 0 0 0 0 0 0 0 0 0 0 0 0 0 0 0 1137 2108 2400 2369 2171 2252 1849 1764 1804 1784 1808 1855 1544 1382 1108 938 813 723 496 296 281 124 73 55 21 23 87
0 0 0 0 0 0 0 0 0 0 0 0 0 0 0 0 0 0 0 0 0 0 42 2118 2157 2291 1905 2143 1841 1467 1526 1430 1487 1462 1491 1196 1081 843 628 495 373 291 223 96 23 40 15 8 61
0 0 0 0 0 0 0 0 0 0 0 0 0 0 0 0 0 0 0 0 0 0 0 2185 2206 2142 2024 1959 1828 1309 1186 1316 1331 1139 1096 1034 969 779 583 446 346 314 187 131 20 13 2 45 97
0 0 0 0 0 0 0 0 0 0 0 0 0 0 0 0 0 0 0 0 0 0 0 2101 2116 2139 2134 1924 2137 1627 1250 1136 1076 981 922 872 813 768 503 402 297 250 211 114 29 14 15 36 39
0 0 0 0 0 0 0 0 0 0 0 0 0 0 0 0 0 0 0 0 0 0 0 2148 2174 2157 2169 2039 1986 1747 1257 857 915 856 829 740 771 642 429 316 253 222 114 49 43 28 35 23 49
0 0 0 0 0 0 0 0 0 0 0 0 0 0 0 0 0 0 0 0 0 0 0 2275 2111 2046 1999 1922 1724 1382 1018 730 647 452 475 409 612 479 355 259 236 136 84 51 51 31 13 19 64
0 0 0 0 0 0 0 0 0 0 0 0 0 0 0 0 0 0 0 0 0 0 2 2177 2105 1991 1914 1956 1470 1134 888 631 445 199 181 238 473 289 210 148 70 29 40 73 41 11 1 34 14
0 0 0 0 0 0 0 0 0 0 0 0 0 0 0 0 0 0 0 0 0 0 208 1938 2150 1896 1867 1887 1196 993 705 652 520 320 204 122 122 174 144 93 59 31 33 42 56 11 0 3 32
0 0 0 0 0 0 0 0 0 0 0 0 0 0 0 0 0 0 0 0 0 2 396 1568 2172 1777 1880 1498 1259 967 684 495 380 267 190 250 278 110 63 48 75 59 70 46 35 27 10 2 21
0 0 0 0 9 2 0 8 0 0 1 26 92 62 38 34 3 0 0 0 0 13 502 1084 1977 1799 1718 1363 1373 993 703 460 259 290 241 310 302 177 127 125 101 58 23 24 48 29 14 1 7
0 0 1 3 8 0 0 0 0 0 124 134 69 12 3 16 14 65 103 17 0 47 532 1134 1764 1727 1761 1349 1401 952 712 397 267 184 98 105 21 0 0 0 17 47 41 20 22 28 25 2 3
17 0 0 0 1 0 1 12 0 72 111 22 29 2 0 1 0 0 29 170 86 25 692 1277 1686 1686 1672 1388 1258 923 711 398 241 200 120 35 0 2 0 0 3 2 11 2 11 25 17 5 2
11 10 0 2 0 2 0 0 14 161 55 37 22 0 0 0 0 0 0 6 5 334 1169 1541 1638 1495 1519 1322 1160 945 635 275 199 222 72 17 0 0 0 1 0 0 0 1 1 11 5 1 0
0 5 1 4 2 0 0 0 1 2 44 36 7 0 0 0 0 0 0 0 2 643 1439 1637 1333 1364 1227 1137 1058 843 503 196 131 178 51 19 0 0 1 1 1 1 1 2 2 1 1 2 0
1 27 17 10 10 0 0 0 20 1 7 3 0 0 0 0 0 0 0 0 259 992 880 877 966 965 890 1128 1156 611 288 122 111 119 10 31 17 2 3 1 2 1 0 0 1 0 10 3 5
15 0 17 9 7 1 2 16 23 0 0 2 0 0 0 0 0 2 0 0 0 115 480 588 493 615 665 850 779 308 217 80 35 87 93 61 34 6 1 0 1 2 1 1 0 1 1 0 0
3 18 19 3 1 1 2 0 0 5 45 56 1 0 0 0 0 1 1 1 2 0 2 250 384 470 487 491 258 139 47 28 28 43 36 41 44 19 6 1 2 1 2 1 0 0 0 0 0

GFSSGP_con_mlcape_093.txt.gz
CAPE
0 0 0 0 0 0 0 0 0 0 0 0 0 0 0 0 6 172 1061 967 782 638 1050 1081 1093 1192 1310 1252 1127 1066 1107 1083 1066 1024 877 832 848 1023 1131 1274 1439 1753 1823 1794 1538 1491 1046 1081 964
0 0 0 0 0 0 0 0 0 0 0 0 0 0 0 0 339 754 1064 1055 669 410 843 1043 1033 1060 1223 1349 1322 1187 1228 1260 1248 1171 1078 957 1102 1183 1210 1279 1420 1654 1720 1782 1675 1622 1426 1070 806
0 0 0 0 0 0 0 0 0 0 0 0 0 0 0 0 316 531 1168 1136 638 198 550 723 714 924 1006 1049 1235 1365 1385 1394 1444 1399 1272 1039 1144 1168 1215 1265 1438 1640 1532 1320 1209 1444 1436 1007 904
0 0 0 0 0 0 0 0 0 0 0 0 0 0 0 0 183 697 1170 1269 1006 289 617 451 538 756 949 1065 1074 1173 1340 1421 1504 1524 1522 1220 1206 1256 1124 1247 1434 1353 924 704 873 1437 1218 1012 958
0 0 0 0 0 0 0 0 0 0 0 0 0 0 0 41 651 725 751 1052 998 957 957 414 659 843 939 1011 1080 1222 1426 1523 1599 1679 1640 1529 1346 1221 1094 1152 1053 936 706 598 629 743 883 753 779
0 0 0 0 0 0 0 0 0 0 0 0 0 0 0 0 423 525 398 1155 1300 1473 1309 626 749 1003 1049 954 1060 1237 1534 1766 1581 1686 1739 1724 1461 1185 1098 1135 823 742 616 647 498 533 426 521 514
0 0 0 0 0 0 0 0 0 0 0 0 0 0 0 0 62 494 481 1158 1502 1573 1341 993 842 1065 987 921 949 1226 1554 1386 1472 1647 1792 1888 1556 1279 1136 1047 772 632 433 279 179 192 182 190 416
0 0 0 0 0 0 0 0 0 0 0 0 0 0 0 0 378 533 723 1041 1539 1748 1570 1079 675 925 864 888 995 1202 1372 1126 1533 1643 1858 1977 1773 1448 1124 993 782 587 341 186 145 139 76 3 314
0 0 0 0 0 0 0 0 0 0 0 0 0 0 0 0 9 465 940 1399 1464 1960 1805 1664 881 772 734 813 944 1151 1317 1354 1416 1561 1736 1716 1588 1404 1136 884 771 541 330 136 94 188 90 98 286
0 0 0 0 0 0 0 0 0 0 0 0 0 0 0 0 0 0 69 1508 1571 1821 2192 2056 1783 1217 1035 1078 882 968 1261 1220 1342 1410 1357 1241 1296 1162 983 820 691 580 401 171 132 259 231 234 286
0 0 0 0 0 0 0 0 0 0 0 0 0 0 0 0 0 0 0 668 1647 1884 2355 2277 2259 2046 1682 1542 1151 884 927 1025 1145 1120 927 941 1174 1008 849 693 632 467 347 255 313 101 75 132 124
0 0 0 0 0 0 0 0 0 0 0 0 0 0 0 0 0 0 0 0 1373 2050 2277 2323 2160 2164 1956 1408 1315 1061 1096 965 880 977 1080 721 1060 937 829 641 421 373 386 193 109 79 16 22 133
0 0 0 0 0 0 0 0 0 0 0 0 0 0 0 0 0 0 0 0 0 940 2148 2352 2097 1834 1798 1764 1641 1327 1530 1314 1283 1208 1412 1039 1020 956 958 572 373 226 276 157 92 53 33 22 62
0 0 0 0 0 0 0 0 0 0 0 0 0 0 0 0 0 0 0 0 0 0 1894 2372 2234 1975 1651 1623 1671 1750 1818 1601 1638 1617 1450 1265 1011 918 949 711 437 266 136 86 40 52 22 1 79
0 0 0 0 0 0 0 0 0 0 0 0 0 0 0 0 0 0 0 0 0 0 37 2310 2323 2169 1932 1666 1796 1689 1792 1756 1639 1641 1473 1288 1115 957 883 676 412 335 197 108 30 21 9 4 14
0 0 0 0 0 0 0 0 0 0 0 0 0 0 0 0 0 0 0 0 0 0 0 1714 2387 2216 2087 1658 1770 1483 1367 1394 1336 1386 1375 1195 1201 1034 882 639 398 379 222 93 25 14 10 0 7
0 0 0 0 0 0 0 0 0 0 0 0 0 0 0 0 0 0 0 0 0 0 0 896 2271 2124 2004 1796 1643 1441 1237 1130 1063 1030 1053 1139 940 964 804 564 425 387 228 34 10 6 5 3 13
0 0 0 0 0 0 0 0 0 0 0 0 0 0 0 0 0 0 0 0 0 0 0 217 1912 2042 1947 1786 1534 1385 1072 880 1020 942 791 935 833 860 658 479 378 307 178 63 4 0 0 0 36
0 0 0 0 0 0 0 0 0 0 0 0 0 0 0 0 0 0 0 0 0 0 0 64 1679 1902 1909 1708 1563 1334 1234 967 803 809 722 604 649 706 544 395 277 252 147 58 3 3 2 7 26
0 0 0 0 0 0 0 0 0 0 0 0 0 0 0 0 0 0 0 0 0 0 0 389 1688 2008 1976 1694 1601 1346 1060 663 550 699 573 586 640 580 458 337 274 193 87 67 22 17 11 10 19
0 0 0 0 0 0 0 0 0 0 0 0 0 0 0 0 0 0 0 0 0 0 0 834 1845 2072 1876 1674 1153 834 627 463 392 386 369 325 364 424 317 288 255 229 161 66 35 20 5 8 15
0 0 0 0 0 0 0 0 0 0 0 0 0 0 0 40 13 0 0 0 0 0 47 1171 1860 1923 1699 1522 1378 1135 893 646 384 280 221 211 236 233 215 184 112 106 87 73 62 32 2 3 7
0 0 0 0 0 0 0 0 0 0 0 0 86 110 120 83 42 30 41 20 0 0 919 1745 1821 1793 1656 1378 1169 997 783 429 355 304 236 169 128 146 156 147 112 107 61 60 113 58 1 0 1
0 0 0 0 0 0 0 0 0 0 0 113 112 39 42 23 27 35 31 26 25 3 1525 1920 1727 1726 1631 1269 1103 922 701 431 351 297 207 188 217 178 135 129 69 30 9 38 89 86 18 1 0
0 1 0 0 0 0 0 0 0 6 62 120 48 13 1 10 13 0 0 2 0 1 33 1614 1721 1686 1601 1397 1158 943 749 488 302 228 244 198 106 52 5 0 6 10 21 19 26 53 48 5 0
0 0 1 0 0 0 1 0 0 28 2 8 9 0 0 0 0 0 0 0 0 73 111 1093 1364 1574 1322 1367 1219 949 699 464 292 270 149 61 6 1 0 0 1 2 0 16 9 33 30 19 1
0 0 12 3 0 0 0 0 1 3 1 0 0 0 0 0 0 0 0 0 0 0 648 1137 1270 1282 1116 1106 1033 935 723 498 363 258 152 35 0 0 0 0 1 1 2 4 3 16 8 26 3
3 0 0 15 18 0 0 0 58 9 1 4 0 0 0 0 0 0 0 0 0 2 3 503 582 657 935 955 936 835 645 341 305 231 112 30 2 0 0 0 0 2 2 0 1 20 7 14 3
33 4 11 25 10 1 0 11 5 0 5 6 0 0 0 0 0 0 0 2 1 3 0 0 204 61 373 640 906 722 386 335 252 182 98 31 4 0 0 1 2 1 1 0 0 1 1 1 1
1 0 0 13 0 12 2 0 0 0 0 12 0 0 0 0 0 1 0 1 0 4 1 1 0 330 308 541 613 455 220 147 170 104 96 86 49 3 0 1 0 1 0 0 0 0 1 1 8

GFSSGP_con_mlcape_099.txt.gz
CAPE
0 0 0 0 0 0 0 0 0 0 0 0 0 0 0 0 0 0 750 989 855 805 1132 1258 1381 1348 1193 1008 875 698 633 652 683 793 1031 1073 1240 1352 1399 1381 1418 1756 1817 1578 1359 1320 1203 1057 824
0 0 0 0 0 0 0 0 0 0 0 0 0 0 0 0 447 796 906 1029 938 938 1202 1280 1414 1416 1301 1167 1126 985 865 743 710 794 988 1092 1263 1278 1368 1441 1535 1728 1641 1567 1432 1414 1109 838 797
0 0 0 0 0 0 0 0 0 0 0 0 0 0 0 0 463 610 1015 898 921 1144 1322 1370 1394 1437 1422 1352 1292 1207 1133 901 792 817 953 1073 1260 1379 1562 1516 1654 1675 1677 1650 1464 1079 919 865 884
0 0 0 0 0 0 0 0 0 0 0 0 0 0 0 62 527 903 1236 1072 837 1115 1333 1448 1376 1398 1439 1454 1427 1380 1267 1107 929 920 986 1144 1295 1366 1524 1504 1739 1744 1648 1559 1418 1011 698 665 789
0 0 0 0 0 0 0 0 0 0 0 0 0 0 0 250 775 1057 1043 870 655 1019 1188 1288 1363 1399 1447 1507 1507 1492 1367 1297 1179 1104 1102 1180 1292 1349 1417 1446 1498 1601 1562 1297 1407 947 664 684 821
0 0 0 0 0 0 0 0 0 0 0 0 0 0 0 153 916 1067 793 530 684 516 904 1097 1400 1460 1530 1573 1518 1521 1449 1445 1418 1309 1208 1211 1270 1347 1327 1481 1529 1279 1080 1147 1116 894 768 772 846
0 0 0 0 0 0 0 0 0 0 0 0 0 0 0 553 1094 1106 692 391 484 551 634 786 943 1145 1283 1439 1487 1516 1483 1482 1477 1456 1412 1310 1299 1376 1298 1391 1342 1105 940 1123 1046 910 794 746 798
0 0 0 0 0 0 0 0 0 0 0 0 0 0 0 312 942 1214 777 433 452 412 460 500 749 871 957 1145 1209 1276 1421 1490 1532 1557 1534 1533 1401 1376 1294 1346 1282 1049 897 950 1002 970 788 779 768
0 0 0 0 0 0 0 0 0 0 0 0 0 0 0 10 730 1340 1078 474 324 310 311 476 628 784 748 869 1180 1291 1438 1559 1412 1507 1463 1578 1513 1358 1302 1246 1114 930 744 693 897 912 818 811 728
0 0 0 0 0 0 0 0 0 0 0 0 0 0 0 0 666 1363 1244 861 480 439 295 440 568 644 716 889 1030 1266 1549 1455 1157 1234 1311 1610 1551 1344 1193 1183 1033 815 707 682 750 681 641 708 539
0 0 0 0 0 0 0 0 0 0 0 0 0 0 0 0 34 876 1396 1096 960 1123 1088 804 557 591 611 760 973 1151 1408 1297 1084 1232 1326 1604 1523 1405 1141 1084 953 693 570 496 407 453 319 284 575
0 0 0 0 0 0 0 0 0 0 0 0 0 0 0 0 0 0 789 1327 1503 1401 1265 1259 912 573 474 556 663 967 1110 1094 1198 1097 1259 1559 1440 1286 1076 964 835 558 419 323 274 247 316 243 604
0 0 0 0 0 0 0 0 0 0 0 0 0 0 0 0 0 0 0 0 1461 1688 1668 1479 1150 687 464 422 508 658 823 891 1079 1090 1201 1419 1331 1115 994 827 671 590 410 217 208 179 221 223 485
0 0 0 0 0 0 0 0 0 0 0 0 0 0 0 0 0 0 0 0 0 1095 1863 1954 1703 1269 838 566 361 361 686 898 894 926 1018 1165 1136 1008 915 713 588 489 382 245 215 157 258 307 240
0 0 0 0 0 0 0 0 0 0 0 0 0 0 0 0 0 0 0 0 0 0 407 1946 2090 1885 1579 1109 524 366 519 602 668 780 928 909 933 903 805 664 521 397 300 263 197 113 124 105 81
0 0 0 0 0 0 0 0 0 0 0 0 0 0 0 0 0 0 0 0 0 0 0 793 2137 2199 2087 1703 1258 880 705 727 616 685 785 738 741 783 688 634 510 306 275 262 221 124 50 24 13
0 0 0 0 0 0 0 0 0 0 0 0 0 0 0 0 0 0 0 0 0 0 0 0 1188 2076 2274 2104 1683 1386 1032 895 794 742 715 768 745 710 679 578 454 342 340 327 274 133 81 32 15
0 0 0 0 0 0 0 0 0 0 0 0 0 0 0 0 0 0 0 0 0 0 0 0 318 1391 2133 2221 1771 1492 1272 1275 1103 1043 950 876 908 818 734 573 489 433 459 326 275 202 78 42 24
0 0 0 0 0 0 0 0 0 0 0 0 0 0 0 0 0 0 0 0 0 0 0 0 55 794 1761 1913 1800 1602 1504 1416 1235 1300 1162 1138 1054 869 731 566 513 486 456 277 250 135 77 12 2
0 0 0 0 0 0 0 0 0 0 0 0 0 0 0 0 0 0 0 0 0 0 0 0 0 685 1351 1676 1647 1616 1467 1288 1138 1069 1093 1176 1029 902 737 559 502 406 323 149 123 75 26 4 1
0 0 0 0 0 0 0 0 0 0 0 0 0 0 0 0 0 0 0 0 0 0 0 0 0 406 1115 1581 1623 1217 858 639 827 889 925 1022 898 836 748 416 407 374 304 184 61 75 36 14 1
0 0 0 0 0 0 0 0 0 0 0 0 0 0 0 0 0 0 0 0 0 0 0 0 0 461 1123 1703 1497 1184 1063 1019 904 883 826 544 532 543 400 341 260 320 240 149 92 33 12 1 2
0 0 0 0 0 0 0 0 0 0 0 0 0 0 0 0 0 0 0 0 0 0 0 1 8 456 948 1597 1550 1221 1216 973 685 646 455 565 383 366 182 190 224 211 178 128 66 21 4 1 0
0 0 0 0 0 0 0 0 0 0 0 0 0 0 0 0 0 0 0 0 0 0 0 2 248 638 1359 1627 1582 1291 1105 831 563 449 482 339 253 248 225 203 213 230 136 76 63 40 3 1 2
0 0 0 0 0 0 0 0 0 0 0 0 1 0 0 0 0 0 0 0 0 0 0 3 225 1373 1599 1630 1578 1200 979 677 595 467 452 205 143 161 163 90 115 127 69 29 52 31 0 1 4
0 0 0 0 0 0 0 0 0 0 0 0 0 0 0 0 0 2 0 0 0 0 4 1 115 1734 1706 1511 1322 953 564 606 461 387 288 203 128 93 48 58 97 35 30 44 31 49 21 4 11
0 0 0 1 0 0 0 0 0 0 0 0 0 0 0 0 0 1 1 0 0 4 4 8 4 1363 1501 1286 818 596 416 405 355 250 213 142 79 58 48 29 17 22 63 33 53 41 21 19 10
0 0 0 8 2 0 0 0 0 0 0 0 0 0 0 1 0 2 2 1 1 4 6 6 7 5 726 795 605 373 246 213 203 230 210 91 48 44 11 11 0 2 0 0 0 0 2 15 15
0 0 0 0 2 25 0 0 1 0 1 1 2 3 0 3 3 2 2 2 2 3 6 7 8 2 0 114 258 265 115 49 118 131 71 39 30 38 30 7 0 0 0 0 0 2 2 6 6
0 0 0 0 0 0 0 0 3 0 0 1 0 1 2 2 1 1 2 3 3 4 6 7 8 6 3 0 33 30 5 4 83 67 67 40 68 35 1 0 0 0 0 0 0 1 0 1 1

GFSSGP_con_mlcape_102.txt.gz
CAPE
0 0 0 0 0 0 0 0 0 0 0 0 0 0 0 0 0 0 622 997 512 592 1059 1125 1193 1276 1035 812 671 713 762 766 875 1023 1188 1354 1179 1016 1182 1112 1269 1639 1510 1534 1456 1449 1510 1141 840
0 0 0 0 0 0 0 0 0 0 0 0 0 0 0 0 60 530 952 974 535 827 1139 1183 1378 1485 1278 964 827 827 922 871 848 1027 1267 1432 1383 1533 1353 1318 1533 1739 1629 1517 1553 1506 1336 966 851
0 0 0 0 0 0 0 0 0 0 0 0 0 0 0 0 248 640 874 1027 879 1073 1183 1296 1529 1570 1392 1170 1041 1016 1034 942 922 960 1149 1423 1546 1562 1458 1529 1787 1738 1703 1595 1661 1576 1125 868 883
0 0 0 0 0 0 0 0 0 0 0 0 0 0 0 0 129 807 1069 1110 996 1171 1243 1385 1566 1630 1462 1346 1245 1138 1022 936 935 1032 1105 1193 1360 1498 1491 1527 1612 1640 1690 1729 1776 1473 877 833 905
0 0 0 0 0 0 0 0 0 0 0 0 0 0 0 0 169 811 1115 1043 933 1237 1308 1438 1604 1673 1597 1505 1455 1359 1136 990 963 1067 1158 1212 1307 1447 1552 1606 1668 1535 1668 1776 1623 1001 770 851 910
0 0 0 0 0 0 0 0 0 0 0 0 0 0 0 0 745 1039 1325 962 1065 1088 1287 1433 1611 1621 1614 1576 1504 1485 1365 1166 1063 1105 1184 1260 1327 1430 1557 1651 1784 1596 1461 1752 1403 827 716 739 898
0 0 0 0 0 0 0 0 0 0 0 0 0 0 0 0 313 996 1144 891 949 1126 1328 1491 1607 1649 1563 1509 1509 1531 1506 1401 1233 1133 1147 1244 1302 1305 1447 1551 1590 1374 1291 1238 1168 778 664 782 976
0 0 0 0 0 0 0 0 0 0 0 0 0 0 0 0 49 958 715 739 817 1063 1275 1394 1499 1643 1580 1511 1472 1500 1558 1524 1464 1343 1214 1212 1286 1319 1353 1382 1409 1208 994 1068 959 812 724 887 977
0 0 0 0 0 0 0 0 0 0 0 0 0 0 0 0 458 1152 803 636 699 894 1072 1208 1274 1401 1429 1445 1562 1592 1592 1578 1532 1522 1461 1356 1315 1361 1309 1286 1276 1096 904 972 973 895 811 831 931
0 0 0 0 0 0 0 0 0 0 0 0 0 0 0 0 0 561 1258 437 327 405 649 906 888 965 1034 1199 1306 1454 1599 1616 1576 1568 1551 1509 1375 1291 1288 1242 1226 1047 850 888 891 775 774 829 774
0 0 0 0 0 0 0 0 0 0 0 0 0 0 0 0 0 0 939 1292 505 499 389 463 506 661 822 1055 1133 1142 1413 1423 1428 1381 1406 1414 1472 1355 1227 1152 1160 959 784 670 733 689 633 683 675
0 0 0 0 0 0 0 0 0 0 0 0 0 0 0 0 0 0 0 1216 1313 1171 725 507 678 550 782 963 1060 1145 1333 1352 1264 1266 1169 1187 1479 1372 1161 1083 978 781 630 507 482 560 460 506 551
0 0 0 0 0 0 0 0 0 0 0 0 0 0 0 0 0 0 0 0 1 1040 1494 1414 889 794 852 888 918 961 1238 1338 1313 996 1087 1182 1463 1414 1174 1029 945 695 492 360 273 200 249 226 309
0 0 0 0 0 0 0 0 0 0 0 0 0 0 0 0 0 0 0 0 0 0 88 1650 1553 1190 899 851 809 830 1008 916 957 1061 1065 1211 1463 1388 1152 1058 905 701 466 255 186 179 145 220 237
0 0 0 0 0 0 0 0 0 0 0 0 0 0 0 0 0 0 0 0 0 0 0 31 1441 1515 1192 889 689 563 611 701 683 823 1102 1204 1348 1270 1074 983 779 632 389 265 74 103 96 105 225
0 0 0 0 0 0 0 0 0 0 0 0 0 0 0 0 0 0 0 0 0 0 0 0 193 1146 1510 1187 813 576 506 484 655 855 1006 973 1085 1145 1009 893 717 419 337 298 113 116 135 98 170
0 0 0 0 0 0 0 0 0 0 0 0 0 0 0 0 0 0 0 0 0 0 0 0 2 518 1232 1542 1256 809 608 503 505 610 631 743 965 1019 973 910 634 338 346 270 171 150 153 77 69
0 0 0 0 0 0 0 0 0 0 0 0 0 0 0 0 0 0 0 0 0 0 0 0 0 81 1036 1776 1564 1167 938 735 656 625 659 644 799 803 788 755 575 348 292 227 195 210 146 93 14
0 0 0 0 0 0 0 0 0 0 0 0 0 0 0 0 0 0 0 0 0 0 0 0 0 0 775 1666 1695 1585 1461 1307 1105 838 659 561 664 678 712 599 467 335 337 246 272 188 205 118 17
0 0 0 0 0 0 0 0 0 0 0 0 0 0 0 0 0 0 0 0 0 0 0 0 0 0 551 1420 1778 1727 1544 1488 1341 1044 804 575 675 679 744 604 535 440 472 335 311 180 166 107 23
0 0 0 0 0 0 0 0 0 0 0 0 0 0 0 0 0 0 0 0 0 0 0 0 0 0 430 1160 1843 1480 1521 1338 1235 1141 1053 961 950 869 876 673 540 470 363 278 185 140 91 96 4
0 0 0 0 0 0 0 0 0 0 0 0 0 0 0 0 0 0 0 0 0 0 0 0 0 0 488 1283 1558 1415 1406 1060 941 1081 1202 1095 1031 971 949 748 626 540 271 246 159 117 60 20 20
0 0 0 0 0 0 0 0 0 0 0 0 0 0 0 0 0 0 0 0 0 0 0 0 0 0 0 1420 1369 1187 1137 1211 947 982 981 826 739 868 933 690 574 335 198 195 130 57 37 36 28
0 0 0 0 0 0 0 0 0 0 0 0 0 0 0 0 0 0 0 0 0 0 0 0 0 0 0 1502 1531 1300 931 1088 1028 940 956 740 715 835 646 515 351 190 173 124 74 56 9 4 0
0 0 0 0 0 0 0 0 0 0 0 0 0 0 0 0 0 0 0 0 0 0 3 0 4 0 0 1138 1557 1438 1298 1130 981 861 784 716 658 531 383 330 170 123 155 111 75 25 1 0 2
0 0 0 0 0 0 0 0 0 0 0 0 0 0 0 0 0 0 0 0 0 1 4 5 3 2 1 1124 1573 1552 1365 1007 841 733 543 466 442 413 287 253 121 130 97 86 58 35 0 1 3
0 0 0 0 0 0 0 0 0 0 0 0 0 0 0 0 0 0 0 0 1 2 5 6 6 2 4 1517 1324 1267 909 821 674 600 438 360 266 128 166 115 88 55 46 59 37 1 4 2 3
0 0 0 0 0 0 0 0 0 0 1 0 0 0 2 1 0 0 0 0 2 3 3 3 5 4 7 124 1123 898 665 476 402 341 326 234 152 98 118 70 53 43 42 22 13 22 26 36 24
0 0 0 2 0 0 0 0 2 1 0 0 1 3 3 2 0 0 0 0 2 3 3 4 6 7 8 3 151 437 359 283 263 250 171 140 78 58 53 16 20 6 9 5 4 1 0 0 0
0 0 0 0 0 0 0 0 0 0 1 4 5 3 2 0 0 0 2 2 3 5 5 5 6 8 8 5 0 193 219 160 121 81 43 19 23 6 0 2 9 1 1 0 0 0 0 0 0

GFSSGP_con_mlcape_105.txt.gz
CAPE
0 0 0 0 0 0 0 0 0 0 0 0 0 0 0 0 0 0 357 715 764 809 1238 1148 1301 1129 952 809 925 1086 1343 1539 1568 1565 1417 1293 1147 937 951 1190 1393 1661 1699 1713 1494 1389 1412 1178 942
0 0 0 0 0 0 0 0 0 0 0 0 0 0 0 0 0 0 785 947 790 1003 1366 1457 1383 1207 1040 915 904 1021 1251 1406 1594 1674 1582 1405 1223 983 1074 1255 1488 1742 1764 1588 1535 1558 1540 1023 888
0 0 0 0 0 0 0 0 0 0 0 0 0 0 0 0 0 187 930 1230 912 1197 1424 1562 1441 1259 1105 1010 973 988 1084 1231 1446 1632 1691 1517 1271 1200 1324 1433 1601 1668 1741 1585 1670 1685 1489 1009 847
0 0 0 0 0 0 0 0 0 0 0 0 0 0 0 0 0 485 1044 1202 1015 1279 1461 1485 1436 1314 1167 1056 1055 1065 1001 1031 1303 1604 1790 1667 1523 1701 1514 1579 1734 1877 1800 1672 1805 1604 1166 929 867
0 0 0 0 0 0 0 0 0 0 0 0 0 0 0 0 0 785 1182 1211 1107 1426 1562 1591 1453 1428 1286 1205 1204 1174 1012 942 1068 1434 1732 1844 1926 1836 1680 1793 1846 1956 1827 1857 1885 1469 1000 913 917
0 0 0 0 0 0 0 0 0 0 0 0 0 0 0 0 0 440 1249 1394 1455 1515 1596 1732 1624 1573 1514 1419 1270 1127 1018 989 1038 1160 1335 1631 1781 1739 1646 1738 1775 1722 1772 1925 1780 1233 896 937 981
0 0 0 0 0 0 0 0 0 0 0 0 0 0 0 0 0 563 1114 1200 1474 1635 1652 1753 1938 1836 1654 1559 1430 1274 1109 1042 1070 1136 1195 1314 1450 1555 1611 1684 1746 1750 1660 1563 1596 988 861 968 960
0 0 0 0 0 0 0 0 0 0 0 0 0 0 0 0 0 565 939 1099 1127 1371 1651 1625 1715 1836 1976 1901 1568 1488 1314 1175 1159 1138 1228 1359 1392 1513 1656 1656 1860 1767 1534 1515 1397 947 840 877 892
0 0 0 0 0 0 0 0 0 0 0 0 0 0 0 0 0 104 903 973 970 1068 1158 1348 1531 1662 1830 1877 1830 1619 1558 1454 1336 1320 1261 1367 1715 1740 1789 1822 1851 1630 1391 1408 1195 966 831 875 952
0 0 0 0 0 0 0 0 0 0 0 0 0 0 0 0 0 0 123 1059 783 892 1064 1314 1427 1513 1614 1638 1886 1966 1863 1908 1924 1874 1745 1735 1785 1831 1782 1758 1528 1501 1207 1176 1030 986 854 950 1347
0 0 0 0 0 0 0 0 0 0 0 0 0 0 0 0 0 0 0 798 1119 610 837 1000 1061 1124 1245 1511 1702 1804 1702 1727 1788 1995 2045 1915 1788 1753 1722 1740 1716 1796 1236 1413 1022 918 1161 1289 1363
0 0 0 0 0 0 0 0 0 0 0 0 0 0 0 0 0 0 0 0 1362 1244 522 692 769 803 881 1360 1318 1365 1474 1524 1659 1897 2008 1924 1703 1615 1732 1673 1787 1818 1528 1382 1322 1161 1254 1282 1275
0 0 0 0 0 0 0 0 0 0 0 0 0 0 0 0 0 0 0 0 0 44 1431 789 519 429 633 1094 1121 1217 1179 1277 1664 1821 1885 1964 1639 1604 1621 1655 1583 1487 1382 1255 1064 1014 938 1029 1079
0 0 0 0 0 0 0 0 0 0 0 0 0 0 0 0 0 0 0 0 0 0 0 1108 722 420 679 655 982 1022 1135 1355 1401 1701 1779 1802 1733 1504 1456 1461 1399 1351 1267 1117 1013 925 852 870 817
0 0 0 0 0 0 0 0 0 0 0 0 0 0 0 0 0 0 0 0 0 0 0 0 0 155 1094 903 886 1047 1126 1275 1258 1272 1224 1098 1157 1264 1344 1370 1270 1085 1037 971 798 662 580 636 518
0 0 0 0 0 0 0 0 0 0 0 0 0 0 0 0 0 0 0 0 0 0 0 0 0 342 1330 1446 1262 1083 1109 1185 1014 877 942 1019 1170 1278 1231 1277 1213 888 746 798 682 441 412 408 405
0 0 0 0 0 0 0 0 0 0 0 0 0 0 0 0 0 0 0 0 0 0 0 0 0 20 330 1096 1505 1328 1101 983 936 843 834 1026 1133 1203 1182 1268 1127 745 633 631 597 446 417 328 229
0 0 0 0 0 0 0 0 0 0 0 0 0 0 0 0 0 0 0 0 0 0 0 0 0 0 16 723 1274 1322 1122 959 802 687 761 876 1041 1123 1214 1251 1008 712 540 524 448 401 304 240 243
0 0 0 0 0 0 0 0 0 0 0 0 0 0 0 0 0 0 0 0 0 0 0 0 0 0 0 467 821 964 948 1136 866 847 1024 1049 1009 1057 1170 1153 940 715 642 430 403 322 228 170 143
0 0 0 0 0 0 0 0 0 0 0 0 0 0 0 0 0 0 0 0 0 0 0 0 0 0 0 5 857 1056 1024 1164 1193 1035 944 956 861 887 1024 1039 796 601 514 370 355 285 246 166 97
0 0 0 0 0 0 0 0 0 0 0 0 0 0 0 0 0 0 0 0 0 0 0 0 0 0 0 0 794 1404 1228 1217 1163 1113 1098 1009 1025 878 930 901 649 493 435 421 448 319 304 172 73
0 0 0 0 0 0 0 0 0 0 0 0 0 0 0 0 0 0 0 0 0 0 0 0 0 1 0 0 322 1207 1051 1036 1245 1472 1348 1240 1070 892 874 787 613 520 571 566 427 364 284 161 109
0 0 0 0 0 0 0 0 0 0 0 0 0 0 0 0 0 0 0 0 0 0 0 0 1 1 0 1 0 1206 1336 1238 1442 1720 1630 1390 1106 966 817 741 705 731 656 519 381 234 195 148 97
0 0 0 0 0 0 0 0 0 0 0 0 0 0 0 0 0 0 0 0 0 0 0 0 1 2 2 1 3 531 1274 1379 1469 1527 1519 1309 1053 1031 891 743 732 641 661 511 371 166 170 119 84
0 0 0 0 0 0 0 0 0 0 0 0 0 0 0 0 0 0 0 0 0 0 0 0 2 3 4 4 5 141 1268 1344 1396 1423 1456 1173 945 1042 869 796 698 819 656 446 260 144 109 83 58
0 0 0 0 0 0 0 0 0 0 0 0 0 0 0 0 0 0 0 0 0 1 0 1 4 6 5 4 5 324 1107 1332 1344 1413 1357 1055 796 859 708 659 654 715 441 226 204 185 112 56 27
0 0 0 0 0 0 0 0 0 0 0 0 0 0 0 1 0 0 0 0 0 3 3 4 5 4 6 5 7 1010 1236 1233 1102 1257 1300 1016 756 658 452 479 427 415 222 168 168 111 117 64 5
0 0 0 0 0 0 0 0 0 0 0 0 0 0 1 0 0 0 0 0 0 2 3 3 3 4 5 5 8 742 1281 1119 915 838 1030 879 697 508 335 277 243 164 98 124 89 92 82 27 1
0 0 0 0 0 0 0 0 7 0 0 0 2 3 0 1 0 0 0 0 1 1 3 3 5 6 7 8 8 45 929 862 579 529 571 464 288 187 155 126 118 128 73 75 73 76 20 1 3
0 0 0 0 0 0 0 0 1 1 0 1 2 2 1 1 0 0 0 1 1 2 3 3 4 6 5 6 8 61 391 431 342 278 241 184 137 109 86 50 56 29 28 25 21 9 6 5 8

GFSSGP_con_mlcape_108.txt.gz
CAPE
0 0 0 0 0 0 0 0 0 0 0 0 0 0 0 0 0 0 49 1099 1377 1275 1928 1455 1196 959 950 1162 1415 1595 1701 1574 1521 1367 1181 1247 1305 1311 1381 1502 1417 1950 1850 1809 1542 1607 1662 1619 1395
0 0 0 0 0 0 0 0 0 0 0 0 0 0 0 0 0 0 341 1444 1380 1485 1764 1723 1185 945 865 1058 1343 1590 1687 1747 1779 1660 1476 1446 1429 1440 1472 1487 1629 2024 2021 1864 1612 1757 1696 1316 1013
0 0 0 0 0 0 0 0 0 0 0 0 0 0 0 0 0 0 750 1556 1356 1523 1632 1930 1242 980 794 887 1217 1513 1755 1846 1875 1780 1693 1618 1554 1526 1518 1513 1908 2085 2076 1901 1766 1936 1632 1043 979
0 0 0 0 0 0 0 0 0 0 0 0 0 0 0 0 0 0 777 1494 1502 1556 1768 1922 1368 1051 795 802 982 1290 1543 1678 1865 1897 1864 1752 1675 1607 1517 1534 1868 2110 1972 1888 1989 2058 1664 1013 911
0 0 0 0 0 0 0 0 0 0 0 0 0 0 0 0 0 42 1519 1746 1405 1671 2022 2189 1447 1212 989 882 939 1068 1217 1371 1541 1754 1844 1809 1716 1584 1577 1625 1860 1999 2010 1986 2133 1934 1354 1033 919
0 0 0 0 0 0 0 0 0 0 0 0 0 0 0 0 0 0 1485 1983 1821 1890 2244 2388 1700 1401 1250 1129 1024 1000 1054 1211 1435 1681 1827 1839 1731 1791 1716 1768 1895 1917 2034 1952 2120 1756 1203 1064 996
0 0 0 0 0 0 0 0 0 0 0 0 0 0 0 0 0 0 1056 2073 2212 2208 2365 2525 2281 1881 1440 1308 1174 1080 981 1041 1293 1548 1778 1928 2030 1982 1855 1911 1996 1991 1894 1785 1762 1674 1136 1080 1079
0 0 0 0 0 0 0 0 0 0 0 0 0 0 0 0 0 0 574 1981 2153 2245 2437 2581 2666 2408 2283 1967 1375 1217 1118 1041 1119 1288 1535 1802 1912 1895 1829 1892 1900 1780 1752 1724 1708 1491 1086 1074 1090
0 0 0 0 0 0 0 0 0 0 0 0 0 0 0 0 0 0 0 1376 1982 1897 2228 2407 2126 2111 2286 2483 2129 1539 1334 1204 1225 1340 1368 1504 1693 1963 1993 1860 1827 1760 1769 1593 1544 1358 1020 1045 1044
0 0 0 0 0 0 0 0 0 0 0 0 0 0 0 0 0 0 0 0 1736 1887 1737 1783 1882 2016 1908 2090 2555 2211 2179 1837 1721 1704 1785 1760 1800 2037 1925 1928 1985 1878 1658 1388 1359 1278 1025 970 1224
0 0 0 0 0 0 0 0 0 0 0 0 0 0 0 0 0 0 0 0 619 1684 1767 1707 1734 1871 1960 1844 2269 2366 2398 2303 2259 2206 2267 2003 2017 2154 2046 2145 2087 1988 1682 1591 1337 1359 1352 1238 1219
0 0 0 0 0 0 0 0 0 0 0 0 0 0 0 0 0 0 0 0 0 1651 1583 1775 1793 1853 1812 1718 2021 2078 2085 2228 2096 2298 2481 2180 2191 2054 2004 1871 2000 1950 1968 1605 1696 1447 1397 1326 1369
0 0 0 0 0 0 0 0 0 0 0 0 0 0 0 0 0 0 0 0 0 0 296 1487 1574 1673 1525 1393 1725 1758 1746 1703 1912 2135 2238 2407 2276 2192 1986 1752 1799 1937 1896 1757 1748 1560 1549 1404 1319
0 0 0 0 0 0 0 0 0 0 0 0 0 0 0 0 0 0 0 0 0 0 0 6 1224 1519 1439 1345 1366 1477 1591 1494 1685 1758 1809 2393 2137 2250 2045 1956 2068 1888 1895 1856 1669 1637 1602 1405 1225
0 0 0 0 0 0 0 0 0 0 0 0 0 0 0 0 0 0 0 0 0 0 0 0 9 1652 1628 1435 1365 1342 1272 1446 1349 1589 1826 2028 2084 1981 1887 1848 1854 1981 1827 1885 1760 1683 1536 1392 1120
0 0 0 0 0 0 0 0 0 0 0 0 0 0 0 0 0 0 0 0 0 0 0 0 0 0 122 1287 1628 1665 1514 1452 1397 1387 1533 1932 1921 1871 1824 1730 1639 1745 1954 1975 1749 1657 1471 1389 1219
0 0 0 0 0 0 0 0 0 0 0 0 0 0 0 0 0 0 0 0 0 0 0 0 0 0 0 309 1103 1540 1875 1789 1657 1589 1493 1484 1633 1498 1445 1465 1562 1458 1449 1739 1697 1440 1424 1172 978
0 0 0 0 0 0 0 0 0 0 0 0 0 0 0 0 0 0 0 0 0 0 0 0 0 0 0 1 539 944 1454 1668 1897 1790 1610 1393 1381 1321 1390 1435 1468 1228 1297 1372 1400 1181 1157 1021 810
0 0 0 0 0 0 0 0 0 0 0 0 0 0 0 0 0 0 0 0 0 0 0 0 0 0 0 0 13 363 1042 1210 1200 1752 1766 1525 1471 1396 1342 1416 1399 1182 1199 1154 1166 1097 952 786 615
0 0 0 0 0 0 0 0 0 0 0 0 0 0 0 0 0 0 0 0 0 0 0 0 0 0 0 0 0 58 509 735 936 1298 1628 1615 1406 1319 1333 1414 1336 1196 1275 963 1017 740 566 593 547
0 0 0 0 0 0 0 0 0 0 0 0 0 0 0 0 0 0 0 0 0 0 0 0 0 0 0 0 0 0 345 744 842 977 1333 1410 1501 1305 1271 1303 1415 1268 1316 972 884 642 560 396 278
0 0 0 0 0 0 0 0 0 0 0 0 0 0 0 0 0 0 0 0 0 0 0 0 0 0 0 0 0 0 12 617 844 990 1025 1200 1429 1585 1391 1372 1507 1401 1210 968 870 667 809 513 320
0 0 0 0 0 0 0 0 0 0 0 0 0 0 0 0 0 0 0 0 0 0 0 0 0 0 0 0 0 2 0 477 982 1013 1134 1335 1256 1403 1587 1449 1475 1365 1047 937 836 725 846 770 625
0 0 0 0 0 0 0 0 0 0 0 0 1 0 0 0 0 0 0 0 0 0 0 0 0 0 0 0 0 3 3 15 1077 1113 1364 1364 1434 1242 1401 1392 1465 1315 1008 804 832 1126 970 610 665
0 0 0 0 0 0 0 0 0 0 0 0 1 1 0 0 0 0 0 0 0 0 0 0 0 0 0 1 1 1 3 7 391 1432 1538 1553 1622 1280 1237 1270 1254 1147 977 1138 1247 1133 873 724 535
0 1 1 0 0 0 0 0 0 0 1 0 0 0 0 0 0 0 0 0 0 0 0 0 1 3 2 3 4 4 5 3 382 1246 1382 1610 1639 1298 1223 1155 1268 1242 1237 1206 1131 1014 857 679 502
0 0 0 2 2 0 0 0 1 2 4 9 2 0 0 0 0 0 0 0 0 0 0 1 4 4 4 4 4 7 6 6 491 1305 1439 1422 1625 1397 1159 1122 1067 980 1026 866 906 892 607 445 365
0 0 0 2 0 0 0 0 0 3 6 3 2 0 0 0 0 0 0 0 0 0 0 1 3 4 4 5 5 6 7 8 973 1462 1416 1372 1565 1500 1161 1021 937 856 734 571 717 622 503 196 307
0 0 0 0 0 0 0 0 5 0 1 1 0 0 0 0 0 0 0 0 0 0 0 1 4 3 3 3 5 4 9 801 916 1148 1373 1251 1450 1249 1091 962 680 681 571 427 349 235 269 222 233
0 0 0 0 0 0 0 0 6 1 0 0 0 0 0 0 0 0 0 0 0 0 0 3 3 1 3 3 3 7 8 27 574 931 1068 1033 1104 963 754 703 543 413 395 321 219 190 175 167 151

GFSSGP_con_mlcape_114.txt.gz
CAPE
0 0 0 0 0 0 0 0 0 0 0 0 0 0 0 0 0 0 769 1007 1398 2292 1565 1075 1068 1087 1157 1251 1272 1330 1246 1233 1294 1125 1062 1058 946 951 1109 1479 1692 1856 1996 2007 1599 1515 1510 1489 1296
0 0 0 0 0 0 0 0 0 0 0 0 0 0 0 0 0 0 0 188 1514 2454 1771 1425 1134 1085 1097 1194 1314 1449 1490 1479 1446 1392 1212 1208 1112 1095 1134 1384 1624 1737 1979 2093 2189 2241 2209 1919 1889
0 0 0 0 0 0 0 0 0 0 0 0 0 0 0 0 0 0 0 816 1579 1834 2486 1966 1160 1123 1141 1227 1424 1633 1776 1771 1601 1549 1339 1279 1206 1247 1316 1275 1396 1756 2197 2209 2024 2053 2173 2043 1618
0 0 0 0 0 0 0 0 0 0 0 0 0 0 0 0 0 0 121 1173 1615 1783 2518 1816 1469 1200 1206 1339 1573 1790 1887 1856 1658 1504 1470 1373 1324 1381 1381 1397 1484 2099 2148 2118 1962 2138 2007 1606 1220
0 0 0 0 0 0 0 0 0 0 0 0 0 0 0 0 0 0 88 1591 1551 1885 2356 2062 1712 1208 1230 1417 1701 1854 1907 1793 1672 1632 1588 1540 1563 1559 1504 1612 1594 2075 2231 2085 2202 2144 1896 1178 1077
0 0 0 0 0 0 0 0 0 0 0 0 0 0 0 0 0 0 27 1683 2226 2337 2687 1981 1556 1209 1233 1391 1621 1814 1856 1858 1883 1860 1843 1751 1727 1663 1529 1590 1709 2089 2182 2213 2091 2080 1936 1369 1052
0 0 0 0 0 0 0 0 0 0 0 0 0 0 0 0 0 0 0 1651 2617 2233 3220 2723 1814 1322 1167 1209 1352 1577 1750 1884 1959 1983 1983 1948 1908 1752 1561 1547 1770 1921 2030 2022 1913 1923 1804 1339 1072
0 0 0 0 0 0 0 0 0 0 0 0 0 0 0 0 0 0 0 762 2551 2755 2635 3241 2479 1678 1314 1120 1111 1226 1392 1539 1743 1916 2004 2006 1977 1882 1638 1553 1706 1791 1862 1810 1854 1838 1652 1272 1085
0 0 0 0 0 0 0 0 0 0 0 0 0 0 0 0 0 0 0 0 2444 2742 2857 2969 2850 2285 1916 1554 1123 1041 1115 1251 1458 1668 1895 1970 2075 1933 1780 1665 1803 1765 1771 1830 1905 1808 1708 1333 1068
0 0 0 0 0 0 0 0 0 0 0 0 0 0 0 0 0 0 0 0 827 2604 2701 2908 3129 2690 2526 2161 1763 1177 1137 1144 1328 1593 1759 2123 2276 2356 2184 2138 1879 2005 1761 1757 1697 1728 1665 1315 1180
0 0 0 0 0 0 0 0 0 0 0 0 0 0 0 0 0 0 0 0 0 53 2687 2794 2574 2341 2447 2669 2387 1625 1711 1381 1445 1535 1828 1779 2134 2384 2207 2181 1912 1861 1830 1636 1576 1610 1616 1430 1217
0 0 0 0 0 0 0 0 0 0 0 0 0 0 0 0 0 0 0 0 0 0 2065 2697 2352 2105 1982 2226 2786 2554 2217 2003 1951 1793 1895 1952 1774 1767 2192 1648 2054 1898 1917 1685 1850 1704 1613 1458 1525
0 0 0 0 0 0 0 0 0 0 0 0 0 0 0 0 0 0 0 0 0 0 233 1918 2101 2302 1949 2131 2399 2565 2404 2479 2439 2247 2339 2267 2062 2203 2119 1807 2041 2173 2042 1948 1687 1854 1734 1543 1389
0 0 0 0 0 0 0 0 0 0 0 0 0 0 0 0 0 0 0 0 0 0 0 86 1035 1731 2398 2233 2386 2307 2510 2424 2102 2220 2541 2436 2380 1796 2227 1944 2045 2265 2222 1967 1831 1582 1312 1551 1500
0 0 0 0 0 0 0 0 0 0 0 0 0 0 0 0 0 0 0 0 0 0 0 0 0 0 130 1572 1713 1788 2245 2190 2463 2324 2042 2318 2482 2106 2120 2134 1724 1651 2250 1912 1707 1853 1772 1567 1653
0 0 0 0 0 0 0 0 0 0 0 0 0 0 0 0 0 0 0 0 0 0 0 0 0 0 0 0 1350 1960 1811 1903 1797 2197 2239 1852 2463 2019 2476 1996 2099 2185 1617 2138 1855 1657 1533 1614 1728
0 0 0 0 0 0 0 0 0 0 0 0 0 0 0 0 0 0 0 0 0 0 0 0 0 0 0 0 0 1 1026 1855 1699 1612 2025 2032 1765 2666 2156 2392 1945 1904 2204 1873 2152 1744 1586 1674 1558
0 0 0 0 0 0 0 0 0 0 0 0 0 0 0 0 0 0 0 0 0 0 0 0 0 0 0 0 0 0 0 760 1875 1978 1738 1915 2049 2000 2348 2293 2444 1860 1968 2008 1988 1916 1918 1807 1522
0 0 0 0 0 0 0 0 0 0 0 0 0 0 0 0 7 0 0 0 0 0 0 0 0 0 0 0 0 0 0 0 815 1681 2016 2120 2184 2290 2161 2282 2427 2124 1741 1652 1772 2033 1729 1692 1685
0 0 0 0 0 0 0 0 0 0 0 0 0 0 0 0 3 0 0 0 0 0 0 0 0 0 0 0 0 0 0 0 0 0 223 1624 2164 2272 2345 2373 2372 2328 1861 1580 1708 2047 1868 1555 1609
1 1 2 0 0 0 1 0 0 0 0 0 0 0 6 10 9 0 0 0 0 0 0 0 0 0 0 0 0 0 0 0 0 0 0 1050 1575 2224 1923 2204 2271 2144 1936 1544 1425 1826 1689 1300 1237
18 7 23 11 9 6 3 6 0 0 0 0 0 51 23 0 0 0 0 0 0 0 0 0 0 0 0 0 0 0 0 0 0 0 0 9 604 831 1910 1678 2209 2017 2034 1567 1267 1474 1530 1234 965
33 29 20 0 0 0 0 0 0 0 0 0 15 31 0 0 0 0 0 0 0 0 0 0 0 0 0 0 0 0 0 0 0 0 0 0 0 239 1365 1810 2001 2025 2035 1817 1300 1235 1444 1150 1034
0 0 5 24 0 0 0 0 0 0 6 0 128 5 0 0 0 0 0 0 0 0 0 0 0 0 0 0 0 0 0 0 1 0 0 0 0 4 1015 1528 1691 1859 1756 1731 1580 1434 1438 1166 1210
0 0 0 0 0 0 0 0 0 269 191 127 7 0 0 0 0 0 0 0 0 0 0 0 0 0 0 0 0 0 0 0 1 2 2 1 0 0 85 1135 1239 1648 1707 1698 1779 1712 1472 1287 1147
1 0 0 0 0 0 0 0 93 131 24 0 0 0 0 0 0 0 0 0 0 0 0 0 0 0 0 0 0 1 1 1 1 2 2 2 1 0 0 895 1072 752 1466 1401 1461 1526 1652 1443 1251
0 0 5 0 0 0 0 29 65 0 0 0 0 0 0 0 0 0 0 0 0 0 0 0 0 0 0 0 1 1 2 1 2 2 2 2 2 0 0 1 1010 1483 1619 1377 1390 1609 1510 1484 1192
0 0 0 1 1 0 5 0 0 21 1 0 0 0 0 0 0 0 0 0 0 0 0 0 0 0 0 0 1 2 3 2 2 3 3 2 2 2 1 0 874 1734 1678 1628 1602 1577 1412 1224 1220
0 0 0 0 0 0 0 0 33 25 3 0 0 0 0 0 0 0 0 0 0 0 0 0 0 0 1 2 2 2 3 2 3 3 4 4 2 2 4 1 635 1416 1485 1603 1578 1555 1384 1281 1228
0 0 0 0 0 0 0 0 84 44 71 10 0 0 0 0 0 0 0 0 0 0 0 0 0 1 2 1 2 3 3 3 3 4 5 4 6 1 4 56 795 1169 1231 1199 1359 1516 1376 1282 968

GFSSGP_con_mlcape_117.txt.gz
CAPE
0 0 0 0 0 0 0 0 0 0 0 0 0 0 0 0 0 146 399 1189 1845 1484 1333 1280 1171 1201 1349 1376 1197 1118 1139 1173 1032 821 704 707 661 641 667 833 1051 1372 1619 1697 1628 1550 1441 1335 1104
0 0 0 0 0 0 0 0 0 0 0 0 0 0 0 0 0 0 178 1073 1933 1800 1224 1288 1197 1144 1228 1356 1373 1194 1180 1205 1170 991 850 792 711 746 901 1186 1445 1659 1915 1899 1659 1595 1735 1671 1533
0 0 0 0 0 0 0 0 0 0 0 0 0 0 0 0 0 0 685 1143 1781 2137 1347 1171 1193 1165 1220 1323 1417 1344 1319 1302 1356 1232 975 873 842 832 946 1178 1413 1572 1941 2021 2051 2008 1924 1869 1638
0 0 0 0 0 0 0 0 0 0 0 0 0 0 0 0 0 0 750 1311 1385 2367 1750 1300 1106 1136 1211 1328 1448 1533 1539 1464 1457 1420 1168 1047 1039 1011 925 1013 1261 1612 2198 2123 1854 1786 1837 1753 1352
0 0 0 0 0 0 0 0 0 0 0 0 0 0 0 0 0 1 438 1882 1730 2366 2047 1637 1065 1080 1193 1336 1573 1646 1687 1616 1559 1557 1355 1121 1168 1135 988 953 1201 1785 2126 2013 1829 1926 1743 1255 1055
0 0 0 0 0 0 0 0 0 0 0 0 0 0 0 0 0 0 528 993 2190 2147 2066 1778 1599 1143 1205 1356 1588 1731 1775 1734 1569 1528 1506 1247 1253 1266 1149 1094 1291 1683 2072 1934 1861 1839 1750 1286 967
0 0 0 0 0 0 0 0 0 0 0 0 0 0 0 0 0 0 896 1425 2185 2646 2028 1862 1687 1388 1180 1219 1525 1654 1694 1645 1581 1623 1642 1516 1426 1413 1318 1270 1402 1552 1949 2004 1937 1819 1739 1403 1042
0 0 0 0 0 0 0 0 0 0 0 0 0 0 0 0 0 0 0 1571 1421 2755 2609 2047 1696 1366 1176 1147 1417 1618 1708 1725 1747 1804 1788 1782 1652 1617 1538 1417 1489 1639 1950 1929 1760 1743 1673 1323 1042
0 0 0 0 0 0 0 0 0 0 0 0 0 0 0 0 0 0 0 817 2282 2218 3015 2614 2218 1620 1044 999 1186 1418 1555 1675 1804 1903 1888 1827 1871 1872 1697 1506 1449 1655 1756 1775 1710 1731 1598 1309 1053
0 0 0 0 0 0 0 0 0 0 0 0 0 0 0 0 0 0 0 0 1364 2198 2663 2728 2505 2113 1373 1155 968 1035 1205 1315 1517 1695 1785 1770 1784 1760 1726 1508 1407 1479 1548 1646 1730 1714 1535 1354 1076
0 0 0 0 0 0 0 0 0 0 0 0 0 0 0 0 0 0 0 0 0 23 2508 2837 2720 2358 1908 1630 1197 831 963 999 1214 1387 1576 1692 1751 1751 1606 1486 1386 1618 1672 1581 1663 1536 1433 1277 1087
0 0 0 0 0 0 0 0 0 0 0 0 0 0 0 0 0 0 0 0 0 0 1742 2771 2741 2548 2362 2192 1938 1442 913 831 833 1141 1436 1424 1550 1962 1954 1778 1687 1567 1686 1498 1382 1248 1306 1221 1031
0 0 0 0 0 0 0 0 0 0 0 0 0 0 0 0 0 0 0 0 0 0 1350 2024 2344 2378 2193 2199 2357 2085 1525 1154 1034 1045 1438 1560 1383 1552 1946 1897 1859 1720 1652 1517 1384 1259 1271 1231 1079
0 0 0 0 0 0 0 0 0 0 0 0 0 0 0 0 0 0 0 0 0 0 234 68 1714 2239 2007 1578 1730 1949 2027 1968 1753 1684 1578 1796 1712 1512 1563 1701 1768 1608 1655 1636 1460 1424 1422 1437 1150
0 0 0 0 0 0 0 0 0 0 0 0 0 0 0 0 0 0 0 0 0 0 0 0 0 0 0 546 956 1073 923 1474 1823 1829 2109 2101 1922 2033 1657 1799 1678 1723 1819 1752 1647 1393 1345 1410 1148
0 0 0 0 0 0 0 0 0 0 0 0 0 0 0 0 0 0 0 0 0 0 0 0 0 0 0 0 0 41 572 920 1160 1132 1864 2282 2273 1923 2033 1532 1801 1427 1888 1856 1789 1546 1391 1279 1054
0 0 0 0 0 0 0 0 0 0 0 0 0 0 0 0 0 0 0 0 0 0 0 0 0 0 0 0 0 0 0 0 199 1119 1587 1658 1826 2190 1947 1839 1825 1754 1568 1791 1856 1573 1405 1295 1032
0 0 0 0 0 0 0 0 0 0 0 0 0 0 0 0 0 0 0 0 0 0 0 0 0 0 0 0 0 0 0 0 0 43 942 1216 1425 1481 1829 1925 1828 1722 1693 1783 1780 1691 1414 1229 1210
0 0 0 0 0 0 0 0 0 0 0 0 0 0 0 0 0 0 0 0 0 0 0 0 0 0 0 0 0 0 0 0 0 0 0 29 1028 1329 1476 1735 1680 1660 1604 1446 1690 1695 1522 1343 1223
0 0 0 0 0 0 0 0 0 0 0 0 0 0 0 28 30 0 0 0 0 0 0 0 0 0 0 0 0 0 0 0 0 0 0 0 0 43 1141 1406 1572 1607 1471 1024 1308 1512 1511 1465 1435
0 2 0 0 2 0 0 0 0 0 0 0 0 0 0 70 0 0 0 0 0 0 0 0 0 0 0 0 0 0 0 0 0 0 0 0 0 0 123 1160 1179 1311 1293 1034 902 967 1318 1343 1307
0 1 36 18 1 0 0 0 0 0 0 0 0 26 11 0 0 0 0 0 0 0 0 0 0 0 0 0 0 0 0 0 0 0 0 0 0 0 0 0 643 1169 1097 869 676 786 1026 1028 817
1 26 0 0 0 0 0 0 0 0 0 4 21 0 0 0 0 0 0 0 0 0 0 0 0 0 0 0 0 0 0 0 0 0 0 0 0 0 0 0 0 630 1002 879 775 685 1034 921 799
6 1 0 0 0 0 0 0 0 0 21 130 36 0 0 0 0 0 0 0 0 0 0 0 0 0 0 0 0 0 0 0 0 0 0 0 0 0 0 0 0 0 879 1009 975 888 945 1171 1178
1 0 0 0 0 0 0 0 0 14 62 56 1 0 0 0 0 0 0 0 0 0 0 0 0 0 0 0 0 0 0 1 1 1 2 1 0 0 0 0 0 0 92 1014 1077 832 874 974 1136
1 0 0 0 0 0 0 0 0 2 0 0 0 0 0 0 0 0 0 0 0 0 0 0 0 0 0 0 0 0 0 0 1 0 0 1 2 1 0 0 0 0 0 473 892 745 754 1125 1149
0 0 0 0 0 0 0 0 2 0 1 0 1 0 0 0 0 0 0 0 0 0 0 0 0 0 0 0 0 1 0 1 2 1 1 1 1 1 1 1 1 0 0 16 910 799 613 1106 1385
0 0 0 0 0 0 0 0 32 0 2 3 1 0 0 0 0 0 0 0 0 0 0 0 0 0 0 0 1 2 1 1 2 2 2 3 3 4 2 0 0 2 1 0 840 647 529 902 1163
0 0 0 1 0 0 0 0 0 14 2 0 0 0 0 0 0 0 0 0 0 0 0 0 0 0 1 1 2 2 2 2 2 2 3 3 3 4 4 4 2 2 2 0 801 892 511 812 914
0 0 0 0 0 0 0 0 16 12 11 4 0 0 0 0 0 0 0 0 0 0 0 0 0 1 0 0 0 1 1 2 2 3 2 2 3 3 3 5 4 1 1 1 636 1309 1053 829 880

GFSSGP_con_mlcape_120.txt.gz
CAPE
0 0 0 0 0 0 0 0 0 0 0 0 0 0 0 0 0 15 696 1466 1454 1030 1349 1392 1306 1279 1284 1331 1201 1052 1000 891 663 519 567 536 514 711 987 1221 1468 1699 1785 1866 1758 1629 1515 1285 1133
0 0 0 0 0 0 0 0 0 0 0 0 0 0 0 0 0 58 641 1594 1474 1300 1271 1357 1325 1325 1301 1265 1219 1199 1181 1006 852 634 642 600 502 535 776 1079 1404 1561 1568 1544 1506 1368 1323 1208 1062
0 0 0 0 0 0 0 0 0 0 0 0 0 0 0 0 0 146 780 1607 1772 1583 1315 1307 1258 1319 1428 1296 1212 1237 1264 1116 976 782 720 724 671 696 838 949 1181 1643 1813 1744 1611 1935 1978 1622 1456
0 0 0 0 0 0 0 0 0 0 0 0 0 0 0 0 0 408 1230 1630 1908 1779 1361 1274 1182 1189 1323 1392 1245 1253 1245 1176 1119 965 861 847 825 870 962 1082 1425 1650 2093 2244 2203 2055 2011 1759 1384
0 0 0 0 0 0 0 0 0 0 0 0 0 0 0 0 5 353 1332 1573 1787 1998 1551 1171 1176 1214 1253 1334 1290 1299 1309 1312 1311 1236 1001 941 965 919 925 971 1151 1513 2313 2163 1845 1763 1665 1422 1153
0 0 0 0 0 0 0 0 0 0 0 0 0 0 0 0 0 293 735 1211 1894 1973 1878 1456 1217 1120 1213 1327 1333 1432 1527 1493 1487 1437 1232 1104 1106 1012 881 842 1029 1496 2033 2007 1803 1736 1544 1130 968
0 0 0 0 0 0 0 0 0 0 0 0 0 0 0 0 0 0 137 1317 1737 2065 1991 1667 1245 1138 1120 1179 1268 1484 1659 1659 1569 1561 1446 1218 1153 1102 994 867 1049 1414 1859 1905 1832 1818 1648 1312 993
0 0 0 0 0 0 0 0 0 0 0 0 0 0 0 0 0 0 123 1450 2047 2043 1999 1823 1584 1362 1185 1183 1250 1501 1727 1754 1601 1503 1469 1287 1163 1231 1195 1044 1167 1304 1748 1929 1892 1743 1682 1446 1058
0 0 0 0 0 0 0 0 0 0 0 0 0 0 0 0 0 0 44 1374 2209 2314 2183 1906 1729 1528 1268 1147 1256 1480 1655 1703 1608 1594 1589 1554 1510 1416 1435 1295 1201 1316 1547 1791 1816 1668 1582 1325 993
0 0 0 0 0 0 0 0 0 0 0 0 0 0 0 0 0 0 0 0 406 2168 2331 2222 1945 1741 1392 1137 1213 1357 1606 1713 1738 1788 1787 1757 1705 1616 1616 1459 1281 1305 1439 1675 1685 1552 1538 1280 957
0 0 0 0 0 0 0 0 0 0 0 0 0 0 0 0 0 0 0 0 0 109 1818 2399 2309 1943 1526 1193 984 1071 1218 1375 1582 1750 1763 1696 1730 1746 1727 1519 1375 1302 1413 1488 1547 1522 1519 1243 977
0 0 0 0 0 0 0 0 0 0 0 0 0 0 0 0 0 0 0 0 0 0 0 1727 2590 2375 1892 1339 938 908 990 1012 1077 1317 1496 1444 1463 1524 1530 1378 1208 1107 1191 1195 1310 1309 1288 1151 1009
0 0 0 0 0 0 0 0 0 0 0 0 0 0 0 0 0 0 0 0 0 0 0 1768 2291 2274 2084 1813 1511 1177 945 791 772 832 1200 1353 1260 1177 1463 1337 1206 1032 1136 1270 1262 1211 1072 952 917
0 0 0 0 0 0 0 0 0 0 0 0 0 0 0 0 0 0 0 0 0 0 0 1003 645 700 1713 1620 1916 1973 1602 1115 862 732 702 1013 983 1079 1139 1546 1512 1394 1304 1313 1260 1148 1027 923 876
0 0 0 0 0 0 0 0 0 0 0 0 0 0 0 0 0 0 0 0 0 0 0 0 0 0 0 180 137 401 1132 1433 1430 1247 942 931 1167 1110 1101 1276 1639 1751 1603 1453 1273 1174 1107 1036 1005
0 0 0 0 0 0 0 0 0 0 0 0 0 0 0 0 0 0 0 0 0 0 0 0 0 0 0 0 0 0 0 54 132 179 792 1158 1076 1297 1153 1245 1392 1388 1614 1468 1304 1223 1175 1094 1073
0 0 0 0 0 0 0 0 0 0 0 0 0 0 0 0 0 0 0 0 0 0 0 0 0 0 0 0 0 0 0 0 0 0 20 179 21 760 1093 1188 1365 1400 1471 1541 1408 1353 1252 1077 962
0 0 0 0 0 0 0 0 0 0 0 0 0 0 0 0 0 0 0 0 0 0 0 0 0 0 0 0 0 0 0 0 0 0 0 0 32 0 6 670 1076 1022 1141 1320 1443 1457 1317 1252 903
0 0 0 0 0 0 0 0 0 0 0 0 0 0 0 0 1 0 0 0 0 0 0 0 0 0 0 0 0 0 0 0 0 0 0 0 0 0 0 580 962 729 733 871 1045 1301 1139 1000 790
0 0 0 0 0 0 0 0 0 0 0 0 0 0 0 14 0 0 0 0 0 0 0 0 0 0 0 0 0 0 0 0 0 0 0 0 0 0 0 0 13 751 793 736 617 595 579 766 683
0 0 0 0 0 0 0 0 0 0 0 0 0 0 2 0 0 0 0 0 0 0 0 0 0 0 0 0 0 0 0 0 0 0 0 0 0 0 0 0 0 0 333 398 319 468 424 275 385
0 0 0 0 0 0 0 0 0 0 0 0 0 0 3 0 0 0 0 0 0 0 0 0 0 0 0 0 0 0 0 0 0 0 0 0 0 0 0 0 0 0 0 165 557 481 285 343 67
0 1 8 1 0 0 0 0 0 0 0 0 0 0 0 0 0 0 0 0 0 0 0 0 0 0 0 0 0 0 0 0 0 0 0 0 0 0 0 0 0 0 0 0 111 594 484 256 91
0 2 0 0 0 0 0 0 0 0 6 0 0 0 0 0 0 0 0 0 0 0 0 0 0 0 0 0 0 0 0 0 0 0 0 0 0 0 0 0 0 0 0 0 0 303 473 251 72
0 1 3 0 0 0 0 0 0 2 2 0 1 0 0 0 0 0 0 0 0 0 0 0 0 0 0 0 0 0 0 0 0 0 1 3 2 0 0 0 0 0 0 0 0 0 526 453 271
0 7 0 0 0 0 0 0 0 2 1 4 11 1 0 1 0 0 0 0 0 0 0 0 0 0 0 0 0 0 0 1 2 1 1 1 1 1 0 0 1 1 2 2 0 0 45 614 499
0 0 0 0 0 0 0 0 2 3 0 0 0 0 0 1 0 0 0 0 0 0 0 0 0 0 0 0 2 1 1 0 1 0 1 1 1 1 2 2 2 1 0 0 1 0 0 334 606
0 0 0 0 0 0 0 0 0 0 0 2 1 1 0 0 0 0 0 0 0 0 0 0 0 1 1 0 0 0 0 0 0 0 0 2 2 2 4 2 3 2 2 0 1 2 0 35 529
0 0 0 0 0 0 0 0 0 0 0 0 0 0 0 0 0 0 0 0 0 0 0 0 1 1 0 0 0 0 0 1 2 2 2 2 2 3 3 3 3 3 3 3 2 3 3 0 468
0 0 0 0 0 0 0 0 0 0 0 0 0 0 0 0 0 0 0 0 0 1 0 1 0 0 0 0 0 0 1 2 1 2 1 2 3 3 2 3 3 3 4 3 3 3 2 0 337

GFSSGP_con_mlcape_123.txt.gz
CAPE
0 0 0 0 0 0 0 0 0 0 0 0 0 0 0 0 0 12 729 1323 1348 1004 1312 1343 1351 1391 1415 1326 1093 871 695 565 547 670 833 998 1169 1370 1487 1612 1784 1965 2076 2025 1799 1620 1621 1377 938
0 0 0 0 0 0 0 0 0 0 0 0 0 0 0 0 38 466 499 1473 1291 1044 1306 1405 1385 1362 1363 1295 1226 1131 947 733 615 616 734 931 1038 1180 1385 1580 1757 1882 1864 1820 1712 1625 1573 1207 898
0 0 0 0 0 0 0 0 0 0 0 0 0 0 0 0 2 309 602 1521 1386 1147 1297 1370 1390 1353 1270 1233 1235 1266 1204 906 724 658 721 753 917 1023 1192 1365 1583 1748 1790 1846 1793 1671 1453 1185 1058
0 0 0 0 0 0 0 0 0 0 0 0 0 0 0 0 0 603 1035 1590 1517 1364 1277 1336 1367 1332 1272 1209 1178 1259 1269 1022 827 709 761 727 777 924 1082 1198 1339 1575 1665 1570 1573 1854 1593 1305 1107
0 0 0 0 0 0 0 0 0 0 0 0 0 0 0 0 446 1258 1185 1725 1671 1620 1337 1250 1245 1260 1282 1247 1189 1196 1207 1135 994 836 788 843 890 944 942 1062 1521 1815 1911 2053 1871 1719 1515 1283 976
0 0 0 0 0 0 0 0 0 0 0 0 0 0 0 0 1 238 902 1376 1875 1786 1584 1284 1240 1280 1331 1397 1298 1188 1183 1176 1189 1042 873 857 913 971 1034 1196 1418 1749 2168 1990 1550 1393 1334 1107 899
0 0 0 0 0 0 0 0 0 0 0 0 0 0 0 0 0 65 421 893 1498 1822 1783 1418 1270 1317 1279 1259 1310 1250 1261 1241 1316 1286 1031 928 869 905 940 1030 1164 1642 2133 1859 1583 1368 1151 882 796
0 0 0 0 0 0 0 0 0 0 0 0 0 0 0 0 0 2 930 1321 1558 1711 1890 1711 1479 1328 1301 1314 1252 1278 1399 1384 1391 1426 1304 1041 896 964 953 889 1040 1420 1873 1846 1695 1501 1266 1036 764
0 0 0 0 0 0 0 0 0 0 0 0 0 0 0 0 0 0 137 803 1633 1909 1920 1782 1594 1322 1173 1249 1342 1433 1501 1540 1529 1527 1526 1291 1136 1093 1167 1082 999 1267 1698 1789 1762 1625 1373 1137 844
0 0 0 0 0 0 0 0 0 0 0 0 0 0 0 0 0 0 0 10 864 1586 1863 1963 1852 1733 1413 1297 1349 1516 1659 1711 1638 1539 1502 1586 1416 1221 1345 1304 1137 1247 1444 1775 1799 1653 1402 1195 839
0 0 0 0 0 0 0 0 0 0 0 0 0 0 0 0 0 0 0 0 0 1172 2190 2084 2010 1853 1751 1546 1276 1321 1484 1591 1666 1654 1623 1669 1608 1555 1509 1490 1425 1360 1454 1633 1829 1679 1465 1221 872
0 0 0 0 0 0 0 0 0 0 0 0 0 0 0 0 0 0 0 0 0 0 0 0 1414 2211 1924 1584 1288 1140 1223 1347 1541 1674 1726 1627 1573 1605 1583 1524 1420 1339 1373 1416 1604 1540 1414 1251 994
0 0 0 0 0 0 0 0 0 0 0 0 0 0 0 0 0 0 0 0 0 0 0 27 1150 2413 2125 1791 1436 1032 1073 1117 1156 1352 1617 1563 1539 1607 1509 1477 1373 1296 1256 1251 1341 1436 1286 1206 1046
0 0 0 0 0 0 0 0 0 0 0 0 0 0 0 0 0 0 0 0 0 0 0 285 1158 1919 2197 1887 1641 1343 960 882 927 1016 1129 1378 1347 1177 1190 1264 1239 1233 1183 1170 1119 1193 1198 1154 1012
0 0 0 0 0 0 0 0 0 0 0 0 0 0 0 0 0 0 0 0 0 0 0 0 0 0 53 80 73 154 546 867 873 913 1177 1020 1070 1202 1087 1116 1183 1215 1310 1174 1090 1103 1157 1150 996
0 0 0 0 0 0 0 0 0 0 0 0 0 0 0 0 0 0 0 0 0 0 0 0 0 0 0 0 0 0 0 0 0 0 0 50 381 1106 1174 1143 1107 1220 1128 1245 1341 1321 1201 1118 1038
0 0 0 0 0 0 0 0 0 0 0 0 0 0 0 0 0 0 0 0 0 0 0 0 0 0 0 0 0 0 0 0 0 0 0 0 0 33 145 175 166 598 758 895 1074 1188 1173 1030 960
0 0 0 0 0 0 0 0 0 0 0 0 0 0 0 0 0 0 0 0 0 0 0 0 0 0 0 0 0 0 0 0 0 0 0 0 0 0 7 0 0 0 91 398 660 926 1000 963 826
0 0 0 0 0 0 0 0 0 0 0 0 0 0 0 0 0 0 0 0 0 0 0 0 0 0 0 0 0 0 0 0 0 0 0 0 0 0 0 0 0 10 60 20 343 614 758 749 486
0 0 0 0 0 0 0 0 0 0 0 0 0 0 0 0 0 0 0 0 0 0 0 0 0 0 0 0 0 0 0 0 0 0 0 0 0 0 0 0 0 1 0 44 49 542 496 531 318
0 0 0 0 0 0 0 0 0 0 0 0 0 0 0 0 0 0 0 0 0 0 0 0 0 0 0 0 0 0 0 0 0 0 0 0 0 0 0 0 0 0 0 0 29 380 190 283 272
0 0 0 0 0 0 0 0 0 0 0 0 0 0 0 0 0 0 0 0 0 0 0 0 0 0 0 0 0 0 0 0 0 0 0 0 0 0 0 0 0 0 0 0 0 0 270 67 16
0 0 0 0 0 0 0 0 0 0 0 0 0 0 0 0 0 0 0 0 0 0 0 0 0 0 0 0 0 0 0 0 0 0 0 0 0 0 0 0 0 0 0 0 0 0 0 263 10
0 0 0 0 0 0 0 0 0 0 1 0 0 0 0 0 0 0 0 0 0 0 0 0 0 0 0 0 0 0 0 0 0 0 0 0 0 0 0 0 0 0 0 0 0 0 0 1 296
0 0 0 0 0 0 0 0 0 1 0 2 2 0 0 0 0 0 0 0 0 0 0 0 0 0 0 0 1 0 0 1 1 1 2 2 1 1 1 0 1 2 1 0 1 1 0 0 21
0 0 4 0 0 0 0 0 0 1 1 1 0 0 0 0 0 0 0 0 0 0 0 0 0 0 2 1 2 0 0 0 0 0 0 0 2 1 0 0 0 1 1 1 0 0 0 1 0
0 0 1 2 0 0 0 0 0 0 2 0 0 1 0 0 0 0 0 0 0 0 0 0 0 2 0 0 0 0 0 0 0 1 1 1 3 2 2 2 3 2 2 2 2 1 2 0 0
0 0 0 0 0 0 0 0 0 1 3 0 2 2 2 2 1 0 0 0 0 0 0 0 0 1 0 1 0 0 0 0 1 1 1 2 2 3 3 3 3 3 3 3 3 3 1 3 1
0 0 0 0 0 0 0 0 0 0 0 1 0 0 0 0 0 0 0 0 0 0 0 0 0 0 0 0 0 0 1 0 1 0 1 1 2 2 2 2 2 3 2 2 2 2 3 2 1
0 0 0 0 0 0 0 0 0 0 0 0 0 0 0 0 0 0 0 0 0 0 0 0 0 0 0 0 0 0 1 1 1 1 1 1 1 2 2 1 2 2 3 3 3 3 3 4 4

GFSSGP_con_mlcape_126.txt.gz
CAPE
0 0 0 0 0 0 0 0 0 0 0 0 0 0 0 0 0 0 533 1176 1184 1211 1217 1146 1156 1175 1272 1077 716 609 823 835 1041 1357 1508 1539 1506 1672 1695 1573 1577 1792 1894 2075 1977 1810 1622 1202 601
0 0 0 0 0 0 0 0 0 0 0 0 0 0 0 0 4 343 386 1121 1118 1251 1327 1204 1317 1351 1334 1153 897 754 815 876 872 1123 1507 1665 1731 1781 1626 1576 1746 2006 2039 2174 2133 2011 1760 1268 773
0 0 0 0 0 0 0 0 0 0 0 0 0 0 0 0 5 233 521 1233 1177 1100 1318 1338 1441 1490 1478 1308 1058 984 926 907 915 942 1139 1404 1563 1562 1515 1534 1698 1909 1998 2078 2009 1925 1588 993 667
0 0 0 0 0 0 0 0 0 0 0 0 0 0 0 0 0 409 1168 1366 1304 1110 1341 1345 1367 1409 1435 1377 1235 1133 1081 938 857 965 1114 1237 1348 1382 1359 1355 1501 1652 1837 1945 1968 1801 1041 646 563
0 0 0 0 0 0 0 0 0 0 0 0 0 0 0 3 347 1070 1151 1430 1314 1333 1264 1345 1377 1347 1303 1291 1256 1234 1195 972 869 901 989 1155 1276 1323 1330 1316 1403 1491 1566 1587 1507 1402 1196 1017 944
0 0 0 0 0 0 0 0 0 0 0 0 0 0 0 0 7 230 1014 1195 1562 1547 1462 1350 1439 1427 1373 1299 1286 1254 1273 1109 962 916 966 988 1085 1165 1190 1281 1336 1436 1523 1665 1735 1682 1459 1185 909
0 0 0 0 0 0 0 0 0 0 0 0 0 0 0 0 0 19 668 1366 1620 1684 1641 1414 1397 1466 1452 1454 1400 1286 1317 1233 1161 1073 1008 1053 1009 981 1033 1178 1474 1656 1781 1836 1580 1337 1251 1096 860
0 0 0 0 0 0 0 0 0 0 0 0 0 0 0 0 0 0 534 1254 1528 1676 1699 1557 1387 1450 1453 1433 1445 1387 1269 1249 1264 1257 1157 1130 1126 1143 1152 1272 1523 1677 1988 1844 1477 1218 1042 771 661
0 0 0 0 0 0 0 0 0 0 0 0 0 0 0 0 0 0 0 573 1334 1564 1677 1715 1527 1450 1469 1448 1454 1534 1532 1438 1372 1439 1441 1287 1241 1179 1180 1169 1210 1481 2064 1919 1666 1365 1137 873 664
0 0 0 0 0 0 0 0 0 0 0 0 0 0 0 0 0 0 0 0 160 796 1647 1801 1798 1674 1432 1377 1410 1503 1629 1728 1637 1541 1558 1570 1412 1252 1276 1167 1023 1148 1633 1864 1731 1529 1367 1154 853
0 0 0 0 0 0 0 0 0 0 0 0 0 0 0 0 0 0 0 0 0 13 783 1638 1861 1769 1646 1560 1432 1423 1597 1705 1727 1712 1621 1641 1561 1389 1338 1327 1192 1034 1249 1693 1749 1642 1464 1213 889
0 0 0 0 0 0 0 0 0 0 0 0 0 0 0 0 0 0 0 0 0 0 15 1171 1905 1664 1768 1588 1556 1422 1437 1414 1532 1561 1574 1584 1490 1461 1434 1347 1302 1170 1150 1277 1580 1568 1539 1249 978
0 0 0 0 0 0 0 0 0 0 0 0 0 0 0 0 0 0 0 0 0 0 0 0 0 92 1640 1720 1437 1136 1181 1242 1411 1266 1329 1326 1383 1373 1362 1202 1417 1338 1214 1235 1254 1309 1191 1107 1027
0 0 0 0 0 0 0 0 0 0 0 0 0 0 0 0 0 0 0 0 0 0 0 0 62 1197 1884 1889 1512 1240 951 980 1114 1126 1134 1162 1304 1349 1233 1098 1193 1440 1047 1156 1183 1105 1081 1000 1002
0 0 0 0 0 0 0 0 0 0 0 0 0 0 0 0 0 0 0 0 0 0 0 0 0 2 126 173 59 183 453 597 657 521 325 565 1007 939 1014 798 972 758 801 812 918 1047 1055 939 1074
0 0 0 0 0 0 0 0 0 0 0 0 0 0 0 0 0 0 0 0 0 0 0 0 0 0 0 0 0 0 0 0 0 0 0 0 19 129 108 180 513 615 710 869 995 994 932 960 836
0 0 0 0 0 0 0 0 0 0 0 0 0 0 0 0 0 0 0 0 0 0 0 0 0 0 0 0 0 0 0 0 0 0 0 0 0 0 5 75 173 279 314 676 752 845 813 718 789
0 0 0 0 0 0 0 0 0 0 0 0 0 0 0 0 0 0 0 0 0 0 0 0 0 0 0 0 0 0 0 0 0 0 0 0 0 0 0 0 8 0 0 11 100 81 226 490 746
0 0 0 0 0 0 0 0 0 0 0 0 0 0 0 0 0 0 0 0 0 0 0 0 0 0 0 0 0 0 0 0 0 0 0 0 0 0 0 0 0 0 0 0 0 0 6 34 369
0 0 0 0 0 0 0 0 0 0 0 0 0 0 0 0 0 0 0 0 0 0 0 0 0 0 0 0 0 0 0 0 0 0 0 0 0 0 0 0 0 0 0 0 1 0 0 0 61
0 0 0 0 0 0 0 0 0 0 0 0 0 0 0 0 0 0 0 0 0 0 0 0 0 0 0 0 0 0 0 0 0 0 0 0 0 0 0 0 0 0 0 0 0 0 4 1 62
0 0 0 0 0 0 0 0 0 0 0 0 0 0 0 0 0 0 0 0 0 0 0 0 0 0 0 0 0 0 0 0 0 0 0 0 0 0 0 0 0 0 0 0 0 0 0 1 8
0 0 0 0 0 0 0 0 0 0 0 0 0 0 0 0 0 0 0 0 0 0 0 0 0 0 0 0 0 0 0 0 1 0 0 0 0 0 0 0 0 0 0 0 0 0 0 0 0
0 0 0 0 0 0 0 0 0 0 0 0 0 0 0 0 0 0 0 0 0 0 0 0 0 0 0 0 0 0 0 2 2 1 0 2 1 1 0 0 0 1 1 2 0 0 0 0 1
0 0 0 0 0 0 0 0 0 0 0 0 0 0 0 0 0 0 0 0 0 0 0 0 0 0 0 0 0 0 0 0 0 0 0 1 1 0 1 1 0 0 1 0 1 1 1 0 0
0 0 2 0 0 0 0 0 0 0 0 0 0 0 0 0 0 0 0 0 0 0 0 0 0 0 0 0 0 0 0 0 0 0 0 0 1 1 1 2 2 2 1 2 1 2 0 1 2
0 0 1 22 0 0 0 0 0 0 0 0 0 0 0 0 0 0 0 0 0 0 0 0 0 1 0 0 0 0 0 0 0 0 2 2 1 2 1 1 2 2 2 3 2 2 2 1 2
0 0 0 0 0 0 0 0 0 0 0 0 0 0 0 0 0 0 0 0 0 0 0 1 0 0 0 1 0 1 1 2 1 3 1 1 1 2 1 1 2 2 2 2 2 2 2 3 2
0 0 0 0 0 0 0 0 0 0 0 0 0 0 0 0 0 0 0 0 0 0 0 0 0 0 0 1 0 1 0 0 1 1 0 1 2 1 2 2 2 2 2 2 2 3 3 3 3
0 0 0 0 0 0 0 0 0 0 0 0 0 0 0 0 0 0 0 0 1 0 0 0 0 0 0 0 0 0 0 2 0 0 1 1 1 0 1 1 3 3 3 1 1 3 4 3 3

GFSSGP_con_mlcape_129.txt.gz
CAPE
0 0 0 0 0 0 0 0 0 0 0 0 0 0 0 0 11 0 519 1317 1244 1436 1201 1282 1248 1215 1014 534 632 937 1259 1523 1524 1437 1396 1342 1226 1165 1300 1451 1436 1626 1917 2034 2049 1826 1600 900 409
0 0 0 0 0 0 0 0 0 0 0 0 0 0 0 0 1 389 400 1233 1316 1526 1522 1553 1379 1325 1237 857 512 759 1143 1471 1654 1586 1480 1450 1308 1433 1536 1534 1546 1740 2084 1871 1935 2031 1711 1015 526
0 0 0 0 0 0 0 0 0 0 0 0 0 0 0 0 55 220 618 1328 1326 1603 1649 1610 1424 1368 1346 1201 867 726 837 1206 1551 1777 1737 1599 1533 1765 1755 1560 1555 1893 2067 1847 2145 2024 1759 1053 684
0 0 0 0 0 0 0 0 0 0 0 0 0 0 0 0 0 427 1244 1291 1282 1445 1711 1483 1402 1412 1441 1383 1153 1020 887 797 1217 1650 1873 1882 1891 1942 1763 1590 1702 2035 2082 2137 2227 2036 1573 938 577
0 0 0 0 0 0 0 0 0 0 0 0 0 0 0 27 28 1189 1457 1541 1415 1385 1574 1645 1469 1482 1530 1509 1361 1214 1056 840 765 1177 1702 1980 2066 1937 1669 1669 1763 1955 1972 2077 2025 1812 1172 498 420
0 0 0 0 0 0 0 0 0 0 0 0 0 0 0 0 0 49 1117 1469 1704 1700 1572 1643 1541 1480 1513 1546 1497 1360 1230 1040 859 894 1217 1519 1676 1692 1567 1561 1654 1662 1794 1894 1846 1438 707 628 725
0 0 0 0 0 0 0 0 0 0 0 0 0 0 0 0 0 0 480 1297 1650 1767 1835 1735 1798 1813 1573 1552 1493 1433 1431 1314 1082 913 1010 1270 1439 1495 1490 1517 1576 1559 1620 1615 1550 1303 1273 988 824
0 0 0 0 0 0 0 0 0 0 0 0 0 0 0 0 0 0 0 613 1278 1526 1840 1925 1777 1886 1979 2020 1697 1520 1459 1406 1229 1147 1030 1107 1262 1398 1405 1482 1620 1605 1601 1746 1810 1706 1427 1091 805
0 0 0 0 0 0 0 0 0 0 0 0 0 0 0 0 0 0 0 0 475 963 1552 1888 2001 1907 1918 1923 1892 1694 1580 1501 1487 1482 1394 1329 1585 1625 1562 1502 1631 1842 1878 1997 1837 1472 1259 992 736
0 0 0 0 0 0 0 0 0 0 0 0 0 0 0 0 0 0 0 0 0 14 618 1692 2008 2041 1877 1828 1892 1997 2050 1996 1944 1906 1938 1907 1803 1775 1726 1672 1493 1663 1793 1850 1803 1488 1228 956 1077
0 0 0 0 0 0 0 0 0 0 0 0 0 0 0 0 0 0 0 0 0 0 130 1227 1956 2094 2082 1960 1902 1816 1710 1902 1931 1918 1958 2012 1850 1607 1647 1711 1590 1640 1560 1908 1891 1687 1574 1646 1486
0 0 0 0 0 0 0 0 0 0 0 0 0 0 0 0 0 0 0 0 0 0 0 271 1813 2116 2077 2065 1996 1737 1561 1694 1753 1795 1867 1801 1944 1693 1533 1509 1597 1627 1539 1594 1841 1904 1826 1760 1686
0 0 0 0 0 0 0 0 0 0 0 0 0 0 0 0 0 0 0 0 0 0 0 0 315 420 769 1799 1813 1794 1578 1519 1539 1488 1352 1448 1747 1638 1449 1591 1471 1362 1455 1603 1566 1603 1383 1280 1299
0 0 0 0 0 0 0 0 0 0 0 0 0 0 0 0 0 0 0 0 0 0 0 0 0 0 467 1100 1407 1482 1308 1267 1349 1442 1283 1276 1378 1517 1509 1449 1347 1212 1195 1058 1504 1353 1329 1383 1236
0 0 0 0 0 0 0 0 0 0 0 0 0 0 0 0 0 0 0 0 0 0 0 0 0 0 0 0 14 157 191 314 427 334 332 845 1463 1526 1415 1307 1194 1185 1080 812 1017 1017 970 1480 1197
0 0 0 0 0 0 0 0 0 0 0 0 0 0 0 0 0 0 0 0 0 0 0 0 0 0 0 0 0 0 0 0 0 0 3 4 2 27 704 854 779 524 483 627 719 795 960 1111 1168
0 0 0 0 0 0 0 0 0 0 0 0 0 0 0 0 0 0 0 0 0 0 0 0 0 0 0 0 0 0 0 0 0 0 0 0 0 0 0 47 331 204 74 218 418 146 223 812 743
0 0 0 0 0 0 0 0 0 0 0 0 0 0 0 0 0 0 0 0 0 0 0 0 0 0 0 0 0 0 0 0 0 0 0 0 0 0 0 0 0 4 63 178 83 2 4 415 962
0 0 0 0 0 0 0 0 0 0 0 0 0 0 0 0 0 0 0 0 0 0 0 0 0 0 0 0 0 0 0 0 0 0 0 0 0 0 0 0 0 0 2 3 27 115 62 46 165
0 0 0 0 0 0 0 0 0 0 0 0 0 0 0 0 0 0 0 0 0 0 0 0 0 0 0 0 0 0 0 0 0 0 0 0 0 0 0 0 0 0 0 0 1 2 4 3 69
0 0 0 0 0 0 0 0 0 0 0 0 0 0 0 0 0 0 0 0 0 0 0 0 0 0 0 0 0 0 0 0 0 0 0 0 0 0 0 0 0 0 0 0 0 2 2 9 40
0 0 0 0 0 0 0 0 0 0 0 0 0 0 0 0 0 0 0 0 0 0 0 0 0 0 0 0 0 0 0 0 0 0 0 0 0 0 0 0 0 0 0 0 0 0 2 2 2
0 0 0 0 0 0 0 0 0 0 0 0 0 0 0 0 0 0 0 0 0 0 0 0 0 0 0 0 0 0 0 0 0 0 0 0 0 1 2 3 1 1 1 0 3 0 0 1 3
0 0 0 0 0 0 0 0 0 0 0 0 0 0 0 0 0 0 1 1 0 0 0 0 0 0 0 0 0 0 0 0 0 0 0 0 0 0 1 0 0 0 1 0 1 0 0 1 1
0 0 0 0 0 0 0 0 0 0 0 0 0 0 0 0 1 1 0 0 0 0 0 0 0 0 0 0 0 1 0 1 1 1 1 1 0 0 1 3 0 0 2 4 2 2 2 0 0
0 0 0 0 0 0 0 0 0 0 0 0 0 0 0 1 2 1 0 0 0 0 0 0 0 0 0 0 1 1 3 0 2 3 2 2 2 1 1 1 1 1 1 2 4 4 4 4 1
0 0 0 13 0 0 0 0 0 0 0 0 0 0 0 4 3 0 0 0 0 0 0 0 0 0 0 0 1 0 1 1 2 2 1 3 3 1 0 1 2 2 1 2 2 3 3 1 2
0 0 8 8 4 0 0 0 0 0 0 0 0 0 1 0 0 0 0 0 0 0 0 0 0 1 0 2 2 2 2 5 3 4 5 2 3 2 2 1 1 1 2 2 3 3 3 2 2
0 0 0 3 0 9 0 0 0 0 0 0 0 0 0 0 0 0 0 0 0 0 0 0 1 1 1 2 2 1 1 4 2 3 3 3 1 3 3 3 2 2 2 3 2 2 2 4 4
0 0 0 5 0 0 1 0 0 0 0 0 0 0 0 0 0 0 0 0 0 0 0 0 1 1 2 1 1 1 1 1 1 1 2 3 3 3 3 3 5 4 3 5 4 3 2 3 4